GFSGL_500_spd_000.txt.gz
Wind_Speed
48 50 51 52 58 61 65 66 69 73 79 85 96 89 80 77 64 67 33 22 17 17 18 29 24 25 23 34 57 64 66 70 59 55 81 81 76 72 65 68 71 63 50
48 50 50 55 58 63 63 67 70 75 80 88 90 75 74 75 60 60 26 21 22 22 26 19 18 13 22 55 38 46 36 69 50 61 72 81 78 70 67 73 71 63 53
49 50 52 55 59 62 64 65 70 75 81 90 75 70 71 71 55 49 23 22 22 24 16 15 16 15 26 54 47 25 54 66 47 58 64 80 77 75 71 76 72 64 56
50 50 53 56 61 61 62 66 71 77 81 86 69 69 69 66 53 39 22 21 22 19 17 15 11 7 18 58 35 42 45 65 50 47 47 78 77 75 73 77 73 67 60
51 50 54 57 59 60 62 66 71 77 82 74 65 67 66 62 52 30 24 21 21 18 12 15 10 19 45 28 27 36 46 63 55 61 59 68 76 77 78 78 74 67 59
50 51 55 59 57 60 62 65 71 76 83 67 63 66 62 58 49 31 24 19 20 17 12 14 8 15 21 36 25 57 54 63 59 41 55 65 79 77 78 78 74 69 63
49 52 55 59 57 60 62 65 72 77 81 64 62 63 61 56 48 29 24 16 17 12 9 11 7 9 13 30 37 59 53 47 60 50 54 55 80 77 79 79 75 66 55
50 53 56 56 56 58 61 65 72 78 78 63 59 62 60 51 46 27 21 15 21 18 12 12 15 14 12 31 50 65 60 46 64 68 53 45 78 80 80 75 72 65 55
50 54 55 54 55 57 62 66 72 78 75 60 58 62 58 48 44 28 20 19 21 19 17 12 15 12 11 17 55 55 57 55 67 73 55 48 80 69 82 77 76 67 58
51 53 53 54 54 57 62 68 72 78 75 58 57 61 56 48 44 29 23 23 20 18 15 12 11 15 14 30 50 53 59 55 54 65 51 48 81 67 81 79 74 62 56
51 51 53 52 54 57 63 68 72 78 73 57 58 60 55 53 44 27 24 23 20 22 16 13 12 16 10 18 55 47 56 65 59 65 62 62 59 59 83 80 74 64 52
49 51 52 52 55 58 64 70 74 77 69 56 59 57 56 56 41 24 27 24 21 22 18 16 14 18 16 21 45 42 55 63 59 61 50 51 61 76 85 80 72 63 57
48 51 50 53 55 59 65 71 76 78 66 54 58 56 56 55 36 22 30 27 23 20 18 16 11 11 21 38 44 40 47 46 49 60 48 55 61 77 79 78 73 65 58
48 50 52 53 55 60 66 72 75 79 61 55 58 56 57 51 32 22 31 28 23 21 17 15 10 17 32 49 42 49 55 57 59 61 52 54 54 74 78 75 72 66 61
47 50 51 53 56 61 67 72 77 71 57 55 57 56 56 43 27 20 26 29 23 21 18 15 12 21 32 32 49 58 57 56 60 57 53 55 54 71 75 73 70 64 61
48 50 50 54 57 63 67 71 77 61 56 58 54 54 52 38 22 18 28 28 25 22 17 15 15 24 28 30 57 54 56 55 59 60 56 52 54 68 71 70 68 63 58
47 47 49 53 58 64 68 71 72 53 55 53 50 51 48 33 20 18 29 31 25 23 21 19 19 29 26 39 52 57 56 51 61 64 64 57 55 64 68 69 67 62 59
46 46 50 54 59 64 69 73 64 50 51 47 46 49 45 32 19 20 32 34 27 24 23 23 20 28 29 33 39 61 54 41 59 64 61 60 56 66 67 65 67 63 56
43 45 49 55 61 65 70 70 53 50 50 46 42 45 46 31 17 24 34 36 30 26 25 25 24 28 28 32 45 47 58 45 53 57 66 58 59 59 71 66 69 63 54
41 45 49 56 61 66 71 55 49 50 50 44 40 40 42 29 17 27 37 36 33 26 26 29 26 26 31 29 42 53 56 46 36 52 58 67 59 60 63 62 67 64 59
40 45 51 57 62 68 62 48 48 48 48 41 38 39 40 27 18 30 40 39 33 27 25 28 29 31 36 35 34 35 46 47 43 43 50 69 65 60 62 64 69 68 63
40 45 52 58 64 69 51 46 47 50 45 37 36 39 39 25 20 32 43 42 34 31 27 28 28 30 35 34 42 43 43 42 48 47 58 61 62 59 59 58 68 65 64
40 46 53 58 66 57 48 47 47 49 41 36 38 40 34 22 21 34 46 44 36 34 30 30 28 30 35 38 40 44 42 41 52 47 51 60 61 59 56 55 52 64 66
40 47 53 59 64 50 44 46 44 48 42 37 42 37 28 18 21 34 48 47 40 36 32 32 30 31 34 38 39 37 39 36 41 57 53 54 62 59 55 54 48 60 57
41 48 55 60 54 42 45 44 43 47 41 39 41 34 22 15 21 34 50 48 42 39 35 34 35 33 37 43 39 43 45 44 48 46 57 53 55 50 53 56 56 55 59
43 49 56 56 46 39 43 42 45 45 40 40 43 32 18 15 23 31 50 52 47 43 39 35 36 33 35 43 43 42 43 47 45 43 55 56 53 46 46 52 55 58 61

GFSGL_500_spd_003.txt.gz
Wind_Speed
42 44 44 44 45 47 48 49 53 58 61 63 65 70 79 86 83 69 68 69 57 26 28 26 31 26 29 24 24 26 26 51 74 65 69 81 83 83 80 70 63 61 57
44 44 44 44 45 47 47 51 55 59 60 63 66 71 79 85 75 65 63 61 47 29 27 31 26 27 22 24 26 26 32 70 58 58 56 79 85 86 82 74 68 64 60
44 45 44 45 46 48 49 52 56 58 60 63 66 73 80 85 66 64 60 55 39 28 27 32 24 24 18 19 21 19 39 58 48 57 52 67 84 84 82 72 69 65 60
45 44 44 45 47 47 50 54 56 57 59 63 66 74 79 83 61 62 58 53 34 29 29 29 23 22 15 20 15 18 42 47 63 81 53 66 77 83 82 74 73 70 64
45 43 44 46 47 48 50 54 56 57 59 62 67 73 78 81 58 60 58 52 30 29 27 23 22 24 19 13 21 32 15 19 44 64 62 65 68 79 82 77 73 70 67
45 43 44 45 47 48 51 53 54 57 58 63 68 73 78 76 55 60 57 51 27 26 24 20 18 15 7 15 23 14 14 22 45 61 59 55 66 77 78 77 76 74 73
45 44 45 48 48 48 51 52 53 55 58 62 69 75 81 67 55 58 55 51 26 23 24 25 16 10 7 9 20 10 13 28 56 58 54 58 59 70 73 78 77 70 71
44 45 47 48 47 47 50 52 53 55 59 64 71 75 83 60 54 57 53 50 26 22 25 21 16 13 10 10 17 23 21 31 40 52 54 53 52 72 82 78 75 72 70
44 45 46 46 45 47 49 51 52 55 59 65 72 77 79 55 55 58 53 49 26 26 23 22 18 14 15 14 14 19 25 40 52 48 46 46 64 62 82 80 80 74 71
43 44 45 45 45 46 48 49 51 55 60 66 73 78 74 54 56 59 53 47 25 26 27 22 18 14 16 15 12 17 28 39 44 45 33 56 58 61 78 77 75 74 73
42 42 45 45 44 45 47 48 51 55 60 65 73 82 66 55 58 60 52 43 25 27 26 22 18 15 17 19 14 23 31 50 45 54 48 63 53 64 70 70 72 73 69
43 43 47 42 40 44 45 47 50 55 61 67 74 78 59 59 62 58 51 34 28 27 25 22 21 15 19 21 19 21 39 53 52 52 47 57 52 73 74 70 72 75 71
42 43 41 37 40 43 44 46 51 57 62 69 76 69 57 60 59 54 47 22 31 28 27 24 21 20 19 22 22 24 43 50 53 55 51 43 46 71 78 71 78 77 71
41 40 37 39 42 43 43 47 53 59 64 70 71 61 57 61 53 54 38 16 32 28 29 25 20 17 23 27 27 26 45 51 56 58 57 41 47 68 79 66 79 78 73
41 38 37 40 41 42 43 48 54 60 66 72 65 56 57 56 50 50 23 16 32 29 29 24 20 16 25 33 34 27 45 51 53 61 60 42 55 59 70 67 77 78 72
40 37 37 40 40 40 44 49 55 61 69 67 58 54 57 52 46 47 20 19 35 29 28 24 18 18 32 28 30 30 33 55 60 57 58 51 53 60 69 59 78 77 71
39 35 38 38 38 39 45 51 55 64 67 59 54 54 54 47 42 44 16 24 34 32 28 23 19 22 25 31 41 33 29 57 59 60 64 54 54 56 63 52 83 76 72
37 34 36 36 37 41 46 51 55 62 65 53 54 54 50 43 40 40 13 32 35 34 29 24 21 27 29 36 43 41 50 59 54 67 62 52 52 59 59 58 80 77 70
34 34 33 35 36 41 47 51 57 63 60 50 52 52 43 38 40 36 14 38 38 36 30 25 21 26 31 35 37 45 54 56 58 63 66 52 40 51 48 69 79 71 69
33 32 32 33 37 41 47 51 58 63 53 48 46 44 39 36 40 34 17 42 42 38 32 27 23 30 35 30 32 48 53 50 54 61 59 57 51 43 49 65 74 78 72
30 30 31 32 36 41 46 53 59 59 47 42 43 44 37 39 40 32 17 45 45 41 34 30 26 32 34 35 38 55 56 55 56 60 61 58 51 51 46 63 73 71 68
29 28 29 32 37 41 46 55 58 52 43 40 42 45 41 43 36 28 16 46 47 43 36 33 30 32 36 37 40 51 49 56 53 53 66 60 56 54 52 61 70 67 65
25 25 28 32 37 41 47 56 52 47 40 40 41 45 43 43 34 23 17 48 49 44 36 32 31 32 33 36 35 48 57 55 52 55 60 61 65 58 53 59 63 70 68
22 24 28 32 37 42 50 52 47 42 39 40 42 44 45 42 28 18 18 47 53 45 38 34 34 35 39 42 41 42 57 52 48 53 62 58 69 56 58 60 56 59 71
21 24 27 32 37 44 49 47 43 38 38 39 43 45 47 40 23 16 20 44 53 48 43 35 35 35 38 44 44 47 50 49 45 49 55 54 67 67 59 52 48 61 67
21 24 28 33 39 44 47 42 39 36 37 40 44 45 46 39 22 15 23 41 54 48 41 39 38 36 39 47 38 39 45 51 50 50 55 54 56 64 63 52 50 56 61

GFSGL_500_spd_006.txt.gz
Wind_Speed
39 40 40 41 43 45 44 44 44 46 47 49 51 55 58 60 64 68 75 81 74 63 65 67 40 37 41 37 37 40 33 37 33 29 53 70 80 91 86 87 80 74 71
40 40 41 42 45 44 42 43 45 46 47 50 52 55 57 60 65 70 76 83 64 60 60 59 34 36 39 35 33 33 37 31 30 26 52 69 81 77 86 84 79 76 73
40 41 41 44 45 43 41 44 45 46 47 50 53 55 57 60 65 71 76 82 58 59 58 53 32 37 37 36 34 33 26 30 20 26 51 68 79 71 82 85 79 77 73
41 41 43 45 44 42 42 43 45 47 48 50 53 55 57 60 66 71 78 78 53 56 54 47 31 34 33 33 28 25 25 17 19 38 48 75 80 80 83 76 77 76 73
41 42 44 45 44 41 42 44 47 47 48 49 52 54 55 60 66 72 80 76 50 53 51 41 31 30 31 29 22 21 19 11 9 39 49 63 59 74 81 68 74 71 78
41 43 43 44 44 42 43 45 46 46 48 49 51 53 55 62 66 73 81 70 50 53 47 37 29 26 31 23 23 16 25 24 5 40 31 52 69 71 81 83 76 81 77
42 43 43 44 42 42 43 45 45 45 46 49 51 52 57 63 69 76 81 62 50 54 46 32 25 21 20 18 10 14 9 4 6 28 43 49 67 76 79 81 74 78 75
41 42 43 44 42 42 43 46 46 45 45 48 49 52 58 65 71 77 79 55 54 53 45 30 24 20 19 15 10 16 8 7 8 28 47 48 60 74 64 75 74 75 72
43 43 43 43 43 41 43 44 46 44 45 47 48 54 60 66 73 79 71 54 57 48 46 31 25 19 18 13 13 21 14 11 17 18 39 34 59 71 78 74 74 73 71
44 42 42 43 43 42 45 48 45 42 43 44 49 56 61 67 75 77 61 57 55 49 47 29 25 20 18 17 17 13 15 14 27 24 44 45 55 59 76 73 75 68 69
42 43 43 44 41 43 44 45 40 42 43 44 50 56 63 72 79 69 59 60 56 56 36 26 26 20 18 15 23 18 15 17 31 47 41 38 59 52 74 70 75 72 67
43 43 43 43 42 43 43 39 39 40 41 44 50 57 65 73 76 60 59 60 57 47 20 26 25 20 17 15 27 24 17 23 30 39 45 39 50 58 63 71 75 70 65
43 43 45 41 40 41 41 37 38 39 40 45 52 57 63 76 64 58 59 54 56 30 19 27 22 19 18 13 19 25 20 25 36 42 48 50 46 49 62 73 75 72 67
44 45 42 37 38 38 37 36 37 37 40 46 51 57 64 71 61 57 52 49 46 19 25 25 21 19 18 16 19 27 23 29 42 41 54 43 54 52 56 67 72 71 70
45 42 37 37 39 39 36 35 35 36 41 46 50 57 68 62 56 51 47 46 38 15 28 27 22 18 19 15 25 28 27 34 36 46 46 53 52 44 48 63 71 71 75
42 42 36 37 39 39 34 33 33 35 42 45 51 58 63 54 48 47 44 44 33 17 30 27 22 19 18 20 27 30 30 29 39 47 47 61 45 44 53 61 69 74 76
38 37 34 38 37 34 32 31 32 38 41 45 52 61 60 47 47 45 41 41 31 21 31 28 23 20 20 22 28 32 37 38 40 43 46 48 57 48 64 65 70 79 77
36 36 36 37 33 31 29 31 32 37 42 48 53 63 54 43 46 48 42 38 27 26 32 29 24 21 19 23 25 33 34 42 47 40 46 52 43 53 71 68 68 69 76
36 36 38 34 32 31 29 30 33 38 42 48 54 60 49 44 45 48 43 32 22 31 35 31 26 24 22 29 36 32 31 44 49 50 51 46 41 58 67 73 67 69 72
36 37 36 31 34 29 27 30 34 37 43 48 57 56 46 43 45 47 41 27 19 36 39 33 29 26 28 32 35 38 37 43 54 53 51 49 45 50 55 61 71 60 75
38 38 32 31 33 25 27 30 33 38 43 49 61 52 45 41 45 45 38 27 19 41 43 37 33 28 29 35 39 46 42 35 56 53 53 56 47 46 51 57 65 76 76
36 31 28 30 26 24 26 30 34 39 45 53 57 45 44 42 45 43 35 23 18 46 46 41 35 28 31 37 42 44 32 37 51 57 57 55 55 50 56 55 51 61 65
28 26 29 28 20 23 27 29 35 40 46 52 49 41 40 43 45 42 31 18 19 50 49 45 37 33 30 38 41 45 46 47 56 54 54 65 61 48 58 57 56 55 81
24 27 29 18 18 23 26 31 36 41 47 48 43 39 40 43 44 41 26 15 21 53 50 47 40 36 31 36 43 42 46 53 54 54 59 69 61 46 52 58 59 63 72
27 29 17 15 21 23 27 32 37 44 45 43 37 38 42 43 44 40 23 16 26 56 52 47 40 37 32 36 42 46 52 58 56 55 55 57 54 50 51 55 61 57 78
29 15 11 19 22 25 28 34 40 43 42 35 35 37 41 44 45 39 20 19 30 58 54 47 40 38 34 38 42 47 53 58 56 54 55 56 59 56 50 54 51 49 76

GFSGL_500_spd_009.txt.gz
Wind_Speed
38 40 39 39 39 39 40 41 42 44 45 45 47 46 49 50 54 56 59 60 63 67 75 82 80 64 62 60 44 44 48 48 46 44 42 35 34 44 70 94 79 90 90
40 41 40 39 39 40 41 41 43 45 44 44 46 47 50 51 53 56 59 60 63 68 77 82 73 58 58 54 40 43 43 47 38 40 39 35 24 46 71 86 85 91 85
40 41 40 39 38 40 41 42 44 44 43 44 46 48 48 51 53 56 59 61 65 71 78 81 66 55 55 48 38 39 42 31 41 33 35 38 20 51 84 91 62 95 86
43 40 40 39 40 40 41 42 44 43 42 44 45 46 47 50 53 57 59 61 66 73 79 76 58 57 54 45 35 36 37 32 32 25 30 25 22 59 89 72 62 89 86
43 40 40 40 40 40 41 43 43 42 41 43 45 45 48 51 54 56 58 62 67 76 81 67 58 60 49 37 31 32 30 28 16 21 17 22 32 66 86 82 57 79 82
45 41 41 41 40 40 41 42 42 41 42 42 44 46 49 51 53 56 58 63 70 78 78 63 60 51 45 32 27 28 27 17 15 15 15 12 43 67 69 75 75 72 76
46 43 42 41 40 41 41 42 41 42 42 43 44 47 47 51 54 55 59 64 71 81 74 64 60 45 45 26 25 23 13 13 6 5 12 26 51 79 60 74 70 73 66
47 44 43 41 41 42 40 41 41 42 42 43 45 45 47 50 53 56 61 67 75 80 71 66 55 48 44 21 21 18 15 15 3 13 11 36 61 55 54 70 56 65 69
46 45 44 43 42 40 41 41 41 41 42 42 43 43 47 49 53 57 63 69 76 74 69 63 59 55 29 20 20 17 17 11 11 11 12 43 60 53 72 79 76 59 79
45 46 45 42 41 40 41 40 42 41 42 41 41 43 46 49 53 56 63 73 72 68 64 61 61 30 19 19 16 16 15 14 10 8 14 36 58 53 70 69 68 62 67
49 48 43 41 42 41 41 41 41 40 40 39 40 43 45 47 52 56 66 73 69 63 61 61 48 13 22 17 16 18 15 12 11 15 15 37 54 54 69 66 66 56 64
46 42 41 43 42 42 42 42 40 39 38 37 39 41 44 47 53 56 68 73 63 60 57 54 30 18 18 15 13 23 20 16 15 21 18 35 48 61 70 80 60 58 54
43 42 44 43 42 43 43 43 39 38 38 38 37 39 42 47 51 56 68 68 56 58 52 45 15 17 15 15 14 26 24 20 21 22 30 35 42 62 63 74 65 63 55
44 43 43 43 44 44 42 43 38 37 37 37 37 39 42 46 51 58 70 61 54 55 48 38 14 17 15 15 13 27 26 24 20 28 37 32 38 64 66 66 68 66 60
42 43 45 45 43 40 43 39 36 36 36 34 36 39 42 46 52 59 66 53 52 54 45 31 17 18 14 14 14 17 32 25 23 28 37 30 45 55 70 69 65 64 64
43 46 44 42 42 42 41 37 33 34 33 31 35 39 43 45 51 63 60 50 50 53 44 26 21 21 16 13 13 14 32 30 24 24 27 28 33 49 57 64 62 62 64
46 44 47 47 41 35 37 34 32 33 30 33 34 38 41 44 52 63 54 46 48 51 40 22 24 23 17 13 12 19 29 32 29 24 32 40 41 41 58 58 67 71 66
49 48 44 38 34 33 34 33 31 31 30 33 35 37 41 44 52 62 52 44 47 51 34 20 27 26 19 15 13 22 30 31 29 30 32 35 38 41 54 64 65 73 66
47 41 38 36 35 33 32 32 30 30 29 31 34 37 41 46 53 61 50 43 44 48 33 20 30 27 22 17 15 21 35 31 30 29 38 32 43 45 50 65 70 72 67
38 38 37 37 34 32 32 31 29 27 28 30 32 38 43 49 55 57 45 43 43 44 32 23 34 30 24 19 18 22 24 37 34 29 37 36 49 54 47 61 73 69 66
34 36 36 37 35 34 30 26 27 24 27 30 33 37 44 52 56 51 44 45 45 44 30 26 38 32 27 22 23 24 30 40 40 35 34 43 54 49 49 58 62 66 66
39 38 35 35 36 31 26 27 21 22 26 31 33 40 48 54 53 45 43 45 45 44 25 28 42 35 29 26 27 25 29 46 43 43 36 37 49 47 42 63 63 62 66
35 36 36 33 30 25 26 20 19 22 28 30 36 43 51 55 49 43 43 45 44 41 22 31 46 38 32 28 30 30 30 43 39 42 42 42 34 38 40 57 62 62 66
31 29 27 26 23 24 17 15 20 24 27 31 37 46 53 50 45 42 43 44 46 35 23 36 49 41 36 31 35 39 37 40 38 39 44 45 42 42 39 47 66 60 65
23 24 22 20 22 20 14 17 22 24 28 34 41 49 50 45 41 41 42 44 44 28 24 41 50 43 38 35 37 44 39 36 31 40 47 48 46 41 53 54 54 60 64
20 17 15 21 18 14 14 19 23 27 31 37 46 47 42 39 40 41 41 45 37 22 26 44 51 45 40 36 35 46 48 46 46 45 42 49 49 48 50 55 59 62 61

GFSGL_500_spd_012.txt.gz
Wind_Speed
44 41 40 43 43 42 42 41 42 40 39 39 40 41 43 44 46 48 50 50 51 55 59 61 64 69 75 84 87 68 68 64 55 31 41 38 40 40 39 42 34 72 92
40 40 41 43 43 42 43 43 41 39 39 40 40 42 43 43 46 48 48 49 52 55 58 61 65 72 78 87 76 63 59 57 47 38 39 40 42 42 44 33 42 82 96
40 41 41 43 41 41 42 42 39 39 39 39 40 41 42 44 46 47 48 49 52 55 59 63 68 74 82 85 69 63 51 46 39 37 28 27 30 37 32 25 51 89 96
44 45 41 43 42 43 41 39 39 39 38 38 39 40 42 45 45 46 47 48 52 55 59 64 70 78 83 80 69 51 49 37 36 33 37 30 34 34 36 29 58 96 106
47 47 45 46 44 43 40 39 38 37 37 38 39 40 43 45 47 48 47 48 51 56 60 65 73 79 82 75 63 44 46 32 31 31 30 23 27 36 23 35 64 99 102
50 50 49 48 45 41 39 40 38 36 38 38 38 41 43 45 47 47 46 48 51 56 60 66 75 83 75 72 61 57 38 27 23 14 21 12 15 29 16 43 76 94 91
52 54 50 47 44 41 40 40 37 38 38 38 39 42 43 45 46 45 45 47 53 57 60 69 76 79 72 74 68 46 19 22 22 21 11 12 21 20 25 64 91 76 90
57 54 53 46 43 43 42 40 38 39 38 37 40 42 43 44 44 43 45 47 53 57 62 71 77 75 72 72 54 23 13 17 19 21 14 10 20 10 50 84 72 77 80
58 57 55 47 44 43 43 40 40 39 37 38 40 42 42 43 43 43 44 48 53 56 65 73 77 68 71 62 24 10 9 11 17 6 6 12 13 30 64 66 75 72 76
53 57 56 50 44 44 42 40 40 38 37 38 41 42 41 42 41 43 44 47 51 57 66 73 73 66 64 34 7 7 7 8 9 6 3 12 16 59 75 57 69 78 63
52 52 53 49 48 45 41 40 41 38 37 40 42 41 40 41 41 42 43 47 52 58 67 71 65 64 53 4 5 5 9 9 11 8 12 13 35 50 66 46 54 65 69
56 54 52 53 50 43 43 41 40 37 39 41 42 42 41 40 40 42 43 47 52 57 65 68 59 60 36 10 5 6 11 10 9 13 18 23 41 48 54 53 49 49 75
49 52 51 49 44 40 39 39 38 38 40 41 42 42 41 39 40 40 43 46 49 56 64 63 54 55 25 11 9 11 16 14 12 18 24 32 41 47 68 72 52 58 49
54 50 45 49 43 38 38 39 39 40 41 39 41 39 39 38 38 40 43 44 49 56 61 61 51 51 21 13 11 13 17 18 17 15 30 33 41 47 70 72 45 35 55
53 49 47 46 45 41 41 42 40 41 38 40 39 38 35 36 37 40 43 45 50 57 59 52 48 49 20 17 14 14 16 23 21 21 20 31 37 51 60 63 60 45 55
48 48 47 43 42 39 41 41 41 36 38 37 35 35 33 34 36 40 42 46 51 55 56 47 46 47 19 19 14 15 19 25 27 25 30 28 41 49 59 64 63 59 47
48 48 46 36 34 44 48 45 43 39 34 34 32 31 33 33 35 39 41 47 52 56 53 43 43 44 18 20 17 19 20 30 30 30 28 31 38 54 62 69 67 56 54
37 36 35 37 35 36 39 35 32 32 31 30 32 31 32 31 33 37 41 47 53 55 45 41 42 42 19 22 19 18 17 30 34 29 34 30 34 47 63 79 63 59 47
37 37 33 32 34 35 26 30 30 30 31 32 30 30 31 31 32 37 41 48 53 55 44 40 40 42 20 24 21 19 19 33 37 34 30 32 34 43 66 69 67 55 49
44 30 32 24 26 26 27 29 26 26 29 30 30 28 29 29 32 37 43 48 52 49 41 39 38 39 20 28 22 21 21 31 40 32 32 35 36 33 53 64 63 58 57
30 33 31 26 26 29 28 28 26 26 29 28 29 25 28 30 33 39 45 49 51 48 40 37 38 33 20 29 25 22 23 36 38 33 33 33 36 45 38 58 67 62 58
26 26 25 28 28 27 26 28 25 27 27 29 23 25 28 31 35 41 49 50 49 44 38 36 38 26 24 32 27 23 28 38 38 37 34 29 33 37 43 52 66 64 63
24 26 30 32 30 27 26 25 26 25 26 23 21 26 26 32 39 44 46 49 47 43 39 36 39 20 29 34 30 27 32 37 41 37 35 31 30 42 47 55 65 65 69
25 27 24 22 22 22 22 22 22 24 21 19 24 25 27 35 42 45 48 48 44 43 39 38 39 18 35 37 32 31 30 29 45 44 37 37 34 51 48 49 69 69 73
21 20 19 20 16 16 17 18 22 18 17 22 24 27 30 40 45 48 49 44 42 43 41 44 34 21 39 41 35 32 31 32 45 46 42 41 38 46 51 47 60 69 77
19 18 17 15 15 15 16 20 16 15 19 22 25 28 33 43 47 47 44 42 41 42 46 42 24 27 44 43 38 33 34 34 49 49 45 44 32 50 46 43 54 64 74

GFSGL_500_spd_015.txt.gz
Wind_Speed
54 47 44 46 48 49 48 47 48 47 44 41 42 41 41 39 39 40 41 42 43 46 47 47 50 53 54 58 63 70 77 86 86 67 57 49 40 41 43 42 38 41 45
54 51 49 50 52 51 49 46 47 46 43 42 42 41 40 39 39 40 41 42 44 46 47 50 52 53 56 60 66 74 82 88 80 72 46 39 38 38 35 35 36 43 39
56 54 52 52 52 49 47 46 47 45 43 41 40 40 40 39 40 40 41 43 45 47 49 50 51 53 57 61 69 78 86 85 79 68 46 34 32 37 37 42 38 40 35
58 56 55 54 47 47 48 48 47 43 42 40 39 38 40 39 39 40 41 43 45 47 48 49 50 54 58 63 73 81 87 82 80 60 37 28 25 29 34 40 36 35 33
59 55 55 51 49 51 50 48 46 42 40 39 38 38 38 38 39 39 41 43 45 46 47 48 51 55 59 66 75 84 87 82 76 42 21 17 23 27 31 38 36 22 44
62 57 57 55 54 53 53 49 44 41 39 38 37 36 36 37 38 39 41 43 45 45 45 48 51 55 61 70 81 85 81 74 44 13 14 18 20 23 28 31 23 30 64
57 60 57 60 57 56 55 51 43 40 39 37 36 36 36 37 38 39 41 42 44 44 44 47 51 56 62 71 80 79 71 43 12 13 16 19 23 26 24 28 17 52 91
60 57 62 53 57 56 56 50 44 41 38 37 36 36 37 37 37 39 41 41 43 44 44 48 52 56 61 72 80 70 43 17 16 19 21 17 19 18 28 18 38 86 95
67 60 58 53 57 57 56 53 46 44 40 37 36 36 37 37 37 39 40 40 42 43 44 49 51 56 62 73 71 53 24 18 18 20 16 17 15 26 16 26 64 95 81
59 63 62 60 58 56 56 53 48 46 42 38 36 37 37 37 37 39 40 40 42 42 44 48 51 55 63 71 61 35 21 19 21 20 19 22 14 11 16 47 92 95 76
55 55 56 53 55 54 54 52 48 43 40 38 38 37 38 37 37 39 40 39 40 41 44 47 50 56 63 66 53 25 19 22 22 20 12 11 16 18 35 69 91 79 88
55 52 52 54 53 52 50 46 43 39 40 39 38 38 38 37 38 39 38 38 38 41 43 47 50 56 61 57 45 20 18 22 20 20 13 12 15 35 53 62 85 78 85
57 59 54 51 49 50 48 45 41 40 39 40 39 38 37 37 38 38 38 37 37 40 42 45 48 55 59 46 38 17 16 19 18 17 8 11 31 55 61 60 72 71 59
59 56 49 47 51 50 46 44 39 36 35 35 36 37 36 39 36 36 38 36 36 39 41 43 48 54 54 40 32 16 14 19 16 12 3 17 39 63 54 61 70 69 56
57 50 52 47 44 38 34 35 37 35 34 36 36 35 39 35 35 36 37 33 35 38 39 43 48 53 50 36 24 14 13 16 20 9 8 22 37 60 54 56 73 73 51
44 43 51 40 38 38 36 38 33 35 37 33 37 36 32 34 34 35 34 31 35 37 39 43 50 52 44 33 20 17 14 15 23 13 12 29 36 46 46 74 66 55 60
36 45 43 42 41 45 42 40 35 35 32 36 31 39 42 36 34 34 31 31 34 36 39 44 49 47 40 30 21 21 15 14 26 19 18 21 38 41 54 68 50 59 60
40 45 47 50 50 44 40 38 39 36 39 44 41 42 35 34 33 32 30 31 33 35 40 45 48 45 37 28 25 24 23 17 30 28 27 26 30 48 53 58 56 52 61
43 45 48 48 43 40 34 32 34 36 32 20 26 31 31 31 29 29 29 30 32 37 41 46 48 44 36 29 28 25 29 25 27 36 31 32 32 43 57 70 57 58 49
48 46 42 31 26 28 30 32 30 26 21 23 23 26 28 29 27 27 27 29 32 38 43 46 47 41 35 30 26 28 30 27 28 43 36 33 34 40 49 71 66 59 41
39 33 27 27 29 27 21 18 19 21 23 21 23 26 26 23 25 24 25 27 33 38 41 45 48 37 32 30 22 32 29 26 25 40 37 35 35 39 44 58 64 60 58
32 34 28 23 20 18 15 19 22 23 23 26 28 26 25 23 24 23 24 29 36 39 42 47 46 33 30 29 18 35 31 27 28 41 43 43 40 39 39 54 64 63 58
24 24 23 17 15 17 20 20 22 25 26 26 24 24 25 22 23 23 27 33 37 40 44 49 44 33 30 28 21 37 32 30 32 42 43 42 40 39 46 51 60 59 63
19 18 17 15 14 13 13 18 21 22 22 22 22 25 19 20 21 25 29 37 39 42 47 47 40 35 31 28 26 40 35 34 34 40 45 46 46 45 46 52 63 63 64
15 12 9 9 10 12 16 18 16 16 16 18 17 14 18 19 25 28 32 36 42 45 48 44 39 36 35 28 31 44 37 35 34 44 44 44 42 43 48 53 61 68 64
11 10 8 9 13 15 15 14 12 11 13 12 12 15 18 22 25 30 35 39 44 48 45 43 41 40 38 22 41 47 40 37 38 45 47 46 45 39 44 48 57 74 69

GFSGL_500_spd_018.txt.gz
Wind_Speed
59 61 56 58 58 57 57 54 51 51 50 49 48 48 46 45 43 40 41 41 42 41 43 44 44 46 48 50 51 52 55 58 61 66 76 84 93 88 81 57 52 42 40
60 55 56 58 58 56 56 54 54 53 51 50 48 48 45 44 42 41 40 41 41 40 42 43 45 46 49 50 49 53 58 61 66 71 80 93 90 82 62 48 42 40 39
63 59 58 58 57 57 56 56 54 52 50 48 47 48 45 42 40 40 39 40 40 41 42 44 45 46 47 48 51 55 60 65 72 80 88 90 79 58 39 35 36 37 41
58 62 57 58 57 57 57 56 55 54 51 47 45 46 44 42 40 39 39 39 40 40 42 43 45 46 47 48 52 56 62 67 76 87 86 67 41 22 22 24 30 36 35
47 54 59 60 57 57 57 54 54 52 51 47 46 45 42 40 39 39 39 39 39 40 42 43 44 46 47 49 53 58 63 68 76 84 61 32 25 22 28 34 35 37 41
52 50 54 59 58 57 57 59 55 50 48 47 45 43 41 38 39 39 39 37 38 40 41 43 44 45 46 49 54 59 64 71 81 64 34 32 36 31 34 40 41 44 42
65 65 53 56 60 57 58 58 56 50 51 49 43 41 41 40 38 38 37 37 38 39 41 42 42 44 45 49 53 59 65 73 74 49 30 36 37 34 34 40 40 41 29
66 74 67 54 59 61 60 59 56 55 53 49 43 41 41 39 38 37 36 36 37 39 40 42 42 43 45 48 53 60 66 73 59 39 34 34 37 38 38 34 41 26 16
76 72 65 59 61 63 61 59 58 57 52 48 43 40 39 39 38 36 36 35 38 38 40 40 40 43 44 48 52 57 66 68 51 36 34 36 38 37 36 44 19 12 39
63 67 65 69 63 64 60 59 58 53 48 50 45 39 39 39 37 36 36 36 38 38 39 37 38 41 43 46 51 56 63 57 42 35 30 35 34 34 39 24 9 41 75
52 59 67 67 62 63 61 58 54 52 47 51 44 41 39 39 37 37 36 36 37 38 37 36 38 40 41 45 49 55 60 49 36 31 27 35 31 27 34 8 36 76 88
44 57 62 61 65 64 60 57 55 52 50 48 41 42 38 38 37 37 37 37 36 36 36 36 38 39 40 43 48 55 54 43 32 27 26 33 26 29 6 34 56 84 86
48 62 50 59 57 64 60 59 57 53 51 42 42 40 35 35 36 37 36 35 34 34 34 35 37 37 39 42 46 55 47 38 28 23 24 30 23 5 31 51 71 86 87
40 55 51 48 55 61 61 59 56 53 44 43 41 37 34 32 35 36 35 33 33 34 33 34 36 35 37 41 45 54 43 32 22 18 20 23 5 25 49 66 79 73 71
44 46 52 55 62 48 44 46 47 44 47 47 41 37 32 33 33 33 31 31 33 32 33 33 35 34 36 39 42 50 39 26 17 12 13 10 15 40 53 69 70 75 69
47 48 52 49 49 49 44 46 45 46 45 40 34 33 33 32 31 29 26 28 32 31 32 33 33 32 35 37 42 45 36 22 15 5 7 9 22 41 57 58 70 72 84
42 50 49 59 58 56 50 53 48 40 36 33 33 31 34 37 30 30 32 35 33 31 31 33 31 33 36 37 41 42 32 18 15 10 8 15 25 41 47 49 63 76 66
32 30 44 47 49 48 47 34 32 34 32 30 30 33 34 32 33 36 34 32 30 31 31 31 31 34 35 37 40 40 28 18 19 18 16 18 32 43 37 51 54 54 44
34 28 40 38 46 40 44 38 33 27 28 29 33 36 35 34 34 35 30 29 30 28 28 28 30 32 35 38 41 38 25 18 24 24 27 21 37 45 42 50 61 52 56
39 34 47 45 39 39 35 35 30 30 32 32 32 33 32 32 31 29 28 28 26 25 25 26 29 33 37 38 42 35 22 21 31 27 36 32 32 43 42 42 61 57 57
45 42 36 41 37 31 34 35 36 38 35 31 29 29 29 29 27 26 27 26 24 23 24 26 30 34 36 40 39 30 21 22 37 34 37 40 37 39 45 48 61 61 65
45 45 38 36 37 42 35 33 34 32 26 24 26 27 29 27 26 26 24 24 22 25 25 28 33 35 39 39 30 24 20 22 39 38 34 46 43 40 44 52 59 55 62
31 39 43 42 37 31 32 28 24 23 22 22 25 27 27 27 26 24 24 21 22 26 29 33 36 39 41 36 25 21 19 22 40 38 36 50 45 43 45 52 63 67 58
27 33 35 33 31 25 22 22 23 23 23 26 27 26 24 24 24 22 13 16 22 26 30 36 39 41 43 36 26 22 21 25 40 36 39 51 47 42 46 52 58 62 57
29 30 30 27 23 21 19 18 19 21 23 21 20 19 17 16 9 8 12 17 22 27 32 37 41 44 44 37 29 25 25 30 42 38 37 47 50 44 43 54 56 63 65
25 23 23 22 19 17 19 20 18 14 13 11 10 10 7 7 10 13 16 21 26 30 33 39 43 46 43 37 33 28 25 39 46 41 39 45 48 48 48 48 54 60 66

GFSGL_500_spd_021.txt.gz
Wind_Speed
67 71 77 79 79 75 69 62 58 56 55 54 55 54 51 50 48 46 45 44 42 41 41 41 43 43 43 44 45 47 48 51 50 52 57 61 65 70 75 87 90 84 69
65 62 67 67 71 73 66 61 60 58 54 56 54 53 51 50 48 45 45 42 41 41 42 41 42 42 43 44 45 47 50 52 52 52 58 63 68 75 85 84 66 50 35
72 67 64 63 59 58 59 56 56 53 57 55 53 52 51 50 48 45 42 40 40 41 41 41 42 41 43 44 46 48 50 51 53 54 59 66 75 84 77 56 50 47 35
84 68 67 66 62 56 58 54 52 52 54 52 52 53 52 49 47 43 42 41 40 40 41 41 41 41 43 45 46 48 49 51 51 56 61 70 80 75 59 47 48 42 39
80 73 70 70 69 61 59 59 57 55 54 52 52 52 50 47 44 42 42 39 39 39 39 40 40 41 42 45 46 47 48 50 52 58 63 73 75 61 50 47 48 44 45
53 73 76 63 67 69 64 61 59 57 55 53 50 48 46 43 41 41 39 39 39 39 39 39 39 40 41 44 46 46 49 49 54 59 65 73 60 50 46 48 52 53 44
38 53 62 74 55 70 66 65 59 54 56 53 48 43 42 42 39 40 39 40 38 39 38 38 39 39 41 42 43 46 47 51 55 62 70 66 51 46 42 49 54 49 47
31 36 48 61 47 54 71 70 63 55 57 51 48 44 43 42 38 37 40 38 38 38 37 37 38 39 41 41 41 44 47 50 56 64 68 61 48 41 46 53 46 46 51
27 30 33 63 51 44 54 69 68 61 60 57 52 48 44 43 35 36 37 36 37 37 36 37 37 38 39 39 41 41 46 50 57 66 64 52 45 44 49 44 46 46 24
25 27 30 45 66 54 51 57 67 61 58 60 55 49 47 40 36 34 35 35 37 36 36 36 35 38 37 38 38 39 44 49 55 64 57 43 43 45 44 43 41 19 7
28 28 30 33 50 53 60 46 65 62 60 59 56 51 48 42 37 37 36 35 35 36 35 34 35 36 36 37 35 38 42 47 56 59 46 39 38 45 38 26 15 12 38
31 28 29 29 39 56 56 57 62 64 58 58 58 53 46 41 36 39 37 36 34 35 34 33 34 34 34 33 34 36 40 47 55 54 38 36 38 35 24 10 15 39 62
33 31 29 30 39 59 54 56 61 66 62 60 56 51 46 38 39 36 34 35 34 34 33 31 34 33 32 30 32 35 38 46 53 48 33 31 36 23 12 18 30 50 59
33 36 31 29 39 58 56 60 46 67 63 63 59 48 42 42 36 34 34 34 35 33 30 30 30 30 29 27 31 32 36 44 50 40 30 29 26 3 21 18 33 41 64
33 37 31 30 40 59 55 60 51 67 68 65 52 46 43 37 35 33 33 35 32 29 31 28 28 27 25 26 27 30 34 42 47 33 24 23 9 10 27 17 46 56 54
32 40 35 35 40 49 53 49 47 67 67 58 51 47 41 33 32 33 34 32 30 29 26 26 26 25 23 25 25 29 32 39 44 29 17 13 3 15 31 39 44 44 55
32 35 30 37 40 51 54 57 44 50 61 54 50 44 36 31 33 33 33 33 30 29 29 28 29 25 22 24 24 26 30 37 42 27 13 6 7 21 31 46 55 61 54
12 26 33 32 43 51 51 49 45 54 57 46 37 32 30 32 34 33 36 35 34 33 29 29 26 23 22 23 21 25 30 36 38 27 13 7 11 32 48 59 68 70 53
27 31 31 28 32 38 45 49 39 39 41 39 35 32 35 34 32 33 32 32 30 34 30 28 23 21 21 19 21 24 31 36 34 25 16 14 19 35 48 55 57 61 38
32 33 29 32 38 45 39 40 39 32 30 32 33 32 31 29 29 30 29 31 30 27 27 26 22 20 19 18 20 24 32 34 31 23 20 23 23 36 53 60 55 56 46
32 35 33 30 35 45 39 30 34 31 32 22 23 25 27 28 28 28 30 26 25 27 28 26 22 17 17 20 22 25 32 32 27 21 22 28 27 35 62 60 56 59 54
22 23 27 27 26 41 44 45 45 29 33 28 27 25 24 25 27 26 24 25 26 28 28 25 21 22 22 25 25 27 32 32 24 19 21 31 35 36 50 76 64 62 69
29 33 31 32 33 31 38 34 31 32 30 30 28 25 27 25 23 24 24 27 28 26 22 19 22 26 27 28 28 29 33 30 23 21 21 34 43 38 43 59 69 68 62
22 27 25 23 27 28 30 23 25 31 29 26 25 27 26 23 23 24 26 27 26 17 15 19 21 24 26 28 30 33 36 30 24 27 26 38 43 47 42 48 57 65 57
20 23 27 27 27 22 19 23 25 24 24 24 23 22 23 23 23 24 25 17 11 12 16 18 22 25 28 31 34 37 37 33 28 34 33 45 48 50 51 47 54 61 61
22 21 22 21 22 26 26 25 25 24 24 23 22 22 20 21 17 12 9 9 12 15 18 22 24 27 32 37 39 40 41 34 31 37 38 51 52 46 57 51 53 57 62

GFSGL_500_spd_024.txt.gz
Wind_Speed
69 72 80 78 94 95 88 85 75 72 72 69 63 62 64 58 52 51 51 50 48 46 44 43 42 42 41 40 41 41 43 45 45 47 50 51 52 52 53 58 62 69 74
49 49 59 79 84 89 98 93 81 82 78 74 69 61 65 59 50 50 50 49 47 46 43 42 41 41 40 41 41 41 43 44 46 49 50 51 52 54 58 63 69 74 80
48 48 43 66 86 81 70 71 88 80 77 80 75 62 64 59 50 48 48 49 46 44 42 42 40 39 40 40 40 41 43 44 48 50 49 50 53 58 62 68 73 79 68
45 43 45 44 75 85 66 63 68 66 65 72 71 64 65 58 51 48 48 47 44 43 41 39 38 38 39 39 40 41 43 45 49 49 49 50 55 61 68 73 78 68 56
45 43 40 41 42 67 73 53 64 65 61 63 63 63 65 57 51 49 46 44 43 41 39 38 37 37 38 38 39 41 43 46 47 47 47 52 57 64 72 78 71 56 43
39 37 40 36 36 42 77 49 52 62 58 61 61 60 61 54 50 49 44 43 41 38 37 36 37 37 38 37 39 41 44 45 46 46 49 53 60 67 75 71 59 49 46
39 33 39 32 32 33 75 58 30 59 56 56 54 53 54 51 50 47 43 40 37 33 34 36 35 35 35 36 39 41 42 43 43 45 48 55 62 70 72 59 50 53 49
37 36 39 35 32 27 45 73 37 50 56 56 52 49 50 50 49 44 40 35 32 32 33 33 33 34 34 36 38 41 40 41 43 46 49 58 66 71 64 52 54 49 37
40 38 38 40 25 25 33 72 55 39 58 56 55 51 50 51 46 42 37 32 29 30 30 30 31 31 33 35 38 38 39 40 42 44 51 60 68 67 56 53 32 19 29
41 39 38 36 30 20 24 60 54 47 61 56 55 51 53 51 46 42 35 32 27 27 27 28 29 31 33 34 35 35 36 38 39 44 53 62 68 53 52 30 20 15 30
39 40 38 34 28 21 21 47 43 43 52 62 57 55 55 52 48 41 35 28 25 25 26 26 28 30 32 32 32 33 33 34 37 42 52 61 59 51 29 6 24 24 11
37 41 37 34 28 19 21 38 55 47 55 61 57 59 58 54 48 42 34 27 28 27 26 26 29 29 29 30 31 30 30 31 33 41 49 59 50 34 10 8 28 12 18
34 41 39 33 28 22 18 37 58 39 36 54 62 66 59 55 48 43 32 35 31 27 26 28 28 27 26 28 28 24 25 27 32 41 47 55 45 21 3 10 27 23 25
33 36 39 33 28 23 21 31 40 33 31 56 68 66 57 53 51 42 41 38 28 28 28 28 28 26 24 24 22 21 22 26 31 39 45 49 39 15 3 11 15 38 36
31 31 35 32 32 23 23 31 32 34 33 50 67 60 58 54 48 49 40 36 26 30 28 29 28 26 22 21 18 18 19 24 29 35 43 41 32 5 13 21 26 29 34
25 28 32 32 31 25 25 35 41 43 37 42 58 59 52 51 46 46 40 29 31 26 29 28 26 23 20 19 16 16 16 21 26 31 39 33 25 2 23 27 15 23 19
23 26 27 32 28 22 35 39 43 42 38 43 48 49 49 50 47 41 34 32 24 23 28 25 24 21 20 18 15 13 14 19 24 28 35 27 18 4 27 26 18 27 25
20 22 27 29 31 26 42 40 43 35 40 37 53 53 52 50 47 40 29 20 20 25 24 22 23 20 19 15 14 11 12 17 22 25 30 21 11 6 29 36 33 31 24
15 24 33 23 30 38 43 41 36 35 39 42 52 54 49 49 44 32 20 19 23 25 23 23 23 22 19 15 13 11 13 16 19 23 27 18 9 6 27 42 39 32 32
10 11 23 29 40 40 39 42 43 37 34 42 46 55 53 51 39 24 20 22 24 23 22 20 20 24 18 16 13 12 14 15 18 20 24 18 9 10 24 48 45 36 29
9 25 28 34 37 36 42 45 44 38 31 33 45 58 51 34 24 21 21 22 23 24 21 20 20 20 17 17 13 13 13 13 16 18 22 14 9 11 21 46 49 41 21
18 21 24 30 34 40 41 44 38 30 32 34 39 41 31 22 20 20 24 25 24 22 21 20 19 17 17 19 19 17 14 14 17 17 19 16 11 10 21 43 56 51 34
24 24 22 25 39 39 45 39 32 27 29 29 27 23 21 19 19 22 22 21 21 20 17 15 16 17 18 21 23 23 21 20 19 20 20 16 12 16 22 38 57 61 53
24 30 29 29 34 36 36 39 36 29 28 24 19 21 20 22 22 20 18 17 16 15 15 16 17 19 19 20 19 19 20 23 24 25 24 22 19 20 25 37 54 69 65
21 22 26 30 32 36 37 34 29 29 25 23 25 21 20 21 19 17 15 14 14 15 17 19 19 14 15 16 18 19 23 26 27 28 29 28 28 27 30 41 50 63 70
20 24 27 26 29 29 27 25 25 26 27 27 23 21 19 16 14 15 16 14 12 13 13 11 11 13 14 18 21 24 28 31 33 35 38 40 37 34 39 50 53 58 68

GFSGL_500_spd_030.txt.gz
Wind_Speed
81 77 73 69 65 60 59 60 64 65 72 78 83 88 91 92 85 84 76 75 73 67 64 60 55 50 50 51 47 45 44 43 40 40 42 45 45 46 46 47 49 49 51
68 63 60 57 54 53 52 51 50 55 59 77 94 101 90 95 92 88 82 79 79 74 67 62 56 52 50 48 45 44 43 42 40 39 42 44 44 46 46 48 50 52 54
60 58 54 52 53 51 52 51 45 50 53 52 59 72 94 106 109 96 89 89 84 78 70 64 56 54 52 46 44 43 41 40 39 39 41 42 44 45 47 49 50 53 56
56 54 52 52 51 52 51 47 44 45 48 50 51 53 69 68 66 91 106 96 88 77 70 63 55 53 50 47 43 40 39 39 39 39 40 41 42 45 47 49 50 55 58
56 52 48 47 50 47 48 43 39 38 45 46 47 46 53 65 65 72 84 98 92 82 67 61 54 51 50 45 41 38 38 38 37 38 38 40 42 45 47 48 52 56 62
52 52 53 48 47 44 43 42 42 38 38 40 44 47 49 58 56 64 61 94 83 81 67 62 53 51 47 42 38 36 36 35 35 36 37 38 41 45 46 51 54 58 61
53 44 46 46 46 44 39 39 41 41 35 37 41 45 44 44 41 49 49 53 58 65 66 60 52 48 42 40 36 35 35 34 34 34 35 38 40 43 47 51 56 61 66
51 46 44 45 43 39 36 37 37 38 35 36 37 36 37 40 34 43 45 51 55 56 62 57 50 46 41 37 35 34 34 32 32 32 34 36 38 43 48 53 58 64 65
50 45 46 45 42 40 39 38 35 34 33 37 33 34 37 33 42 37 48 61 51 46 52 52 48 41 38 37 33 33 31 31 29 31 32 34 38 43 50 54 62 69 37
48 45 44 43 42 39 39 39 38 31 29 31 32 32 32 47 28 36 48 53 53 49 49 48 44 40 37 34 32 30 29 27 27 29 29 32 37 44 51 59 64 44 41
48 44 43 42 41 39 35 36 36 27 27 28 28 26 31 45 45 36 53 52 51 50 48 46 41 40 37 33 29 28 26 24 24 24 26 30 36 43 52 56 36 38 41
42 39 39 41 38 35 35 33 31 24 26 23 26 23 24 33 22 39 50 54 51 50 48 45 42 37 33 29 28 26 22 20 20 20 22 28 35 44 50 31 34 34 42
35 33 32 35 36 32 31 29 24 22 24 18 28 27 31 22 33 52 56 52 53 54 49 46 41 33 29 27 26 21 18 16 15 17 19 26 34 43 34 23 31 43 35
32 28 27 27 33 30 26 23 19 20 20 23 32 29 27 25 49 51 62 57 55 52 50 41 34 31 27 25 20 17 15 12 13 13 18 25 34 39 18 21 35 29 36
24 20 20 19 23 22 19 18 18 20 17 31 31 25 22 48 56 59 56 54 53 51 42 37 33 28 25 19 16 15 12 12 10 9 16 23 30 22 15 23 30 28 29
12 9 8 12 15 14 16 17 19 16 22 32 29 23 38 51 56 58 58 58 55 46 42 37 31 26 19 16 15 12 12 11 7 8 15 22 26 11 8 20 21 21 27
10 7 5 7 11 15 19 20 13 16 28 31 27 37 54 61 59 56 60 56 49 45 39 34 28 22 17 14 14 13 12 9 7 6 13 19 21 10 2 17 12 23 38
11 5 2 6 13 20 23 16 17 25 32 32 34 52 62 61 58 61 59 50 44 41 37 33 24 18 15 13 16 14 12 11 7 4 11 17 17 9 5 8 17 25 32
8 5 3 10 19 20 18 15 22 38 33 31 44 61 62 59 63 57 51 48 42 39 31 24 20 16 14 19 17 14 14 12 6 3 9 15 13 5 13 10 19 33 28
14 4 10 16 18 19 17 19 42 41 34 39 53 60 59 59 58 57 52 45 40 29 24 18 19 17 19 20 16 16 14 11 5 2 7 13 12 1 19 14 20 33 29
3 11 19 19 21 18 18 46 39 36 39 44 50 58 56 51 54 53 46 40 30 23 18 20 20 19 20 21 15 15 14 11 5 1 5 13 13 6 20 23 20 33 31
18 22 23 22 19 15 36 33 27 36 48 52 49 54 50 48 52 50 39 31 25 21 17 22 21 21 20 20 20 16 16 13 8 3 3 9 14 7 16 23 21 29 32
17 24 23 22 19 29 36 32 28 34 45 46 45 48 47 45 44 39 35 30 24 18 21 21 19 18 16 19 19 19 19 15 9 3 1 5 9 12 9 11 22 17 27
21 24 26 25 31 37 36 33 36 39 42 43 41 42 40 40 38 36 32 28 14 21 21 20 16 15 17 18 20 20 20 16 10 6 2 0 5 7 10 6 9 21 19
22 20 24 31 28 31 29 31 35 34 39 42 38 36 35 36 31 32 28 20 21 21 17 15 16 17 19 22 21 18 17 14 11 10 7 4 2 1 1 2 2 11 19
24 25 24 27 32 32 31 29 28 35 39 40 37 35 35 35 29 25 22 22 21 18 17 17 19 23 22 20 17 16 16 16 15 11 8 7 6 7 7 8 7 6 13

GFSGL_500_spd_033.txt.gz
Wind_Speed
86 86 87 87 81 70 66 67 70 74 76 80 83 93 103 105 102 97 94 92 90 83 79 78 75 71 67 63 55 54 52 52 47 46 47 48 48 47 46 45 45 47 48
86 85 78 67 60 56 59 61 57 55 54 54 58 62 69 83 93 97 99 100 96 91 86 82 80 75 71 67 59 55 52 51 50 46 46 47 47 47 46 46 47 48 48
75 71 67 61 56 55 57 56 54 52 48 48 51 54 56 64 81 95 99 101 98 96 93 87 85 81 73 71 63 56 53 51 48 44 45 46 46 47 46 46 48 48 50
68 66 65 61 57 55 55 52 49 50 47 46 48 47 50 53 56 67 79 86 97 101 100 92 89 84 74 70 67 56 54 50 46 43 44 44 44 46 46 46 48 49 51
65 64 62 60 58 55 52 51 47 45 44 47 43 42 39 46 45 48 53 53 66 70 63 76 84 90 76 69 66 57 53 48 45 43 42 41 43 45 46 47 47 50 51
66 65 59 58 57 54 50 49 47 47 46 44 38 40 35 36 44 45 49 47 48 51 59 67 83 85 81 67 62 51 49 45 43 42 39 40 42 44 47 48 49 49 51
64 59 54 53 53 51 49 46 42 43 43 38 33 37 39 31 37 43 48 48 48 45 46 55 65 77 80 63 54 47 46 42 41 40 38 39 42 45 47 45 47 50 53
56 54 51 50 51 48 49 45 38 40 40 35 33 31 33 33 40 43 46 53 50 50 51 47 64 60 70 57 49 44 43 41 38 36 36 39 42 43 43 44 46 50 51
54 49 46 48 47 46 46 44 38 38 38 36 33 28 33 35 40 43 40 41 44 55 67 61 51 46 42 55 46 42 41 38 35 35 36 39 39 40 41 42 47 49 54
54 49 50 49 48 42 41 40 36 35 36 35 29 27 30 32 32 32 39 34 40 42 57 48 48 41 43 49 40 41 38 35 33 34 36 34 35 37 40 41 45 52 58
48 48 48 47 40 36 35 34 34 32 32 28 25 22 30 25 23 32 32 35 34 37 44 47 43 41 40 45 41 38 36 32 32 32 30 30 31 34 35 42 49 56 51
42 41 40 35 33 30 30 29 30 29 26 25 20 21 20 17 21 28 27 27 32 44 46 48 48 45 46 43 39 35 32 31 29 26 26 25 27 28 36 43 50 42 46
36 34 31 29 29 28 26 25 26 22 21 17 17 18 10 20 28 31 32 30 38 42 38 47 53 48 45 40 37 33 30 27 23 22 21 20 21 28 35 44 36 41 41
34 30 28 25 24 23 20 21 19 17 14 13 16 10 16 34 25 29 31 36 40 41 51 55 53 46 42 40 33 29 27 22 20 18 14 14 20 27 33 28 31 39 49
29 27 25 18 16 15 16 18 14 12 13 14 9 10 24 24 25 33 30 42 48 50 52 52 48 45 42 34 29 27 22 20 19 11 8 11 18 26 23 20 29 35 32
24 21 19 12 4 10 14 12 11 11 11 7 15 16 17 29 31 27 35 47 52 53 53 52 48 42 35 30 26 24 22 20 13 8 4 11 17 23 11 15 24 21 25
22 17 12 6 5 9 12 11 12 10 8 17 17 18 25 29 25 31 40 46 54 55 54 50 43 36 30 26 25 24 22 15 10 5 3 10 17 17 7 13 20 30 32
20 19 13 5 5 10 13 11 8 9 19 18 22 20 34 30 35 47 50 52 57 55 49 43 37 32 27 25 24 22 18 13 10 5 4 10 15 6 9 15 23 30 36
14 10 6 7 13 14 11 8 12 22 25 23 21 31 38 44 52 51 51 55 51 46 41 37 32 28 24 23 24 21 16 15 11 6 5 10 12 9 14 20 22 24 33
12 12 12 15 15 9 7 11 23 27 21 22 32 42 50 53 51 49 52 50 46 42 36 30 26 23 21 23 23 18 18 16 11 8 8 12 10 17 19 22 23 24 28
22 15 13 12 11 8 9 27 26 21 22 30 42 50 53 50 47 45 46 46 40 36 28 23 20 18 20 24 22 20 20 17 12 10 9 15 12 21 23 26 22 25 33
19 15 14 12 8 11 23 23 20 20 25 38 47 51 48 44 40 38 43 41 34 30 24 16 18 18 22 23 21 22 21 17 14 12 11 14 16 18 23 27 23 24 31
16 15 12 7 17 23 20 18 18 23 33 40 45 49 45 39 37 39 36 32 25 19 14 16 17 17 20 21 21 23 21 18 16 14 12 12 16 13 24 23 25 20 33
12 9 10 8 26 20 17 18 22 31 39 42 46 43 38 32 29 35 33 26 20 18 12 16 17 18 18 19 23 23 22 19 15 13 12 12 14 17 17 16 20 26 28
11 11 10 16 20 17 18 22 26 31 38 43 44 39 35 29 27 27 28 21 15 14 16 17 19 18 18 20 21 23 23 18 13 12 12 11 11 12 15 14 14 22 26
10 15 19 20 19 22 24 26 28 32 32 34 36 30 26 25 24 28 24 19 12 18 17 17 18 16 18 20 21 21 21 18 14 13 12 10 9 9 7 7 10 10 25

GFSGL_500_spd_036.txt.gz
Wind_Speed
90 91 87 85 84 83 82 81 77 72 66 61 59 60 63 68 79 91 99 104 101 103 100 98 91 83 78 73 70 68 64 59 51 50 51 51 50 48 47 47 47 47 48
93 90 89 89 86 82 73 69 65 64 62 58 54 52 54 58 63 71 81 91 102 105 102 102 97 92 86 79 73 71 68 64 56 50 51 51 50 49 49 47 48 48 48
92 89 84 78 73 68 63 62 61 61 58 59 56 51 52 55 57 61 68 70 80 94 103 105 100 98 90 87 80 76 72 69 61 51 51 51 49 48 49 48 48 48 48
85 80 76 73 71 68 66 63 59 58 58 58 56 52 49 47 50 55 59 60 66 71 82 95 103 102 95 89 83 78 73 71 66 56 51 49 48 47 47 47 48 47 47
80 74 68 65 61 59 58 58 57 56 54 55 55 51 46 45 47 48 48 48 52 55 58 67 80 98 98 93 89 77 76 75 71 60 49 47 48 46 45 46 46 47 47
69 66 62 58 55 54 51 51 53 52 50 50 51 47 48 43 42 44 43 39 43 42 42 45 49 65 93 87 70 86 83 78 73 61 46 47 46 46 45 45 45 47 48
65 62 59 57 52 49 49 48 49 49 45 45 46 44 41 40 37 40 40 39 40 38 35 36 38 43 64 60 54 68 79 76 73 58 45 45 44 45 44 43 45 47 51
63 60 56 54 49 44 41 41 40 44 44 42 42 42 39 33 32 32 39 41 38 35 34 32 33 41 44 46 64 73 76 65 65 47 45 42 42 44 43 43 45 50 51
61 59 56 52 48 41 37 41 42 43 44 40 38 39 34 31 35 33 36 41 37 36 36 35 35 50 57 56 43 60 65 62 59 48 42 39 42 42 42 44 48 50 47
60 57 54 52 48 45 39 35 38 39 38 34 34 34 31 30 31 29 35 38 39 39 40 37 41 56 66 61 47 41 41 44 44 40 39 38 39 39 43 45 44 45 47
59 55 52 49 46 41 39 34 30 30 30 29 27 27 23 23 25 31 37 37 28 29 30 32 54 59 59 54 52 41 40 42 40 39 37 37 38 40 38 39 40 41 44
54 52 48 46 41 37 32 26 24 23 25 20 19 19 20 21 28 27 17 17 23 21 19 30 63 50 47 48 42 44 42 38 39 36 35 38 34 32 33 34 35 40 46
49 46 45 42 39 34 26 23 19 19 14 16 17 13 16 24 11 6 16 16 17 21 23 52 54 45 44 45 48 44 40 39 35 36 36 28 26 27 26 27 34 39 43
45 42 41 37 36 28 18 14 11 11 14 14 10 13 16 2 4 10 12 14 17 22 48 49 47 54 51 51 41 39 38 36 36 29 23 22 21 18 20 27 29 34 42
40 35 34 30 28 22 10 2 11 13 11 9 10 5 4 6 11 16 17 19 24 28 34 46 44 45 43 39 40 39 36 32 26 22 21 17 12 13 19 18 24 32 35
34 25 26 23 19 13 4 10 12 9 6 6 14 10 15 18 21 22 21 23 26 25 28 36 43 40 41 43 40 34 30 25 22 19 16 10 6 9 7 13 20 22 24
24 19 19 17 11 6 9 10 9 8 13 19 15 18 22 22 24 28 25 17 20 28 38 37 40 45 45 38 34 29 25 22 20 18 12 6 1 3 3 9 13 13 18
18 16 15 13 16 14 14 10 9 16 19 18 16 26 25 28 25 23 22 25 35 38 40 47 47 43 37 34 28 25 23 23 20 15 10 6 6 8 7 9 12 17 20
17 19 21 20 17 14 13 13 20 19 15 15 16 27 29 20 25 29 30 35 38 42 46 44 42 38 33 28 25 24 25 23 19 14 11 9 8 16 12 14 17 32 31
21 20 17 16 15 14 14 21 19 18 18 18 27 26 26 36 36 34 39 41 43 43 46 38 35 32 27 23 25 26 26 22 18 16 14 11 15 20 17 18 31 37 45
17 19 19 16 14 17 18 17 15 13 15 23 27 29 35 40 41 39 39 43 42 37 36 33 29 22 22 25 27 28 25 21 20 18 18 13 20 24 21 24 36 40 48
17 18 20 16 21 18 16 15 16 18 21 24 34 38 39 41 40 42 41 41 39 34 28 24 22 20 23 30 28 28 25 23 21 21 19 15 22 23 26 28 34 38 44
14 15 20 16 16 15 14 15 21 23 25 31 36 38 36 37 40 38 41 37 30 25 18 19 19 21 27 28 31 27 26 23 21 22 22 17 21 21 27 31 30 29 33
11 13 17 17 17 14 15 19 25 28 30 37 36 35 34 36 36 38 36 28 24 18 14 18 17 24 27 29 29 27 26 23 21 23 24 23 20 20 23 28 33 30 28
9 9 13 11 13 15 16 21 28 30 32 35 37 33 33 33 32 35 28 23 18 12 15 14 21 26 27 28 28 27 25 23 21 22 24 25 29 20 20 25 23 32 29
11 11 8 9 10 14 19 22 26 28 32 34 33 33 30 30 30 29 24 18 12 14 16 20 20 21 23 26 28 26 23 23 21 19 20 21 22 23 22 13 24 23 25

GFSGL_500_spd_039.txt.gz
Wind_Speed
78 82 85 90 89 85 79 78 80 80 75 72 70 70 71 69 65 66 69 72 77 82 87 88 91 93 93 93 90 87 77 75 67 59 57 55 55 54 49 47 47 47 47
82 86 88 85 73 69 69 67 71 74 71 67 63 61 63 64 59 56 59 62 66 69 73 79 87 92 93 93 90 87 82 79 71 64 60 57 56 55 52 48 49 48 48
86 88 83 67 65 68 69 69 66 67 61 60 62 60 57 58 56 54 55 53 52 56 60 64 67 77 89 93 90 87 85 80 76 69 64 60 58 56 53 48 48 50 49
87 81 69 64 69 67 67 64 62 60 58 56 55 57 56 55 54 53 53 52 51 52 54 61 64 66 72 82 92 89 85 79 79 74 67 62 60 57 53 51 46 49 50
81 70 64 69 67 67 67 62 58 56 53 52 52 51 53 55 53 54 52 52 51 50 54 57 62 64 67 69 81 89 85 79 75 77 71 65 61 58 52 50 47 48 49
72 64 68 70 70 68 65 60 53 53 49 48 50 47 47 48 50 51 51 49 46 46 50 54 53 54 54 57 66 82 87 83 73 75 70 66 58 59 54 53 48 46 47
64 66 70 66 63 63 61 58 52 48 45 45 41 43 42 42 44 46 47 48 44 43 45 42 40 38 39 40 47 61 78 70 68 74 69 63 62 58 57 53 49 45 46
64 70 65 63 63 61 57 56 51 45 41 38 36 36 35 38 38 41 42 43 44 40 42 38 34 34 35 39 43 46 58 67 72 73 68 63 57 53 55 52 48 45 46
67 71 67 66 66 58 52 52 49 42 36 37 40 37 34 33 36 36 37 40 38 32 35 35 34 34 37 38 38 38 45 52 64 69 60 53 53 56 56 52 46 46 45
69 69 66 66 59 49 49 47 44 38 31 32 32 33 30 30 33 33 37 38 35 31 33 36 35 35 37 39 39 48 49 42 43 50 49 53 51 48 47 47 46 46 45
71 66 67 59 50 46 46 44 40 28 23 21 20 21 21 25 27 30 33 35 34 35 34 36 35 36 38 44 54 55 51 41 49 53 48 41 39 40 43 42 45 46 47
67 67 60 52 42 41 40 39 26 18 15 11 11 14 15 19 23 27 30 34 35 32 34 37 37 36 37 43 53 64 42 41 49 54 43 39 36 35 37 41 44 47 47
67 64 53 37 34 35 36 25 14 9 8 7 6 12 14 15 18 25 32 23 17 17 24 27 30 31 37 42 56 47 47 45 45 40 40 37 35 35 37 42 46 39 40
60 53 36 26 29 30 24 13 7 4 7 9 9 9 12 15 12 9 9 5 7 15 19 19 27 33 32 44 40 47 47 47 47 45 39 36 34 35 40 36 31 35 41
49 37 29 24 25 19 13 13 13 12 10 7 5 0 2 2 3 4 8 6 8 16 18 17 32 32 44 38 44 43 45 45 43 39 38 36 35 29 25 26 33 40 42
39 34 27 20 13 14 15 13 10 7 7 14 12 9 10 15 15 16 16 21 22 23 30 38 39 41 44 41 44 47 46 39 36 34 30 26 23 22 25 29 29 33 39
25 22 19 18 20 18 15 13 13 16 16 11 12 16 21 21 21 21 28 35 37 33 30 31 41 34 36 40 42 38 38 36 32 28 25 23 23 23 19 17 22 20 20
21 23 22 21 20 16 14 15 15 14 14 16 20 23 23 21 23 20 22 26 29 29 28 37 42 35 40 34 38 38 35 31 27 26 24 20 16 10 11 8 7 7 6
17 17 17 20 18 15 13 12 13 14 16 16 21 24 21 18 16 15 22 27 31 34 34 32 32 32 38 40 37 32 28 27 27 23 17 13 12 11 6 3 4 11 15
19 18 19 16 13 12 12 11 9 12 15 20 24 17 15 17 20 25 32 37 34 33 35 37 41 39 37 34 30 29 30 27 21 16 14 18 18 21 23 26 23 21 25
20 23 19 16 16 11 10 10 11 14 21 18 17 24 26 25 26 27 29 31 34 35 39 38 38 34 29 33 33 34 26 20 16 17 24 24 22 36 38 43 42 41 42
18 22 18 13 13 11 11 17 20 19 17 18 25 26 24 28 31 32 34 34 32 32 37 35 30 31 35 35 36 27 23 19 19 26 29 26 23 26 37 45 47 50 48
16 20 19 14 14 12 12 19 20 20 22 26 27 30 34 37 36 31 29 33 35 35 32 30 28 34 41 38 31 27 23 20 21 31 29 30 27 21 33 43 42 42 44
12 15 16 14 12 13 18 22 23 26 30 30 30 40 37 30 26 31 32 31 31 29 28 27 30 43 38 34 31 28 24 23 24 32 30 34 32 31 30 37 38 36 35
12 9 11 10 9 11 20 29 30 30 28 31 37 36 33 28 25 29 27 29 28 24 26 29 40 40 35 34 31 28 29 30 29 29 29 33 30 30 28 32 32 26 27
8 4 6 8 13 19 24 29 29 26 27 32 34 32 27 23 22 28 25 25 23 22 29 33 43 36 35 33 30 30 29 30 36 39 30 29 28 30 33 30 28 27 27

GFSGL_500_spd_042.txt.gz
Wind_Speed
74 77 79 79 80 82 86 82 77 67 63 67 68 66 66 66 66 70 68 68 71 71 73 76 75 78 81 83 81 80 84 81 75 72 72 68 63 58 57 55 53 53 55
79 79 78 79 82 84 81 74 65 64 68 67 66 66 64 66 64 65 63 62 61 64 66 69 70 73 76 78 79 77 77 82 81 78 71 72 64 62 59 58 55 53 53
78 76 77 80 83 79 72 64 67 71 70 69 66 62 62 62 62 59 58 58 57 56 58 60 60 63 69 74 75 77 76 77 81 81 74 74 68 66 63 59 59 54 53
74 76 79 82 79 72 65 65 68 66 63 62 61 59 58 58 56 54 52 53 55 53 54 55 53 56 57 60 62 66 71 75 77 79 79 72 70 68 66 62 62 57 52
76 78 82 80 72 66 64 68 68 65 63 63 58 55 54 54 51 50 47 47 50 45 47 50 50 52 51 50 52 52 54 59 68 76 76 75 72 66 65 62 61 59 55
77 80 81 74 68 67 70 73 67 62 64 59 53 51 49 48 47 46 45 46 49 50 48 47 47 47 48 48 48 48 50 54 58 64 74 76 73 65 65 63 65 60 57
78 81 75 69 69 71 73 69 67 64 57 49 48 47 45 41 42 40 39 38 42 45 45 44 43 45 48 50 51 53 53 54 56 59 67 72 71 65 64 60 62 62 58
80 77 70 69 71 74 73 69 62 53 47 46 44 43 40 37 36 32 34 38 38 40 41 41 40 40 48 48 48 50 52 55 57 58 61 65 68 65 62 61 56 61 60
77 71 69 72 76 74 68 60 49 44 44 43 43 38 34 33 34 33 31 34 37 37 38 38 39 40 44 42 41 42 44 47 53 57 57 60 61 61 62 57 54 56 53
70 68 71 74 72 66 56 41 38 40 42 40 29 26 28 29 31 34 33 34 33 34 35 36 40 40 39 38 36 39 41 42 47 51 58 65 63 60 59 52 47 48 52
66 68 70 65 57 48 37 38 38 38 30 23 18 20 19 20 24 29 31 30 31 32 32 36 37 36 35 37 36 38 40 44 48 57 62 66 60 61 52 50 46 47 47
64 63 59 52 46 37 37 36 33 25 17 14 12 12 11 13 16 20 22 23 28 29 32 34 35 34 34 36 35 36 39 42 48 55 67 59 60 53 50 44 43 43 44
56 51 52 45 36 34 30 26 19 14 11 9 6 3 1 1 5 9 14 18 22 25 32 36 40 36 35 34 36 31 36 40 47 58 48 50 46 39 38 40 41 40 40
36 39 41 36 27 22 18 17 16 14 11 10 9 6 3 3 8 13 15 18 22 21 19 23 30 35 36 32 31 34 34 38 46 53 48 44 41 41 42 38 35 33 36
29 30 32 29 23 21 19 17 16 15 15 14 11 11 13 13 12 9 5 4 7 6 5 13 22 28 30 28 30 30 35 39 39 45 48 42 39 37 36 35 34 35 39
27 26 24 22 21 21 19 19 18 15 12 11 13 15 14 12 10 8 4 7 11 18 17 17 24 26 22 20 28 35 37 39 42 38 40 41 41 39 37 34 33 33 37
25 24 17 19 19 16 16 21 22 19 17 19 19 19 20 20 23 22 24 24 21 23 25 29 25 27 35 40 40 40 39 44 42 43 41 36 36 30 26 26 28 31 35
24 24 21 17 13 13 16 18 20 16 16 17 19 20 22 25 27 24 28 30 33 33 34 34 28 25 27 32 34 39 41 41 35 34 30 28 25 24 22 20 21 20 21
24 15 14 14 14 13 15 16 16 15 16 17 18 16 16 18 19 23 21 27 33 39 33 30 35 33 33 37 43 36 31 34 35 33 27 25 17 11 13 14 11 6 5
13 13 16 16 15 15 16 18 17 17 16 13 12 12 16 20 20 22 23 18 29 34 35 34 36 42 38 33 34 38 38 33 28 24 19 16 12 13 12 12 9 13 12
11 13 15 14 15 13 17 21 16 13 10 14 20 22 25 27 26 24 24 23 21 17 26 34 38 37 36 37 36 28 26 26 23 23 27 18 14 11 13 17 22 22 26
12 14 17 17 15 19 20 17 15 17 19 21 25 25 24 23 22 21 21 24 28 33 34 32 29 29 28 26 25 25 24 23 28 28 22 21 23 36 34 37 35 37 39
12 15 17 17 13 16 18 21 21 22 21 20 22 26 30 31 31 31 30 28 25 24 24 26 29 25 27 26 23 22 25 31 32 29 29 27 20 25 38 45 47 44 42
10 16 16 15 14 15 17 21 20 20 19 23 29 29 26 22 16 15 17 21 21 22 25 33 27 27 24 23 24 26 31 36 32 31 27 24 26 36 38 46 47 48 42
3 12 11 11 15 17 20 21 18 19 23 25 26 26 23 18 15 16 20 25 26 25 35 33 28 28 28 24 23 27 37 37 31 36 31 32 39 38 37 35 37 39 41
6 9 8 15 19 21 20 18 16 23 24 25 25 23 20 17 17 18 22 25 28 43 37 31 31 32 32 27 25 32 38 36 34 38 35 34 35 33 35 36 34 34 34

GFSGL_500_spd_045.txt.gz
Wind_Speed
76 76 76 77 77 76 74 75 79 81 82 79 76 71 64 65 66 67 65 65 66 65 66 66 67 67 70 70 76 80 80 81 77 72 72 70 72 66 61 57 55 52 48
75 76 77 76 74 74 77 80 81 82 80 76 69 65 65 67 65 63 63 63 64 63 63 65 66 67 67 68 71 75 76 78 79 75 75 74 74 73 64 63 60 56 52
75 77 75 74 76 79 81 80 82 82 77 70 67 66 67 66 64 62 60 61 61 59 60 59 59 59 60 62 66 68 70 73 75 77 74 76 74 73 72 68 66 63 56
76 74 73 77 81 82 81 83 83 78 72 68 68 70 67 63 62 61 60 58 55 54 55 52 51 53 55 56 59 60 62 67 69 74 72 76 76 75 71 69 66 67 61
73 73 77 81 81 82 84 82 77 73 72 72 72 69 67 64 61 58 54 52 50 49 46 44 46 49 52 54 54 54 55 61 66 67 70 73 75 74 72 65 67 67 63
71 76 80 81 82 83 80 76 75 76 76 73 69 64 58 53 48 48 46 45 46 42 37 35 38 45 48 49 50 48 50 52 56 61 67 70 70 71 71 67 67 68 68
74 78 80 80 80 77 75 77 76 69 65 62 56 49 45 45 43 41 41 41 39 32 30 30 41 42 44 46 48 47 48 49 49 49 54 63 68 69 69 66 66 66 65
75 78 78 77 73 73 74 71 62 56 48 43 41 42 42 40 39 39 38 36 29 29 37 42 42 42 45 43 42 43 44 45 44 42 44 47 52 64 70 69 69 67 65
74 75 73 69 68 65 67 58 51 46 45 46 44 43 42 40 35 31 30 28 28 29 33 37 33 35 40 43 40 39 40 40 39 40 40 43 49 55 63 68 68 67 61
73 70 64 57 56 60 56 48 47 46 42 37 32 28 25 22 22 23 24 25 27 28 31 36 33 34 41 39 37 39 37 34 37 40 40 43 47 51 55 62 66 65 63
68 61 56 43 51 55 52 46 40 33 30 26 23 22 21 19 16 16 19 23 27 29 29 28 29 34 38 37 37 35 31 32 34 39 43 43 44 50 50 55 61 64 59
58 56 42 42 45 45 48 43 37 33 30 26 22 19 17 15 14 13 13 16 21 23 23 24 28 33 35 35 32 27 26 31 34 38 42 44 46 48 49 51 57 58 55
54 41 37 40 39 42 38 33 30 28 26 25 24 21 19 16 14 10 5 8 13 15 19 24 27 30 32 32 30 26 28 31 31 35 38 44 49 51 47 58 57 52 49
39 33 34 36 34 35 28 26 27 29 28 27 26 27 25 23 20 17 10 4 5 9 14 20 25 30 33 33 29 27 27 25 27 26 27 34 49 51 57 55 49 48 48
30 32 34 31 29 28 27 29 28 27 24 24 24 24 24 23 21 13 6 4 4 9 13 20 26 29 31 30 26 25 23 21 20 22 22 33 47 57 41 43 46 46 45
29 31 30 25 25 21 23 28 24 22 23 25 27 25 19 16 15 9 2 4 7 8 9 7 8 14 19 22 25 25 21 21 20 20 27 41 49 36 43 44 44 44 44
30 29 21 20 20 17 20 21 17 20 21 24 27 26 23 25 22 17 15 16 14 11 13 17 17 15 16 21 24 17 15 21 23 28 38 31 35 42 38 35 37 37 36
27 22 18 18 19 18 17 12 13 16 17 21 24 26 21 25 30 30 30 27 27 28 27 22 18 20 22 20 22 22 23 28 32 32 31 31 31 29 31 29 29 27 29
21 18 18 18 18 13 11 12 10 11 17 19 20 18 20 22 28 30 29 29 28 31 29 26 24 22 22 21 24 30 33 33 33 36 34 33 32 29 27 26 29 25 18
21 18 18 18 11 11 11 12 10 14 19 17 16 19 18 18 18 21 27 27 26 23 18 21 23 28 30 31 33 36 35 38 37 27 26 28 27 25 27 24 16 14 13
19 14 14 12 10 10 11 13 15 16 16 17 19 21 22 20 19 19 16 16 16 18 18 19 23 29 30 32 32 27 26 26 25 24 26 21 22 18 21 18 19 17 13
15 10 8 11 9 10 11 15 17 17 16 17 17 15 14 16 15 9 8 11 14 21 23 24 21 18 23 26 22 25 34 33 26 18 16 18 23 26 22 21 20 18 20
10 9 6 11 10 11 14 16 17 15 13 14 14 16 20 20 20 20 22 24 23 21 18 19 23 19 19 31 40 39 34 24 23 22 22 21 27 27 29 32 34 38 42
6 8 5 11 14 15 17 14 12 13 13 18 18 18 17 16 15 16 18 17 16 18 25 30 32 33 33 35 39 34 31 27 30 27 26 27 30 36 39 42 41 42 42
8 8 5 13 15 16 15 12 13 15 16 19 20 21 18 17 15 16 20 21 23 30 27 25 24 26 30 37 36 32 30 29 29 27 26 30 36 40 39 40 40 40 40
4 4 7 14 16 16 14 13 14 15 16 18 21 22 18 17 19 21 32 26 30 26 25 25 26 30 36 40 36 32 37 30 27 28 32 34 36 39 40 39 39 38 37

GFSGL_500_spd_048.txt.gz
Wind_Speed
73 74 75 76 77 79 81 81 78 77 79 81 80 81 81 81 79 75 69 64 60 58 60 60 60 61 61 61 58 58 59 59 60 70 76 74 71 68 77 63 61 55 52
75 75 76 79 80 82 81 77 79 81 83 83 82 81 80 76 71 67 64 61 60 61 62 61 58 56 58 60 62 58 59 60 61 59 73 79 77 74 73 58 66 56 54
75 76 78 79 80 79 76 79 83 85 85 85 83 79 75 73 71 69 68 66 65 63 60 59 57 55 56 57 58 59 58 61 62 61 66 78 80 77 66 66 64 66 57
76 77 77 78 78 76 78 82 83 84 83 80 80 80 79 76 72 71 70 69 65 63 59 58 55 55 55 51 52 53 54 57 64 62 65 72 76 81 79 71 69 64 67
75 76 76 75 74 78 80 82 81 77 76 78 80 77 68 62 60 62 60 58 56 54 53 53 55 52 50 42 43 46 47 52 53 57 63 67 70 77 81 76 74 68 73
75 73 73 71 74 77 79 75 70 65 71 75 65 58 51 47 44 41 38 39 40 42 44 46 47 38 36 36 38 36 42 44 45 51 54 58 60 68 80 84 79 77 63
71 70 69 72 74 76 71 64 58 63 69 66 54 52 49 47 44 40 38 38 38 39 40 38 34 33 34 32 29 38 50 44 44 47 49 47 54 63 74 82 82 78 70
66 66 69 72 73 68 61 51 56 59 62 56 47 42 38 35 34 35 36 36 33 31 30 31 32 32 34 32 27 38 43 49 47 42 41 47 51 55 68 76 81 79 77
63 65 68 70 64 59 46 50 51 54 54 48 42 36 33 30 27 25 23 24 28 30 31 30 32 38 35 43 40 36 32 39 37 37 39 43 47 53 62 69 74 77 76
61 64 66 60 57 44 46 42 47 47 45 43 43 39 34 28 26 22 20 19 17 19 25 29 35 41 33 37 33 34 34 33 35 37 38 36 37 46 56 62 67 71 73
60 63 57 54 42 43 38 42 45 47 45 40 37 35 34 29 24 20 18 15 14 19 25 27 26 35 38 37 32 31 35 31 32 34 32 31 33 41 49 55 60 67 69
59 54 51 38 39 37 36 40 44 42 34 31 30 29 28 28 30 21 14 11 9 13 23 25 22 23 34 37 30 32 33 32 30 27 27 29 32 36 40 44 52 60 66
51 49 38 36 36 33 35 36 37 31 31 34 33 28 26 27 25 25 24 8 6 8 15 22 24 26 28 29 31 34 33 29 26 27 27 29 30 32 35 40 45 51 60
46 36 35 34 31 31 32 30 30 27 28 35 39 35 30 25 25 26 19 18 4 4 9 13 17 21 23 27 31 33 30 24 23 27 29 32 35 36 37 38 43 45 51
37 32 33 28 25 28 30 28 24 24 29 35 38 28 25 25 20 15 11 5 2 4 7 10 13 15 18 24 29 28 26 21 22 24 27 31 34 37 38 38 39 41 45
28 30 29 23 22 30 24 25 21 21 27 31 32 25 30 31 29 20 8 3 3 6 6 6 11 15 20 23 26 25 21 21 19 20 20 20 28 38 40 41 42 41 45
27 30 27 25 24 21 21 20 17 20 25 25 25 23 23 26 24 23 18 15 12 12 12 11 7 5 8 15 22 24 24 20 19 21 20 20 21 31 42 41 39 38 45
25 29 25 21 18 14 15 17 17 21 21 20 21 24 27 27 25 28 34 29 21 21 22 21 18 18 18 19 22 24 21 21 21 21 25 17 15 25 32 36 43 41 40
23 22 15 15 13 12 14 17 19 20 18 20 20 20 24 24 31 30 29 28 28 29 27 24 23 21 17 16 13 11 12 13 11 13 23 28 32 34 35 34 34 29 23
21 20 11 10 10 12 14 16 20 18 18 17 19 21 23 23 26 32 26 25 23 23 21 19 16 15 17 17 19 20 18 18 24 24 25 29 27 33 29 25 26 31 30
18 17 8 6 9 13 14 17 18 18 16 16 18 20 18 20 26 27 25 22 22 24 23 24 22 23 24 26 26 27 27 28 30 31 37 34 25 30 36 33 27 22 22
16 15 7 5 8 11 12 17 17 17 15 11 11 11 10 12 15 14 19 19 15 19 24 23 22 20 19 19 22 26 25 24 23 23 31 37 37 33 30 29 29 26 23
14 13 6 4 6 9 15 15 16 18 20 19 17 15 11 12 15 17 13 9 9 8 15 22 18 20 29 33 30 26 21 23 26 27 31 32 30 28 27 24 22 21 21
12 9 6 3 7 13 15 13 16 21 21 20 19 17 15 13 13 13 14 13 16 17 22 29 32 36 32 27 29 31 29 28 29 31 32 30 30 28 28 29 32 39 39
9 5 6 8 11 16 14 13 17 20 21 20 21 19 17 18 20 27 29 29 28 30 31 34 32 32 31 28 29 30 32 34 32 31 31 32 31 35 36 39 42 43 41
8 1 8 10 13 14 14 14 16 19 20 19 18 18 18 24 26 26 24 23 23 26 30 34 31 30 28 30 28 26 28 27 27 31 32 33 37 39 42 42 41 39 36

GFSGL_500_spd_054.txt.gz
Wind_Speed
67 71 74 77 78 79 81 83 83 84 84 82 78 75 71 67 69 71 74 74 72 69 67 74 78 82 81 79 75 75 75 74 72 68 69 64 66 71 71 70 72 66 67
73 76 79 80 82 84 85 87 87 85 78 76 72 66 66 69 72 73 68 63 62 61 61 63 67 71 69 73 75 70 68 65 65 64 61 56 56 60 64 69 69 69 63
76 79 80 83 84 87 89 88 81 73 70 65 63 66 69 70 64 58 58 57 59 60 64 64 60 59 55 54 59 63 63 60 57 59 56 54 54 52 53 60 66 71 68
78 80 82 85 89 91 84 73 69 64 60 61 65 67 62 55 53 53 55 58 64 65 61 58 53 50 47 45 47 54 57 57 55 54 56 52 55 55 53 52 60 70 77
80 82 86 89 86 76 69 65 60 59 61 64 61 52 49 47 51 55 57 57 57 56 52 50 48 43 43 42 42 44 46 52 52 53 52 48 51 56 55 55 54 66 78
81 84 87 81 70 66 60 57 58 61 62 52 48 44 44 50 52 50 52 54 53 50 47 43 42 37 34 36 35 37 30 40 48 52 52 53 54 53 52 55 56 59 74
83 82 73 66 62 56 55 57 59 58 46 44 41 43 48 49 46 49 53 52 50 45 41 38 36 31 31 30 30 38 32 35 40 48 50 48 49 50 52 55 56 58 64
77 67 62 57 54 55 56 58 54 44 42 38 41 44 49 45 47 54 50 48 44 39 36 35 32 28 26 27 28 39 45 40 32 32 48 48 49 50 49 53 56 59 60
63 58 54 54 53 55 56 51 41 41 38 38 41 45 45 45 49 46 44 42 39 35 32 30 28 23 25 26 28 39 40 42 41 39 36 43 47 44 46 52 54 57 61
54 51 53 53 55 56 49 39 40 34 33 39 41 42 43 47 43 41 40 36 34 32 27 25 24 20 24 25 31 36 49 44 44 41 38 36 44 44 42 47 54 55 58
51 51 53 54 54 48 38 39 32 31 35 38 37 40 46 43 40 42 38 33 31 27 23 21 17 15 23 22 26 33 48 46 47 39 33 40 40 41 49 46 50 52 57
49 51 53 53 46 38 37 34 33 33 35 34 33 40 42 39 40 40 38 31 28 22 20 17 13 10 19 23 22 26 31 44 39 39 32 34 36 43 44 41 38 48 55
48 51 52 44 37 36 35 33 31 31 32 29 33 34 34 38 39 42 32 30 23 17 17 13 11 12 16 24 27 26 21 27 28 31 25 27 34 40 42 44 37 41 53
48 50 43 37 32 34 32 28 23 25 27 29 27 29 30 29 31 32 25 21 13 14 10 9 8 14 14 24 29 32 26 31 28 27 29 29 31 43 48 46 45 45 48
47 44 37 30 32 30 25 22 25 27 27 23 24 28 30 26 26 31 27 19 13 9 6 4 8 14 13 19 30 38 33 24 26 27 21 27 30 35 38 42 43 45 46
44 35 31 28 28 24 19 23 27 27 24 22 25 29 29 25 20 24 25 25 22 12 8 6 4 14 18 18 25 33 31 23 25 24 26 26 28 30 33 35 38 40 43
36 32 26 27 22 21 22 23 18 21 20 22 25 25 26 24 16 18 21 25 26 23 14 8 7 7 12 20 26 29 32 35 26 26 28 26 26 27 28 29 32 36 42
31 27 23 23 19 21 24 21 19 19 21 25 27 22 21 19 19 19 18 18 19 21 24 18 11 7 9 14 19 23 26 28 29 28 23 23 24 24 25 27 30 33 37
28 22 21 20 19 21 21 20 18 20 25 26 21 17 14 16 19 17 15 14 11 11 14 17 19 14 9 14 18 23 27 28 27 25 24 23 22 22 24 26 29 32 34
25 19 17 16 17 19 19 17 17 21 25 26 21 13 13 15 15 15 13 12 11 10 9 12 13 15 15 9 17 24 26 28 28 26 24 22 21 20 20 21 23 25 28
19 17 15 15 16 17 17 16 19 22 26 25 17 13 14 15 13 13 15 15 11 10 9 8 8 9 9 15 18 20 21 24 24 25 25 23 21 20 20 21 20 22 26
16 14 14 13 14 14 14 16 20 24 27 20 14 14 17 17 16 14 14 16 18 14 11 11 10 8 8 9 10 16 22 28 27 25 25 26 26 25 25 22 24 28 29
15 12 12 10 12 12 12 16 21 25 21 16 16 20 24 23 25 26 26 23 22 23 21 20 19 19 16 13 14 17 15 16 18 21 24 24 26 28 32 35 36 35 33
12 12 10 9 10 10 11 16 21 21 15 14 15 20 24 24 25 23 28 30 28 28 29 29 27 21 15 22 19 23 25 28 29 31 31 33 36 38 36 32 30 30 30
10 9 7 6 8 6 9 14 18 14 11 12 16 17 20 22 20 19 19 23 21 22 25 30 31 32 30 27 26 25 28 28 30 31 31 31 30 30 29 28 27 26 25
11 8 3 4 4 3 7 13 15 9 11 12 15 16 19 21 19 20 19 21 21 22 22 27 28 30 31 30 27 26 23 21 20 22 23 25 26 27 27 26 25 23 23

GFSGL_500_spd_057.txt.gz
Wind_Speed
59 63 67 72 76 80 83 85 88 88 88 89 91 88 82 77 73 69 64 64 65 66 67 64 60 59 59 60 62 60 60 63 70 64 73 78 82 80 78 78 76 74 72
65 69 73 77 80 82 84 87 88 89 90 89 81 75 69 63 61 62 64 65 61 55 53 53 52 54 58 61 63 66 70 72 74 70 75 75 78 79 76 76 74 73 70
71 74 77 79 82 84 86 87 89 88 81 74 67 60 58 60 62 62 56 50 47 48 51 54 57 58 58 58 59 60 63 65 65 64 66 71 72 73 69 70 70 70 68
74 76 78 80 82 84 86 87 80 73 65 59 58 59 61 61 54 50 46 47 52 53 53 52 55 57 56 55 55 57 58 55 49 49 51 61 66 61 59 62 65 66 64
74 75 77 79 82 84 83 71 63 58 57 58 60 61 56 49 46 45 50 51 53 51 51 55 56 57 53 50 53 52 50 45 42 41 43 52 56 49 49 53 56 57 59
72 74 78 81 81 75 62 57 55 56 59 61 60 51 46 43 46 49 49 50 49 51 52 53 51 50 48 50 49 43 39 34 34 36 37 44 46 42 45 50 54 51 52
73 76 77 75 67 57 55 55 57 59 61 56 48 45 41 43 46 47 47 49 53 46 46 47 46 45 45 47 40 37 33 29 27 30 33 37 40 38 41 43 50 50 47
74 74 68 58 54 54 55 57 59 58 52 45 43 39 39 44 44 44 48 53 47 45 43 41 42 42 43 40 34 32 29 26 33 25 23 33 37 39 40 44 41 49 49
69 59 52 53 53 54 56 59 55 47 43 40 37 39 43 43 44 48 52 50 48 43 42 38 38 38 39 34 29 27 25 29 38 25 21 29 38 47 47 47 45 45 47
55 49 51 55 55 55 59 53 44 42 38 34 35 38 41 42 47 48 47 51 48 41 38 35 34 33 30 27 24 24 23 36 36 29 26 27 30 51 54 52 49 46 46
47 49 54 57 56 57 53 44 42 39 35 33 34 37 39 43 44 39 42 50 51 34 33 30 30 27 22 21 19 20 21 36 40 37 31 33 28 38 48 46 44 46 48
47 51 54 53 53 54 46 39 37 32 29 30 33 34 37 39 39 32 38 44 40 32 25 24 24 18 15 13 17 14 28 37 40 39 31 30 31 34 42 35 39 44 45
47 52 50 50 54 47 38 34 28 27 31 32 32 32 33 37 37 32 32 37 33 21 13 17 16 10 11 13 14 12 16 27 39 43 34 33 26 29 42 42 40 41 42
48 48 47 51 44 37 35 29 29 31 34 30 28 30 34 36 34 31 26 32 27 19 14 11 9 6 9 14 14 13 14 10 37 36 30 31 28 34 40 43 41 37 38
43 43 47 44 38 30 29 29 30 33 33 31 30 33 36 39 30 29 24 27 28 18 13 11 4 5 7 13 23 14 22 19 20 33 30 30 27 35 34 37 41 39 34
39 43 43 37 29 28 20 24 31 30 30 31 35 37 37 39 30 26 24 22 27 25 15 10 2 5 6 11 26 25 24 24 27 29 27 27 27 27 30 33 37 40 39
41 42 35 30 26 23 21 23 24 26 29 32 35 35 34 33 32 25 25 20 21 24 21 12 5 2 9 9 19 26 24 21 16 17 18 21 21 24 27 33 40 44 44
40 36 31 25 24 21 21 24 24 23 25 31 35 34 30 28 30 30 21 18 17 17 18 16 8 3 5 14 19 25 32 27 21 20 14 20 23 24 27 30 35 40 45
36 30 27 23 22 20 21 24 24 27 32 35 32 30 29 28 29 26 20 14 12 11 11 12 14 6 3 8 16 21 25 29 25 22 19 23 22 23 25 27 30 34 36
32 29 23 19 19 18 20 22 25 29 33 30 25 26 29 29 23 16 16 13 11 11 10 7 9 11 5 4 9 15 18 20 22 24 24 22 21 22 24 27 29 33 35
27 25 21 18 17 16 18 21 25 29 28 23 23 22 20 21 18 14 14 13 11 8 9 9 6 8 11 5 8 14 20 24 25 24 22 20 20 19 20 22 26 29 31
25 21 17 17 15 15 18 20 25 28 21 18 20 18 20 22 21 20 20 17 16 14 10 6 7 5 7 13 10 14 19 22 22 21 21 21 20 18 17 21 24 27 30
22 18 16 14 12 14 17 20 25 22 17 15 16 14 18 23 25 24 25 25 25 19 14 13 10 7 12 15 14 13 19 19 18 18 18 18 18 15 17 20 26 29 30
20 16 15 11 10 13 15 20 23 17 14 15 13 10 6 14 22 21 20 21 25 26 26 17 15 16 16 18 16 15 17 18 19 19 20 19 18 20 22 23 27 31 31
18 15 13 8 9 10 14 18 19 13 11 9 12 10 11 15 17 17 18 23 20 25 27 29 24 23 23 23 23 23 20 18 18 19 20 19 20 24 28 32 29 27 27
16 13 9 6 7 8 12 16 14 10 10 9 11 11 19 18 19 16 16 17 20 23 27 26 26 22 22 22 24 25 25 25 25 25 28 29 25 22 21 21 23 24 24

GFSGL_500_spd_063.txt.gz
Wind_Speed
58 59 62 65 67 69 70 71 72 72 74 77 80 83 84 85 85 83 78 72 66 61 59 59 61 61 58 53 51 50 48 47 44 47 51 53 55 61 64 65 67 69 69
61 63 64 65 65 66 67 69 72 74 77 79 81 83 82 81 76 68 62 60 60 61 62 56 48 47 45 42 41 43 43 42 39 37 41 43 45 49 53 59 65 67 68
61 62 62 64 64 67 69 70 72 75 78 80 80 79 76 69 63 61 61 62 60 54 49 47 44 43 45 48 50 50 49 48 47 46 45 46 47 50 50 51 54 58 61
59 61 63 65 67 67 70 72 75 77 79 79 76 70 65 61 61 63 61 53 50 47 42 41 44 46 50 51 51 50 49 47 47 48 48 49 51 53 54 53 55 58 56
60 63 65 66 68 70 73 75 77 78 74 69 64 63 62 60 61 55 49 49 45 41 41 44 47 49 48 49 52 53 50 48 47 47 45 46 49 53 55 58 59 59 60
64 67 69 71 73 73 75 77 76 70 64 59 59 59 56 59 50 48 46 43 40 41 45 45 45 45 46 45 42 43 44 44 45 45 44 46 47 49 53 56 58 60 58
68 71 74 76 75 76 77 74 66 61 56 55 56 55 54 47 47 44 42 41 42 43 43 43 43 43 43 43 43 44 44 46 46 44 43 41 41 44 47 48 49 53 54
72 75 77 77 78 76 70 61 58 53 53 52 53 50 44 43 42 41 40 40 39 38 41 41 41 43 45 47 46 40 39 38 37 37 36 34 34 37 36 36 36 39 45
75 76 78 78 73 64 56 54 51 49 48 50 47 41 40 37 39 37 35 36 39 41 38 36 37 44 46 38 34 32 30 30 31 31 31 30 32 29 27 28 28 30 31
77 75 70 62 55 51 47 45 45 44 46 43 36 35 35 35 32 31 34 38 37 35 32 33 39 49 31 27 27 24 23 27 29 28 27 27 28 27 27 32 36 29 32
61 56 52 48 45 41 42 42 43 44 38 34 32 32 33 32 30 32 34 34 34 30 29 31 41 36 28 23 20 22 25 22 20 21 20 23 25 27 28 36 32 34 35
49 45 40 39 39 40 40 42 41 35 31 30 29 30 29 29 33 37 37 33 29 27 26 30 39 30 23 22 22 17 15 14 14 14 17 22 27 27 35 28 23 35 27
37 35 36 36 38 41 42 37 32 29 28 27 30 27 26 32 37 40 39 30 26 23 25 28 36 24 17 15 9 12 8 5 8 18 23 20 22 32 31 27 25 24 36
31 34 34 35 39 41 36 32 29 28 27 28 29 32 36 39 41 38 32 27 22 18 22 27 31 19 15 6 4 14 10 8 13 26 22 27 24 31 29 31 22 26 31
31 31 33 38 40 32 29 27 28 28 27 28 33 38 42 38 36 34 28 24 20 13 18 23 26 14 8 2 4 12 12 11 15 26 22 21 23 33 35 32 31 33 35
29 31 36 39 32 28 23 23 28 27 27 30 37 39 34 32 29 28 25 19 12 7 12 18 22 9 3 12 10 9 10 14 16 29 21 17 20 27 34 36 36 35 33
30 33 38 33 28 24 22 22 19 24 27 33 31 31 26 27 30 29 25 21 12 6 8 11 16 7 6 13 14 14 13 8 23 26 24 23 22 21 33 43 33 29 32
31 36 37 30 25 22 22 19 19 21 28 26 25 23 25 30 29 27 24 23 17 8 6 8 11 7 5 16 13 13 16 11 18 26 27 21 19 16 24 34 40 31 27
32 36 31 27 23 23 19 18 21 26 27 21 19 23 26 25 26 30 26 24 22 11 5 6 7 10 2 10 19 17 12 10 14 26 22 22 21 17 22 28 30 30 29
33 35 29 25 22 21 17 18 22 26 19 19 16 17 21 22 28 29 27 23 25 20 9 7 5 7 1 9 19 18 15 16 20 25 24 22 15 20 20 24 25 29 31
33 32 26 23 21 17 16 18 24 19 18 20 19 15 15 21 26 27 27 25 25 25 17 10 6 6 5 6 17 23 20 17 22 21 16 11 12 19 25 23 24 25 26
33 29 23 21 18 15 15 19 21 15 18 22 22 20 20 19 21 21 24 27 28 26 21 15 10 8 9 8 8 16 24 23 21 25 18 15 18 21 26 28 30 28 26
32 26 23 20 16 13 15 20 15 16 17 19 19 20 20 18 19 20 22 26 28 30 27 24 17 10 11 10 11 11 11 13 16 18 18 18 17 16 18 21 23 28 31
30 24 21 17 12 11 15 18 15 13 16 16 17 19 20 17 20 21 19 23 25 29 31 28 24 16 10 10 9 11 13 15 17 18 18 16 14 14 15 17 21 26 29
27 22 19 14 10 11 16 14 14 12 13 12 15 20 21 18 19 22 20 20 20 22 24 27 26 24 17 12 8 9 10 12 16 18 19 18 13 13 15 16 18 24 28
24 20 17 12 9 11 16 11 13 10 10 9 13 18 19 19 20 20 21 22 23 23 22 23 24 23 24 21 16 14 13 12 13 14 15 13 12 14 16 19 20 21 25

GFSGL_500_spd_066.txt.gz
Wind_Speed
54 56 59 61 63 64 63 62 63 64 68 71 72 73 75 78 80 81 82 82 80 75 68 65 64 64 64 63 61 57 51 47 38 39 44 48 49 51 54 57 57 61 65
58 60 60 59 58 60 63 65 67 69 72 73 76 79 80 81 81 81 78 74 68 63 62 63 63 60 54 51 50 46 40 40 40 40 41 41 41 42 42 48 53 57 57
54 54 56 59 62 64 66 69 71 73 76 79 81 81 81 82 79 74 67 63 62 59 60 56 50 49 48 44 41 42 44 45 45 45 47 48 47 47 47 43 43 49 55
55 59 61 63 66 68 70 73 75 78 82 83 83 82 82 77 70 63 59 60 59 58 51 48 44 42 40 41 43 46 48 49 49 48 47 49 50 50 48 47 47 47 47
62 64 66 69 71 73 75 77 80 83 84 84 82 81 72 63 58 57 56 58 53 47 42 41 40 40 41 44 46 46 47 48 48 50 51 53 55 54 51 50 47 48 50
67 68 70 72 74 76 79 81 82 84 82 80 70 62 58 53 53 54 56 50 46 40 39 37 37 38 38 41 43 45 44 44 46 49 49 49 49 51 53 50 51 53 52
68 70 71 73 75 78 80 83 81 74 65 56 52 49 47 48 51 50 45 44 40 40 39 35 34 38 40 39 36 38 41 47 50 48 48 46 47 47 50 51 50 51 52
70 72 73 74 77 80 75 65 60 54 47 44 45 45 45 47 43 41 41 40 39 36 37 37 39 38 35 33 37 43 42 45 47 47 47 45 45 44 46 46 46 47 51
72 74 75 77 70 59 57 51 44 40 42 43 44 45 43 38 38 38 41 38 35 37 36 37 36 33 30 33 40 37 36 33 34 37 36 37 36 39 40 39 42 45 43
73 72 66 57 55 50 42 38 38 41 42 43 41 38 36 34 35 39 38 38 38 39 37 37 34 31 28 37 33 30 28 26 28 30 28 29 31 34 36 37 38 38 36
64 56 54 50 42 37 37 38 40 42 42 37 33 32 32 34 36 37 38 41 43 43 40 33 29 28 28 32 29 29 26 25 25 27 29 30 30 32 31 32 34 33 32
53 47 41 34 36 37 37 40 43 40 35 30 30 29 32 35 36 39 42 41 40 36 30 25 24 26 29 26 24 24 21 18 19 19 19 21 22 23 24 29 29 26 28
39 32 29 33 35 37 40 41 36 33 29 29 28 30 31 34 37 37 36 33 33 29 23 21 21 24 24 21 18 13 10 11 10 11 13 15 20 21 25 22 26 27 23
29 28 30 32 34 39 39 36 32 28 29 28 28 29 33 29 28 26 26 26 27 23 17 14 18 22 16 14 11 4 5 3 4 11 17 16 18 18 21 25 24 18 28
27 29 30 32 36 35 33 30 27 28 27 27 30 32 27 23 24 26 25 22 21 17 12 9 14 17 12 7 2 8 6 2 11 18 14 19 21 24 23 23 21 25 27
26 27 31 35 36 32 27 25 27 25 26 29 30 26 21 24 26 26 25 24 19 12 8 8 11 12 6 2 5 5 6 12 18 17 21 20 27 29 25 20 24 29 27
25 29 32 37 33 28 24 23 21 23 26 27 24 15 18 19 25 26 22 21 16 8 7 7 8 7 2 6 6 8 12 16 21 16 17 22 27 28 27 24 25 26 31
27 32 35 36 31 25 22 19 19 20 22 19 22 12 16 20 25 25 20 20 18 9 5 6 6 7 7 10 7 7 5 13 23 20 16 22 26 30 28 24 29 27 28
29 32 35 33 28 23 19 18 19 22 17 19 22 12 16 20 24 25 22 19 18 14 5 5 5 7 5 13 12 9 7 8 28 22 21 21 22 27 24 26 24 25 28
30 34 36 31 26 20 17 18 20 18 14 20 18 14 12 17 20 25 24 23 18 15 8 5 7 6 1 10 16 13 5 11 24 24 23 19 15 17 27 34 32 24 25
30 32 34 28 22 17 16 17 20 14 16 14 17 16 15 16 18 23 24 25 23 17 13 8 8 7 4 10 14 12 13 18 23 23 22 17 16 17 22 27 34 32 27
29 32 30 24 18 15 15 18 15 14 12 13 17 16 15 16 17 20 23 27 30 25 19 11 10 11 12 10 17 16 15 21 24 24 24 11 14 18 19 25 28 26 29
29 32 27 22 16 14 15 17 12 11 11 14 19 17 14 19 17 17 19 24 28 30 26 17 9 6 9 11 13 19 22 23 22 27 21 11 11 21 24 23 24 27 30
29 30 25 19 13 12 14 13 9 9 10 14 18 17 17 21 20 19 19 20 22 26 27 24 14 6 3 6 8 11 15 19 22 23 24 18 18 22 26 29 27 27 27
29 27 22 15 11 12 14 12 8 8 8 11 15 15 17 20 22 22 21 21 22 20 24 24 22 14 7 3 6 8 13 16 19 20 22 22 21 21 23 26 28 32 31
27 24 18 13 10 11 12 11 9 8 7 9 12 12 15 18 22 25 20 20 20 23 20 21 22 22 17 17 14 11 13 17 20 21 22 19 18 19 21 24 27 31 34

GFSGL_500_spd_069.txt.gz
Wind_Speed
56 59 62 65 66 65 64 63 62 65 67 69 70 72 74 76 78 81 83 85 87 87 86 84 81 73 65 59 57 57 59 58 51 47 50 50 49 48 48 49 53 55 56
62 65 67 66 63 61 63 66 68 70 72 73 75 77 79 81 83 86 88 90 86 83 82 74 64 58 56 57 56 51 48 48 45 40 40 39 38 40 39 37 35 41 49
66 64 61 62 64 67 69 71 72 74 75 77 79 81 83 86 89 90 88 85 80 72 63 57 53 56 54 50 48 46 43 38 34 32 35 39 42 43 43 42 41 40 37
61 63 66 68 70 70 71 73 73 75 78 80 82 85 87 87 86 80 73 65 60 55 51 52 53 50 47 42 39 38 37 36 37 39 41 43 45 48 48 47 46 45 44
67 68 69 69 70 70 70 73 76 78 80 83 84 84 78 70 65 59 54 51 49 48 49 49 44 43 42 40 37 36 38 40 41 41 42 44 45 47 48 48 47 46 47
68 67 68 67 69 71 73 75 78 81 83 81 71 64 61 54 48 47 49 48 48 49 45 41 40 40 39 38 39 40 40 41 43 45 46 46 47 47 49 51 52 52 49
66 66 68 71 73 75 78 81 81 76 65 60 57 50 44 45 47 48 49 50 46 42 41 40 40 38 38 39 40 42 43 43 42 43 43 44 48 50 51 52 52 51 51
68 71 74 77 80 80 76 68 61 57 52 47 42 44 46 48 48 46 41 40 41 40 41 42 41 40 42 43 43 42 39 38 36 45 50 51 53 50 51 52 46 47 45
73 77 77 74 70 63 59 57 51 43 41 41 44 48 49 44 40 37 38 39 41 42 42 42 42 43 48 45 45 42 37 36 43 43 42 41 40 43 45 47 43 42 43
74 68 61 59 58 54 48 41 39 39 40 44 47 44 40 36 35 35 37 41 43 44 42 46 47 50 52 46 38 37 33 37 39 38 37 37 35 33 37 42 40 37 37
57 56 54 50 46 39 35 38 39 40 44 43 37 35 34 33 32 35 39 43 47 49 47 44 40 38 34 30 30 30 32 36 38 36 35 32 30 31 32 35 35 33 35
51 48 43 38 35 36 37 38 41 43 38 35 30 30 31 33 36 40 42 41 39 39 38 36 31 28 25 23 26 28 30 31 30 29 30 32 32 31 31 32 31 31 33
45 40 34 33 35 37 39 42 40 37 33 29 29 29 31 35 36 30 27 30 32 31 30 28 23 20 19 21 24 24 22 21 19 19 18 20 21 22 22 24 25 28 29
40 33 31 33 34 37 42 41 37 32 29 29 28 30 32 25 23 24 26 28 29 29 26 21 16 14 14 19 18 16 12 8 10 9 9 9 11 12 12 14 16 21 26
35 29 30 32 35 38 39 38 31 29 27 26 29 31 20 20 22 27 28 25 25 27 23 14 11 12 15 14 12 10 6 5 6 5 12 10 9 10 13 17 23 21 14
26 27 29 33 36 39 34 30 30 26 24 28 31 24 17 20 24 27 26 24 25 25 19 12 11 11 13 8 6 7 9 4 9 9 12 13 12 13 17 16 15 21 20
27 27 31 35 38 37 31 26 22 23 26 27 23 24 14 16 23 24 26 25 25 24 17 11 11 10 8 3 2 1 3 12 10 12 11 14 18 22 15 14 20 23 17
26 28 32 36 38 32 28 24 20 21 23 21 26 23 11 14 21 23 25 26 26 24 17 12 10 8 5 6 4 4 4 13 11 14 16 16 20 23 18 17 23 23 17
26 28 32 36 35 30 25 21 21 24 21 21 18 16 10 14 20 22 24 25 26 24 17 11 10 6 4 8 7 7 3 16 14 13 17 19 21 21 19 21 20 25 21
25 29 33 36 31 27 23 20 21 20 19 12 13 11 12 14 15 19 24 27 27 24 17 14 12 8 2 9 13 7 3 19 17 14 18 19 20 22 17 21 19 22 20
24 28 34 34 28 23 20 19 19 17 11 12 14 11 11 11 13 17 22 26 29 28 17 14 13 9 1 10 12 9 10 20 22 18 15 14 15 18 17 17 18 16 20
23 28 34 30 25 21 18 19 16 12 9 15 13 12 12 11 12 16 19 23 27 27 25 13 11 11 6 10 11 14 16 21 25 20 19 12 11 11 20 21 19 17 14
22 28 34 28 23 18 18 17 14 9 9 14 11 14 15 16 13 14 17 19 23 25 24 21 10 8 7 2 13 16 16 23 25 21 19 14 12 12 17 21 25 23 20
23 28 32 26 20 17 17 16 12 8 8 11 9 11 15 16 14 15 18 21 21 20 23 25 15 9 5 3 8 18 20 22 24 26 21 15 12 15 14 21 23 23 23
24 28 30 23 17 16 16 15 10 8 6 10 7 8 13 17 15 14 16 17 21 24 20 22 20 18 12 4 4 13 22 22 23 26 23 16 12 20 21 22 23 26 25
23 27 27 19 15 15 15 15 9 7 6 7 6 8 11 14 14 15 15 16 16 21 22 18 20 18 18 14 8 7 12 21 24 22 20 18 17 24 28 26 25 26 28

GFSGL_500_spd_072.txt.gz
Wind_Speed
55 60 63 66 68 70 70 69 68 68 69 70 72 73 74 75 77 77 77 79 81 83 84 85 85 87 89 88 85 79 73 67 63 54 57 57 57 56 55 55 56 54 53
60 63 67 68 68 68 69 70 72 73 72 72 73 73 74 75 76 79 80 82 84 86 88 90 88 81 75 67 61 56 55 54 54 46 48 48 46 46 43 41 43 42 39
63 68 70 70 71 72 72 73 72 72 72 71 72 74 75 76 77 80 84 86 86 81 74 69 64 57 52 50 49 48 49 48 46 43 42 43 41 39 39 35 33 32 33
69 71 72 72 72 71 70 69 70 70 71 73 74 76 79 80 83 83 79 71 64 62 56 51 48 46 44 45 47 46 43 43 41 39 37 36 35 35 33 35 36 37 38
71 72 71 70 69 68 68 69 71 74 77 79 80 81 79 74 66 61 59 53 48 47 47 47 46 45 45 41 41 41 40 41 40 39 37 37 37 38 39 43 43 44 44
72 71 69 69 69 69 72 77 80 77 76 72 65 59 55 54 50 48 47 48 49 50 48 45 40 37 36 36 37 38 37 38 37 37 36 38 38 41 42 44 44 45 45
69 68 68 69 71 75 75 70 65 62 59 57 53 48 45 44 43 46 49 51 48 44 40 37 36 35 35 36 36 36 36 36 38 41 41 41 43 43 44 45 46 48 49
66 68 71 72 71 65 60 58 55 51 47 42 40 41 41 43 47 47 43 41 39 39 39 37 38 39 38 38 38 39 38 40 41 42 44 45 43 40 41 42 45 47 48
69 70 70 64 59 57 53 48 43 38 38 39 40 42 45 43 39 38 36 38 39 40 40 41 43 44 41 44 46 45 45 44 42 38 39 41 40 41 43 44 47 49 52
69 66 58 55 52 48 43 38 38 37 38 41 42 41 38 35 33 35 36 37 40 42 42 41 41 41 38 38 39 38 36 32 29 23 34 36 38 40 42 42 40 39 38
59 52 51 48 45 39 35 37 38 39 41 41 37 35 32 33 32 32 35 39 39 36 34 35 36 35 31 33 32 29 26 25 28 32 34 35 36 37 38 36 34 32 32
49 47 45 45 37 34 35 38 40 42 39 36 32 30 31 30 32 34 32 31 34 35 36 35 34 33 31 27 23 23 23 25 25 26 29 33 36 33 33 33 30 31 31
44 42 43 35 31 33 37 38 41 39 36 32 31 29 28 31 30 25 25 29 32 32 31 30 30 27 21 14 16 20 21 21 21 21 21 24 24 24 24 29 31 28 27
40 39 33 28 30 35 38 43 40 35 32 31 28 27 28 23 19 21 26 29 29 29 30 30 24 16 9 10 16 17 13 10 8 12 12 11 12 13 15 19 21 24 27
36 33 27 30 31 35 40 43 37 32 29 26 27 29 23 18 17 23 26 27 28 29 28 25 17 10 10 15 13 11 9 6 9 10 8 4 3 5 6 9 13 19 21
32 26 28 29 33 36 39 34 34 30 26 27 31 27 25 16 16 23 26 28 29 28 26 19 14 12 13 14 8 8 5 4 2 3 5 6 8 6 9 11 13 13 15
26 25 27 30 34 38 36 30 24 25 28 29 27 25 18 11 17 20 22 27 28 24 20 17 13 14 13 8 4 5 2 7 4 3 2 7 13 13 11 7 8 13 12
24 25 27 30 35 37 33 27 22 21 23 23 21 17 12 14 15 17 23 27 28 23 17 17 14 14 12 3 2 6 6 8 7 7 8 14 16 18 12 11 14 16 16
23 25 26 31 37 35 29 23 22 24 20 16 16 16 13 15 14 17 22 26 29 26 17 16 16 14 9 5 5 5 8 11 8 8 9 11 16 14 16 22 21 18 21
23 25 27 33 37 32 25 21 22 21 16 16 18 14 11 12 13 16 20 24 28 27 22 16 17 15 7 6 9 5 6 14 10 11 11 14 13 20 21 25 23 25 20
22 25 27 33 35 28 22 21 21 16 13 16 13 12 11 9 11 16 17 21 27 28 26 18 14 14 8 3 13 6 10 17 12 14 15 13 16 20 16 16 21 20 20
22 24 27 33 32 25 20 21 19 13 11 13 10 11 11 10 12 15 18 21 23 27 27 23 15 10 8 2 9 10 17 21 17 16 15 13 13 13 14 16 17 19 17
22 25 28 33 29 22 20 20 17 11 10 12 8 9 11 12 13 16 18 20 24 25 27 24 19 9 5 2 5 12 20 27 21 18 15 12 11 13 11 13 13 15 16
22 25 28 31 25 19 19 19 15 10 10 11 7 7 12 13 15 15 16 17 22 24 23 26 22 17 4 2 7 10 16 27 26 20 15 11 12 16 18 17 15 13 10
21 24 27 28 21 18 19 19 14 10 9 10 7 7 12 12 15 17 18 18 19 22 21 23 21 19 8 4 5 10 13 19 24 24 20 17 15 13 15 20 20 18 16
19 23 26 23 18 17 18 17 11 10 10 6 7 7 10 12 16 18 18 16 19 21 20 21 19 16 14 7 5 8 15 18 23 25 20 16 13 16 14 21 21 21 19

GFSGL_500_spd_075.txt.gz
Wind_Speed
52 55 58 60 61 66 71 73 74 75 75 76 77 76 77 75 74 74 71 71 72 74 74 75 76 77 79 81 84 85 86 88 88 81 87 87 86 82 76 75 76 76 76
57 58 59 62 66 71 73 75 76 75 74 74 74 73 72 70 70 71 73 75 76 76 78 80 80 83 82 81 77 71 67 66 65 60 56 53 55 56 56 56 56 56 56
60 59 62 68 72 75 76 75 73 73 72 72 72 71 72 76 77 78 77 77 76 75 73 71 66 62 58 55 52 49 47 47 47 45 42 46 48 48 49 46 46 47 47
63 66 70 74 75 76 73 70 69 70 71 72 75 76 77 75 74 70 66 63 58 56 53 50 44 43 44 45 46 45 45 44 44 43 42 42 42 40 41 41 42 43 41
67 70 74 74 73 71 68 68 70 72 72 71 68 65 62 62 59 56 53 50 46 43 41 43 45 47 47 44 42 40 38 36 37 37 38 37 36 35 34 38 36 34 33
73 75 75 75 69 66 69 70 69 65 62 59 57 55 50 45 41 40 41 40 42 44 45 45 42 38 35 34 33 34 35 36 38 38 36 35 32 31 34 36 37 37 36
74 73 69 66 66 68 69 64 58 57 54 50 44 39 39 40 40 41 43 45 44 40 37 35 33 33 32 33 33 34 36 37 39 38 36 34 31 27 35 37 37 38 39
70 66 66 66 67 64 58 56 52 49 42 36 39 41 41 43 43 41 39 37 35 34 36 34 34 34 34 36 37 37 37 37 36 37 39 37 35 31 34 37 38 39 40
66 65 65 64 58 53 52 49 44 35 35 38 41 44 43 39 36 33 32 33 33 33 34 36 36 35 33 33 35 35 35 33 37 39 42 42 41 40 37 38 36 37 38
64 63 58 53 49 49 46 40 31 34 37 40 43 42 37 30 29 28 30 32 33 31 28 30 32 33 31 29 31 32 32 28 28 28 30 33 36 32 34 34 37 38 40
58 52 47 46 46 43 35 30 32 36 39 43 39 35 29 27 24 26 30 30 28 29 30 32 32 33 33 32 31 30 27 23 22 20 21 23 21 24 33 34 38 39 40
47 44 43 41 39 32 29 31 37 39 42 37 32 29 26 24 28 27 24 24 29 32 32 31 30 32 30 27 24 20 16 18 17 19 21 23 32 39 46 42 41 41 41
42 40 37 35 31 29 31 35 38 42 36 32 28 23 24 27 25 20 18 24 28 30 30 28 27 27 21 17 12 11 12 16 18 19 20 23 27 30 32 32 34 35 36
37 35 33 30 27 29 33 38 41 37 31 28 24 25 26 22 21 16 19 23 27 29 29 27 23 17 13 9 10 14 15 15 12 12 15 16 15 18 23 24 23 26 29
35 31 28 24 26 29 35 40 37 32 27 23 25 25 21 18 12 14 19 24 27 29 24 21 17 13 12 13 15 12 9 8 8 9 8 6 8 9 10 12 17 19 21
32 29 23 23 26 30 36 35 34 29 26 27 25 21 17 12 11 14 19 23 28 29 23 19 16 13 14 13 10 5 5 4 2 3 5 4 6 4 1 4 7 9 17
29 24 22 24 26 33 35 30 23 24 27 23 21 19 14 12 12 15 19 23 28 31 25 20 18 15 12 11 3 5 1 6 6 4 1 6 10 11 9 8 6 6 12
27 21 22 25 27 35 33 26 21 21 20 19 21 21 15 13 11 14 18 23 28 29 30 22 19 16 11 5 3 4 7 6 7 4 8 7 5 3 6 6 3 4 8
23 20 23 25 29 35 30 22 21 21 16 17 21 19 13 11 10 15 19 22 27 31 30 26 20 17 10 2 5 7 7 7 6 4 7 7 9 10 6 8 9 18 15
21 19 22 26 30 33 25 21 21 18 14 16 15 15 14 12 12 16 18 22 25 29 32 29 21 16 10 3 7 10 10 8 8 9 13 12 12 12 14 16 16 18 15
20 20 22 28 32 29 22 20 19 15 13 15 12 13 12 11 10 15 19 21 24 27 30 32 23 15 10 1 10 10 14 11 13 12 14 16 15 19 15 19 22 21 13
20 19 23 28 31 25 20 20 17 14 12 15 12 10 11 12 15 18 19 20 24 25 28 28 25 15 9 3 9 9 18 14 16 14 15 15 13 11 13 18 22 24 22
20 19 23 27 28 21 20 19 17 13 13 15 9 8 12 15 17 18 18 17 22 24 26 27 26 16 8 4 4 15 20 16 18 17 13 15 17 14 12 11 16 18 19
19 18 22 26 23 19 19 19 15 12 12 13 7 8 13 15 16 17 18 18 21 22 25 25 24 20 9 5 7 16 22 18 22 18 14 11 13 15 10 11 14 15 14
17 18 22 23 19 18 19 16 13 12 12 9 9 11 13 15 19 20 19 17 21 20 21 22 21 21 13 7 6 8 22 20 17 18 14 13 12 12 10 7 11 11 14
15 18 21 19 17 17 16 14 12 12 11 9 11 14 15 16 18 20 19 18 20 23 20 20 18 16 17 11 5 7 10 24 23 18 13 10 11 13 14 14 14 13 16

GFSGL_500_spd_078.txt.gz
Wind_Speed
54 57 60 61 62 64 66 68 69 72 76 79 81 80 79 76 77 77 77 77 77 76 75 75 75 76 75 75 76 76 76 78 78 70 77 78 78 81 81 82 83 84 84
57 59 61 61 63 66 68 71 74 77 79 79 77 73 73 74 76 77 78 79 80 80 80 80 80 80 79 78 77 76 75 75 77 75 76 77 81 85 84 83 85 87 88
60 63 64 66 68 70 73 77 78 78 76 74 72 73 74 76 78 78 77 73 69 66 65 64 62 60 57 55 55 54 51 50 51 51 50 53 56 60 64 66 63 65 68
63 65 67 69 72 76 78 78 77 73 70 70 72 72 71 67 65 64 63 60 56 52 47 45 44 43 41 41 41 43 45 47 48 47 46 44 45 46 45 44 46 48 48
66 68 71 73 76 77 77 74 69 68 69 69 66 62 60 58 53 47 44 42 41 40 39 40 40 41 43 44 45 46 45 44 43 44 43 41 37 38 39 41 40 43 42
69 72 75 78 77 73 69 66 66 67 64 59 57 55 51 41 41 44 45 45 44 43 42 40 38 36 35 34 34 35 35 36 37 38 38 36 32 34 35 38 38 39 38
75 77 77 74 68 66 65 63 61 57 54 54 49 41 37 40 44 46 46 43 39 35 32 31 31 32 32 31 31 33 35 37 39 39 40 36 34 32 34 36 37 35 33
76 74 72 68 64 60 57 54 51 51 49 43 33 38 40 43 46 43 38 34 32 31 30 30 32 32 33 32 33 35 37 39 40 44 44 37 38 32 34 35 35 35 34
71 71 66 58 54 51 49 48 47 43 34 32 37 41 44 42 38 34 33 32 29 28 31 28 27 28 28 29 30 30 28 30 36 38 40 41 40 38 36 37 36 35 32
67 58 53 50 48 47 45 43 39 32 31 37 40 45 40 33 31 30 29 28 27 24 23 26 29 29 28 28 28 29 26 30 31 31 32 34 34 35 41 41 38 38 33
52 50 47 45 45 43 38 36 30 31 36 40 42 38 32 27 25 25 28 25 21 23 25 28 29 30 30 30 30 29 28 28 26 22 23 26 27 25 26 28 36 38 36
46 44 42 41 39 36 32 28 31 35 38 41 34 30 27 25 25 23 21 19 22 27 29 32 30 30 29 28 25 22 20 18 20 18 18 20 21 24 24 33 32 31 32
41 40 37 36 33 27 26 28 32 38 39 32 28 25 25 25 23 20 14 16 22 27 32 32 24 23 23 21 17 13 8 9 13 16 18 19 20 22 29 34 38 41 40
38 35 36 33 27 25 28 31 37 39 33 27 24 23 20 21 19 11 12 17 20 25 27 23 20 19 19 16 15 14 16 16 15 15 14 15 16 19 25 32 44 49 50
33 33 31 28 24 26 28 34 39 34 28 22 21 17 14 13 10 12 12 16 21 27 28 25 20 20 18 16 14 15 12 11 10 9 10 10 12 14 16 17 22 30 34
29 30 29 23 22 26 28 34 39 29 25 25 20 15 14 10 12 11 15 18 23 28 29 29 23 20 18 14 12 8 8 6 5 5 2 3 2 3 5 7 9 13 20
26 29 25 20 23 26 30 34 26 26 28 21 19 20 16 10 12 13 17 20 23 27 30 29 25 20 18 11 6 6 1 7 7 1 4 2 2 5 3 5 3 5 11
27 27 21 19 23 27 32 30 24 20 18 19 20 20 19 15 12 14 18 20 23 28 30 30 26 22 16 9 3 1 6 7 4 4 3 0 3 6 6 8 8 4 3
26 24 19 20 25 30 31 25 21 19 16 15 18 17 17 15 13 14 17 21 24 28 29 30 28 22 13 5 1 6 8 5 3 3 2 6 7 8 11 6 6 5 7
25 22 19 21 26 30 27 21 21 18 16 15 17 15 17 15 14 18 21 22 23 26 28 29 27 20 10 2 4 10 10 6 5 8 8 8 9 14 17 13 16 11 6
23 21 20 22 27 28 22 20 19 17 16 15 17 13 13 15 17 20 19 20 21 25 29 30 28 16 7 4 6 12 12 5 7 9 13 13 13 19 17 15 6 14 14
22 20 18 22 26 24 19 19 18 16 15 16 15 11 14 17 18 19 18 19 23 25 28 30 28 14 6 5 8 15 14 10 11 11 11 14 17 19 19 18 19 15 14
22 18 18 22 23 19 20 20 17 15 16 15 12 12 16 17 20 20 18 18 23 23 24 27 27 15 7 4 11 17 18 15 13 10 10 12 16 15 16 18 18 16 19
19 15 19 21 18 18 19 17 15 15 14 12 13 15 15 18 19 19 19 21 23 24 22 25 24 23 9 4 10 20 20 18 14 12 13 13 14 13 13 9 13 15 15
14 15 18 17 16 18 17 15 14 13 11 13 14 16 16 16 17 17 16 21 23 23 22 22 22 19 16 3 8 18 17 22 18 14 13 11 11 9 12 12 9 9 11
11 15 16 14 16 17 15 13 12 11 10 13 14 15 15 16 16 16 17 20 22 19 20 19 19 20 16 7 7 14 18 21 21 18 17 12 11 7 5 7 8 5 7

GFSGL_500_spd_081.txt.gz
Wind_Speed
50 54 58 61 62 64 66 68 70 73 74 77 79 81 82 82 82 81 78 78 78 79 82 85 85 85 83 81 81 80 79 81 81 69 73 73 73 74 75 75 74 77 78
56 60 63 64 65 66 67 70 72 75 77 79 81 82 82 80 76 76 76 78 81 82 80 75 70 69 67 66 66 64 63 62 64 68 73 77 78 79 80 77 76 75 75
61 63 64 65 66 68 70 73 76 78 79 80 79 75 73 73 74 76 78 76 71 67 64 58 53 51 48 45 44 44 46 50 51 50 49 51 57 65 71 72 74 77 77
63 64 66 68 70 73 76 77 78 79 78 75 72 71 72 72 71 69 65 63 56 46 43 46 46 45 42 41 41 41 41 41 42 43 42 42 44 47 49 50 52 53 57
66 67 69 73 77 79 79 78 78 75 71 68 68 67 65 61 59 57 50 43 42 44 46 47 47 45 44 44 43 43 43 43 44 46 46 46 46 47 47 50 48 49 46
69 72 77 79 79 78 76 74 69 65 64 61 58 55 54 53 46 38 43 45 46 47 43 40 37 35 35 34 35 35 35 36 38 39 38 36 33 33 34 39 42 42 40
75 78 80 78 76 72 67 62 60 56 53 51 51 50 45 36 40 43 47 49 44 39 34 32 32 33 34 33 34 35 36 37 40 40 40 37 35 32 34 36 39 40 39
79 77 75 72 65 58 55 52 50 49 49 47 44 39 35 40 44 48 47 40 36 33 32 31 31 29 28 27 28 30 31 33 38 44 46 42 41 37 37 37 40 42 40
77 71 65 58 53 50 48 48 47 44 41 38 34 35 41 45 48 44 39 34 29 29 30 29 24 25 26 29 31 31 29 30 35 38 40 39 38 39 41 40 38 38 39
66 60 54 49 46 45 43 45 42 36 30 31 34 41 45 44 39 34 30 27 27 26 22 23 27 29 30 30 31 31 29 31 35 35 37 35 35 35 35 37 41 43 39
56 50 47 44 43 40 40 38 30 27 30 34 40 43 39 33 27 29 30 28 22 18 20 24 29 32 31 28 28 28 27 26 29 30 31 32 32 33 32 32 34 36 40
49 45 43 43 40 38 36 29 27 30 32 39 39 32 30 27 27 26 25 21 17 18 20 26 29 25 23 22 24 25 25 23 21 23 23 24 24 25 25 24 24 21 28
46 45 42 36 35 33 28 26 30 32 38 38 29 26 26 26 24 19 11 10 14 18 24 26 29 25 22 23 23 23 22 20 16 14 17 20 22 22 21 23 25 22 25
43 37 30 30 32 28 25 28 31 35 37 30 26 25 22 20 18 12 13 11 15 19 23 27 28 27 23 22 23 23 23 20 20 17 16 17 16 17 18 22 32 29 31
30 29 27 31 29 23 25 30 32 36 29 23 21 17 18 20 17 16 13 14 18 21 23 26 29 28 25 22 22 22 19 16 13 11 8 10 13 16 19 20 23 32 37
28 27 29 29 24 22 25 29 37 33 25 23 19 17 15 14 12 14 14 17 18 20 25 28 30 29 27 21 20 16 11 12 6 2 1 6 8 4 3 7 12 17 24
27 27 29 24 21 22 27 31 29 28 30 22 18 19 17 14 13 12 15 16 19 23 27 28 31 29 26 18 12 8 4 3 4 1 3 2 1 0 3 8 10 9 13
29 29 26 23 22 25 29 31 26 23 21 20 17 17 16 17 15 14 15 20 23 25 27 30 31 27 22 12 4 3 6 6 4 4 4 5 6 8 11 12 16 16 13
30 27 24 22 22 25 28 27 24 23 19 17 17 18 15 16 15 17 20 21 21 23 25 30 28 24 14 5 2 7 7 4 5 5 3 4 6 9 11 9 11 8 10
28 24 22 20 21 25 26 24 23 21 18 16 17 15 15 18 19 20 20 19 20 24 24 28 27 20 10 0 8 12 6 5 5 6 4 6 7 12 3 8 9 16 6
25 23 20 19 22 24 22 22 21 17 15 14 14 12 15 16 18 20 19 19 22 23 22 25 23 17 10 2 13 14 8 4 8 8 8 7 14 16 13 12 12 18 4
23 21 17 18 22 22 21 21 17 14 13 13 13 13 15 17 20 20 18 19 21 22 22 21 22 20 14 1 15 14 10 7 9 11 9 9 11 14 14 11 13 17 14
20 17 15 19 21 20 20 17 14 12 11 13 14 15 16 17 18 18 17 20 22 24 21 21 20 19 15 4 15 16 12 8 6 7 10 9 9 14 15 17 15 13 13
14 12 16 18 18 19 17 15 11 10 11 13 15 16 16 17 18 19 19 20 22 21 20 19 21 16 12 6 9 20 16 11 8 6 7 11 10 9 11 15 17 15 12
9 12 16 16 18 17 15 11 10 11 13 14 14 15 17 19 19 19 18 19 20 20 19 18 16 18 11 6 6 18 20 17 12 10 8 8 9 9 10 13 14 13 11
11 14 14 16 17 14 12 11 10 11 13 14 15 17 17 18 19 19 19 18 18 22 23 18 16 13 11 6 5 16 20 19 16 12 10 7 7 6 5 8 12 12 10

GFSGL_500_spd_084.txt.gz
Wind_Speed
47 52 56 60 62 65 68 70 71 72 72 74 76 79 81 83 84 85 85 84 82 78 78 78 78 79 79 79 76 76 73 71 72 60 63 63 68 73 76 75 73 72 71
53 57 61 64 66 69 71 72 73 74 75 78 80 81 82 82 81 79 77 76 76 76 75 75 72 70 67 64 56 50 50 49 51 50 53 51 56 57 61 71 75 72 69
59 62 65 67 69 70 71 72 74 77 79 81 80 79 78 78 76 75 74 72 71 67 63 61 60 52 45 46 50 50 49 46 44 41 39 38 39 47 52 52 61 74 75
63 65 66 67 68 70 73 76 78 79 78 77 76 74 72 70 69 66 63 59 57 56 46 39 43 47 50 52 50 48 46 45 45 45 42 40 38 36 38 42 43 46 57
63 64 66 69 73 77 79 79 77 76 74 72 69 67 64 61 56 54 53 51 40 36 42 45 48 47 45 42 41 38 38 38 38 37 37 38 38 39 39 40 38 40 39
66 69 73 77 79 80 79 76 73 69 66 63 59 57 55 52 50 48 42 35 40 43 46 42 38 36 35 35 35 35 36 37 38 37 38 37 35 32 32 33 38 42 42
72 76 79 80 79 73 69 64 60 57 54 52 51 50 45 41 39 36 39 44 45 43 38 35 33 33 32 32 33 34 34 36 38 40 40 37 36 34 34 33 33 34 35
77 79 78 73 68 63 59 54 51 48 47 47 44 39 34 35 38 42 45 43 37 34 32 31 29 30 28 27 29 29 30 32 36 38 39 37 37 35 37 36 36 34 35
78 73 67 63 60 54 50 47 46 42 42 41 33 32 35 40 44 43 38 35 31 28 29 30 25 22 25 30 34 34 32 31 35 37 39 37 35 35 35 35 36 38 37
69 65 64 61 54 49 46 43 40 39 36 29 32 35 41 41 36 32 32 31 29 26 24 20 22 23 26 28 29 27 23 25 30 33 37 37 37 36 34 34 33 34 38
63 62 59 53 48 43 38 36 36 33 28 32 33 39 39 32 30 30 30 28 23 17 13 17 21 25 28 30 27 26 25 25 26 27 28 30 31 32 32 31 32 32 34
58 56 49 44 37 31 32 34 31 26 30 33 35 33 32 31 29 24 23 20 14 11 12 16 20 24 28 29 28 27 27 27 27 26 26 24 22 21 23 24 27 29 30
54 45 38 32 28 30 32 27 25 30 32 33 29 26 28 27 24 22 17 16 15 14 17 21 23 25 28 30 28 28 27 26 25 24 20 19 18 18 19 20 22 24 24
42 35 31 30 30 30 26 23 26 30 32 28 26 25 24 26 26 23 17 15 15 18 19 21 26 28 31 30 30 28 25 24 21 20 18 17 17 17 17 16 17 20 24
33 32 31 30 30 26 23 25 28 33 30 23 22 19 19 21 23 18 16 15 17 18 19 23 26 29 32 32 30 26 22 18 14 12 11 8 7 9 13 15 16 17 26
30 33 31 29 27 23 23 27 34 36 31 25 22 20 20 18 17 16 15 15 17 20 23 25 27 31 32 30 27 22 15 11 7 1 2 5 6 6 4 3 6 13 18
30 33 31 27 23 22 24 27 28 29 30 25 21 20 21 17 17 16 16 18 22 23 23 25 28 32 33 28 21 12 4 7 7 6 6 5 7 8 8 9 7 7 8
29 31 29 24 21 22 25 27 26 23 21 23 22 20 19 16 17 18 19 20 21 21 26 26 29 33 29 19 12 3 8 8 6 6 7 6 8 10 8 12 17 17 15
27 28 26 22 20 22 24 25 23 21 19 18 19 18 13 16 17 18 20 20 20 24 25 25 27 26 21 14 2 10 6 6 6 6 7 9 10 7 9 8 8 11 12
26 25 22 20 20 22 23 22 21 18 17 17 15 14 17 17 20 21 19 19 20 22 22 24 22 21 18 9 5 12 5 5 5 6 6 9 9 11 8 10 13 17 18
22 20 18 17 19 21 20 19 15 15 16 14 14 15 16 16 18 20 18 19 21 22 21 23 22 21 15 6 11 12 6 5 6 8 10 8 10 11 10 13 19 16 9
15 14 14 17 19 19 18 15 15 14 13 14 16 16 17 18 20 20 20 21 23 23 22 21 23 20 14 5 12 12 10 8 6 4 3 4 11 12 13 15 16 19 13
8 10 13 17 17 16 13 14 14 12 14 15 16 17 18 20 21 21 20 20 21 21 20 20 20 20 14 4 11 16 13 9 7 6 4 5 10 14 15 15 18 18 17
8 12 16 16 16 12 13 14 13 13 15 15 15 16 17 18 20 20 20 19 19 19 21 18 17 19 14 5 9 19 13 10 5 5 6 9 10 14 16 19 18 16 19
13 16 16 16 13 14 14 13 13 15 16 15 15 16 19 20 21 23 21 20 19 19 20 20 18 16 12 7 3 18 16 13 8 4 3 5 8 12 15 18 20 15 12
16 16 17 14 14 14 14 14 15 16 17 15 16 22 24 24 25 26 25 23 22 22 22 19 17 16 12 6 3 12 19 17 13 9 4 1 3 7 12 15 18 19 12

GFSGL_500_spd_087.txt.gz
Wind_Speed
38 43 47 52 57 61 65 68 71 73 74 76 78 79 81 83 85 86 87 87 87 87 85 83 81 78 75 71 69 67 66 66 66 55 56 49 52 55 60 66 70 74 79
44 49 54 59 63 66 69 71 72 74 76 78 80 82 85 85 84 83 83 82 80 77 73 69 66 63 60 59 58 53 49 47 47 44 45 48 46 43 42 47 56 61 60
50 56 61 64 67 68 70 71 73 76 79 82 83 83 81 79 78 76 74 70 67 63 60 57 54 54 48 41 44 46 48 49 50 49 46 45 41 38 37 35 37 46 55
58 62 64 65 66 69 71 74 78 81 82 79 76 73 72 70 68 66 64 61 58 55 52 50 43 39 42 45 48 48 46 43 42 40 37 36 37 38 39 38 34 33 40
62 63 64 66 68 72 76 80 80 77 73 70 67 65 62 60 58 57 54 50 45 42 39 37 40 45 47 46 43 40 38 37 37 37 35 32 31 31 30 31 32 36 32
61 62 65 70 74 78 80 77 73 70 66 63 59 55 52 50 49 44 40 35 35 37 39 42 44 42 38 35 34 34 33 34 35 35 35 32 31 32 30 28 28 31 33
62 67 71 75 79 78 72 70 66 62 57 52 49 46 43 41 35 33 37 41 43 42 38 34 33 31 29 28 30 31 29 30 33 35 36 33 31 31 32 30 30 31 31
68 72 75 79 75 69 65 63 58 51 46 43 40 39 33 31 36 38 43 41 37 34 31 28 26 26 27 22 22 26 31 33 36 38 38 35 36 33 33 33 31 33 32
71 74 77 70 65 61 59 54 47 39 36 35 33 28 32 35 40 41 38 32 32 31 30 27 22 17 17 20 24 28 28 26 29 32 36 36 36 34 34 34 31 31 30
73 73 65 60 58 54 48 40 32 32 31 26 26 32 36 38 38 34 32 27 25 25 24 19 14 14 16 21 26 29 28 26 25 25 28 28 28 28 30 31 32 31 29
71 61 57 53 49 43 37 33 32 28 21 26 29 33 35 35 33 29 27 23 20 15 11 11 13 17 21 23 27 29 30 29 27 28 28 28 27 27 26 26 26 29 30
59 53 49 46 40 37 34 32 26 20 24 27 30 31 34 32 31 27 25 23 19 18 14 16 18 20 23 26 29 32 32 32 31 29 29 26 26 23 21 20 19 22 26
49 46 44 38 37 34 32 25 21 24 27 29 29 29 29 29 27 27 24 19 18 16 16 19 19 22 25 28 33 34 34 33 31 27 25 23 21 21 20 16 16 17 19
44 41 37 33 35 31 28 21 22 25 27 27 26 26 27 27 26 25 23 19 18 18 19 19 23 26 28 31 35 37 35 31 25 22 18 17 16 17 18 18 17 17 16
39 36 32 31 31 27 24 23 25 28 27 24 22 21 22 23 25 23 21 18 17 18 20 23 25 27 29 34 37 34 28 22 16 12 11 9 6 6 8 11 14 15 12
34 32 30 28 27 22 21 24 30 29 28 25 22 21 23 23 19 18 18 18 19 21 22 22 25 27 31 35 30 22 17 10 4 4 4 4 4 3 5 6 6 6 11
31 30 27 25 22 20 21 22 23 28 28 24 22 22 22 18 18 19 19 20 21 21 22 26 26 27 31 28 22 13 6 10 11 9 6 5 6 8 8 7 6 7 9
28 27 24 21 18 18 20 22 23 22 23 23 23 20 19 18 18 18 19 19 20 21 24 25 26 27 27 25 16 4 6 7 6 5 5 7 8 6 8 11 13 16 14
25 23 19 16 16 17 19 20 21 20 17 18 20 19 18 19 18 18 18 18 20 22 24 24 25 27 25 20 6 11 4 4 5 6 7 8 4 6 8 11 12 16 21
17 13 12 12 14 17 20 20 18 17 16 15 17 18 20 20 21 23 22 22 22 24 24 23 24 27 24 15 4 10 4 4 5 5 4 4 2 2 6 11 16 20 17
6 6 9 12 15 17 19 17 15 14 13 15 16 18 18 19 21 22 22 22 22 23 24 23 23 24 21 11 9 10 6 2 5 4 4 7 8 8 10 15 16 19 17
9 11 13 15 17 18 16 15 13 12 13 14 16 18 20 21 22 21 21 21 20 19 21 21 21 21 20 10 10 13 7 2 1 3 5 3 9 12 12 17 20 18 11
15 16 16 16 16 15 16 14 12 12 14 15 17 19 21 23 24 25 26 24 21 19 20 20 19 20 18 10 7 14 11 5 1 4 6 8 11 14 17 15 19 16 12
17 17 18 17 15 16 14 13 13 14 14 14 18 21 24 26 27 29 30 30 26 22 20 21 19 18 17 11 4 19 15 10 5 3 4 7 10 13 17 22 15 16 16
18 19 18 16 17 15 13 14 14 15 16 18 21 26 29 30 31 31 31 32 29 25 22 22 20 15 15 12 4 16 19 14 9 4 2 3 8 12 16 19 22 19 9
19 19 16 16 15 14 14 15 16 17 17 21 25 27 28 31 33 34 33 31 26 22 19 20 15 11 12 13 5 10 23 18 13 8 4 0 4 10 14 19 24 20 6

GFSGL_500_spd_093.txt.gz
Wind_Speed
39 41 43 45 48 49 50 54 58 62 66 70 72 74 75 77 80 83 86 88 89 89 88 85 82 80 79 76 72 69 67 65 65 56 58 56 53 53 51 51 51 52 55
40 42 46 48 48 51 56 60 64 68 70 72 73 75 78 81 84 86 87 86 84 80 78 77 72 67 62 59 56 53 51 50 50 45 43 41 38 38 38 42 44 44 44
42 45 46 48 53 57 62 65 68 69 71 72 75 78 81 83 82 81 77 74 74 69 62 55 50 47 42 39 39 41 42 42 40 36 32 37 41 43 39 37 38 39 40
43 44 49 54 59 63 66 67 68 70 73 76 78 81 81 78 73 69 69 64 53 46 43 39 35 38 43 45 46 47 46 45 44 43 41 36 36 35 33 31 34 33 33
45 50 55 59 63 65 67 68 70 74 76 78 78 76 71 66 64 59 50 41 35 31 33 39 41 43 43 41 40 37 38 37 35 34 32 28 26 29 29 29 30 33 32
51 56 59 63 65 66 68 71 74 75 75 74 70 64 62 58 50 40 31 31 36 38 39 39 40 40 39 38 37 36 33 31 29 27 27 25 24 27 29 29 29 31 30
56 59 63 65 66 69 72 73 74 72 70 64 59 57 53 43 32 30 34 36 37 36 37 38 36 35 34 35 34 33 30 29 26 23 24 26 28 30 30 29 30 33 31
60 62 64 68 71 73 74 72 68 63 56 53 52 48 37 27 31 34 37 37 36 35 36 35 33 31 28 30 25 23 21 21 21 22 23 25 28 29 29 27 25 25 26
62 65 69 72 74 73 68 61 55 50 49 48 44 32 25 29 34 36 37 35 33 33 34 35 33 27 25 24 20 18 19 21 23 24 25 27 28 30 29 29 28 28 25
65 70 74 75 70 62 55 50 46 45 44 40 28 25 28 32 35 37 37 34 32 32 32 32 30 27 25 23 24 24 23 24 26 27 28 30 32 33 33 32 30 30 29
71 76 75 67 57 50 46 42 41 40 36 27 24 27 31 34 36 35 34 33 32 29 28 27 25 26 24 24 27 26 29 31 32 33 34 35 37 36 35 34 31 29 29
78 75 64 54 47 43 39 38 36 34 26 23 24 28 32 34 34 33 31 30 28 24 25 24 23 23 25 26 28 30 33 35 36 37 40 41 39 35 31 31 29 27 28
74 65 55 45 40 36 33 32 31 24 20 22 25 28 29 31 31 29 28 26 25 24 24 24 24 25 26 27 29 31 33 34 36 38 37 35 31 27 24 24 24 23 22
66 54 42 34 30 29 27 27 22 18 20 22 24 25 25 27 28 26 23 25 26 26 25 25 26 26 28 29 29 30 33 33 34 34 32 24 18 14 13 14 15 15 16
50 39 30 24 22 21 21 18 17 19 19 20 21 21 22 24 24 25 26 26 26 26 26 26 26 26 28 27 28 30 31 29 25 12 9 7 6 7 7 4 3 6 8
32 27 20 16 14 13 13 16 19 20 20 19 19 18 20 22 24 27 28 28 27 27 26 26 28 28 27 26 27 29 26 13 5 8 7 7 7 7 7 6 5 5 4
20 18 16 15 14 15 17 19 20 24 23 21 20 21 22 24 27 28 28 29 30 29 28 27 26 26 26 24 25 24 17 3 5 6 8 7 6 6 6 7 7 8 9
18 18 18 18 19 20 20 21 20 19 20 23 22 22 24 26 29 29 30 30 30 30 29 28 25 24 25 24 24 20 5 3 3 7 7 10 8 6 7 10 13 15 17
19 20 20 20 21 21 21 20 19 20 20 20 20 23 26 29 31 33 34 35 35 33 30 28 26 22 23 23 21 15 10 5 6 8 8 8 8 8 11 11 12 16 22
21 22 23 24 24 22 19 20 21 21 20 18 19 22 26 29 32 35 39 40 37 35 32 30 27 23 20 20 18 11 14 8 7 7 6 8 11 11 13 13 17 18 22
22 22 25 24 23 20 22 22 21 19 19 20 20 24 27 30 33 37 40 40 38 34 32 30 27 24 20 17 15 10 17 12 9 9 8 11 14 9 14 14 16 18 22
23 24 26 25 20 22 22 21 20 20 20 21 23 25 29 33 35 37 41 36 32 31 29 28 25 23 21 18 15 11 18 16 12 8 7 8 5 9 13 19 20 26 21
24 24 26 25 21 23 22 21 21 22 23 24 25 28 32 34 35 39 35 31 32 32 28 26 23 19 18 18 16 12 15 22 16 9 8 6 7 10 15 20 24 25 20
24 25 27 26 23 23 22 21 22 23 23 25 27 30 31 33 37 36 31 30 33 30 28 24 21 17 15 16 15 12 12 25 18 12 8 7 7 12 15 21 27 23 20
25 26 27 28 25 24 23 22 23 23 23 23 27 30 32 34 36 32 31 33 33 30 29 26 23 18 15 13 11 10 11 22 23 16 10 10 11 12 15 23 28 21 20
24 26 27 28 26 24 24 23 23 23 24 25 28 30 32 35 32 30 31 34 32 32 32 29 24 20 14 11 8 8 10 22 22 17 13 11 10 11 15 21 28 21 17

GFSGL_500_spd_096.txt.gz
Wind_Speed
35 38 39 41 44 46 49 52 52 53 57 61 64 67 70 72 73 74 76 79 81 84 85 84 79 77 76 70 63 58 53 51 47 36 40 40 40 43 45 48 48 48 50
36 38 41 43 47 50 51 52 56 60 63 66 68 70 72 72 74 77 79 82 83 81 75 71 67 58 49 43 39 37 36 41 43 40 39 38 35 33 35 33 33 34 37
37 40 43 47 49 51 54 58 62 65 67 69 70 70 72 74 76 78 80 77 72 67 61 49 39 34 34 37 39 41 42 43 42 39 33 33 35 36 36 35 38 39 39
39 42 45 47 51 56 60 64 66 68 70 70 72 74 75 76 76 75 71 66 61 49 35 31 35 37 39 41 41 40 40 41 40 38 34 30 30 30 29 29 31 31 31
40 42 46 52 56 60 64 66 69 70 71 73 74 73 73 71 69 64 61 54 38 29 31 34 36 38 39 39 39 37 37 37 37 35 31 27 24 24 26 27 25 28 30
41 47 52 56 60 64 67 69 71 73 74 72 71 68 65 60 57 55 45 29 28 31 32 33 35 36 37 37 36 36 36 36 31 30 26 25 21 19 22 23 26 29 28
47 51 56 60 64 67 71 74 75 74 71 67 62 58 52 51 48 35 26 28 30 31 32 34 34 36 37 36 35 32 33 28 23 21 18 18 20 22 22 22 24 25 25
52 55 59 63 68 73 77 78 74 69 61 56 50 47 45 41 30 27 29 31 32 33 34 34 35 35 35 34 29 29 27 23 22 21 21 21 23 23 24 24 26 24 23
53 58 63 69 76 80 79 71 62 55 49 44 42 39 36 27 26 30 31 32 31 30 33 34 34 33 33 30 27 25 23 25 26 25 25 26 27 28 30 31 31 29 27
56 62 70 76 80 76 68 57 48 44 40 37 34 33 26 24 29 31 31 29 29 29 31 31 30 29 27 26 25 25 25 27 27 28 30 30 31 33 35 37 37 35 32
62 68 74 73 69 61 49 41 36 34 32 31 27 22 23 27 30 30 28 27 27 25 26 26 26 26 26 26 27 27 29 30 31 32 33 34 35 36 38 41 42 38 35
67 70 63 56 47 39 32 26 26 25 24 21 18 21 25 28 29 27 26 27 27 24 25 24 24 25 26 27 27 27 29 30 32 33 35 37 39 40 38 36 35 34 32
66 60 42 32 27 24 19 17 16 15 15 17 20 22 25 26 25 25 26 25 26 27 27 26 26 26 27 27 28 29 28 29 32 32 33 34 33 29 26 24 25 24 23
60 39 29 23 19 17 16 16 16 16 17 20 21 22 23 25 26 26 25 26 28 28 28 29 28 27 28 28 28 29 30 32 31 26 16 12 12 11 11 11 10 9 11
43 27 26 23 20 19 19 19 20 20 19 19 20 20 22 25 26 26 28 30 30 30 30 31 30 30 29 27 27 28 27 29 21 6 8 10 10 11 12 11 9 3 3
28 24 24 23 23 22 22 23 23 21 22 21 20 19 21 23 25 28 31 32 35 35 34 34 33 31 29 26 24 24 24 24 7 8 8 9 9 9 8 8 7 6 4
24 23 23 24 25 25 26 25 24 26 24 24 23 23 23 25 28 30 31 34 37 39 38 35 33 31 29 26 22 20 21 16 7 6 6 8 9 9 7 6 7 8 9
23 23 25 26 27 29 28 25 22 22 25 27 26 23 24 26 29 31 34 37 41 42 40 38 35 32 29 26 22 18 18 11 9 7 6 8 7 8 8 9 8 8 11
22 23 27 28 30 28 25 22 24 25 25 24 24 25 25 29 31 35 38 41 42 40 35 33 32 30 28 25 21 17 15 12 12 8 7 7 9 11 12 13 15 16 16
24 25 28 29 29 28 23 24 26 24 24 23 24 24 27 31 33 37 40 41 41 34 33 34 31 28 25 23 20 16 13 15 15 11 8 7 10 12 10 10 12 15 18
25 26 27 28 29 27 24 26 25 24 24 25 25 26 28 30 34 35 38 41 36 33 35 33 29 27 24 21 20 15 13 15 19 14 11 10 10 5 9 14 17 20 23
26 26 28 28 28 26 24 25 25 24 25 25 27 27 29 31 34 36 38 35 34 35 35 31 29 27 24 19 17 18 16 13 22 16 11 10 9 9 10 15 20 25 25
27 26 26 26 27 27 25 25 25 25 25 26 26 27 30 32 34 37 34 34 34 36 33 32 30 27 22 18 14 16 17 15 24 19 12 10 9 10 13 17 22 28 20
28 26 24 24 26 28 27 25 26 26 26 27 27 30 32 32 35 35 34 34 37 37 36 37 34 27 21 18 15 15 16 16 23 21 14 10 10 11 14 16 21 28 24
30 27 25 25 25 26 27 26 25 26 27 28 28 30 30 31 34 32 33 36 37 37 37 33 27 24 17 16 13 10 11 13 21 21 14 12 11 11 13 15 20 23 24
34 29 27 25 24 24 25 27 27 27 28 29 29 28 28 30 31 32 35 38 38 38 35 27 24 20 18 9 9 4 6 10 17 21 17 13 13 13 14 16 20 22 23

GFSGL_500_spd_102.txt.gz
Wind_Speed
34 32 32 32 33 35 38 41 43 46 48 51 52 55 59 63 67 69 72 75 77 78 78 78 77 76 76 77 78 77 73 70 65 51 42 44 45 46 46 47 48 49 47
28 28 30 32 36 39 40 43 46 48 50 54 58 62 66 69 73 76 79 81 82 81 79 77 76 75 74 71 66 63 57 44 38 37 41 44 45 46 47 48 48 48 49
26 29 33 36 38 39 43 45 47 52 56 60 63 66 70 74 78 81 84 85 84 80 76 72 68 65 59 57 50 38 39 40 40 37 38 41 43 43 45 44 45 46 48
29 32 34 36 39 42 44 48 53 56 59 62 66 70 74 78 81 83 83 80 74 66 60 56 53 51 44 35 37 39 41 41 42 41 41 44 44 42 43 44 44 45 45
29 31 35 37 39 43 48 51 55 58 62 66 71 74 76 76 77 75 70 59 51 47 45 44 42 30 33 34 36 38 39 38 39 40 41 41 39 38 39 37 36 36 37
31 33 34 37 42 47 51 55 59 63 68 71 73 72 68 65 61 55 45 39 38 37 36 27 29 32 33 33 35 36 34 34 34 35 35 34 33 32 31 30 28 27 26
30 32 37 41 46 50 54 59 64 69 71 72 68 61 50 41 37 33 30 28 25 21 24 27 28 31 32 33 33 30 29 30 32 32 30 29 29 30 31 30 31 30 28
31 35 40 44 49 54 59 65 69 72 73 66 54 40 29 24 21 20 19 19 21 24 26 27 28 30 32 32 31 30 28 27 31 31 30 30 30 32 32 33 33 33 32
33 37 42 47 53 59 65 71 74 73 62 47 36 27 26 24 23 22 22 21 21 25 28 29 29 27 28 30 32 30 29 29 31 31 30 31 33 36 36 36 37 39 39
35 40 45 52 59 64 69 73 72 52 37 28 28 28 25 23 23 24 24 22 23 25 26 29 29 29 29 31 33 34 33 33 32 31 32 32 33 35 37 38 40 41 42
38 44 50 56 60 68 68 60 40 30 26 26 27 29 27 26 24 24 23 24 25 25 26 29 31 32 32 33 34 37 38 36 33 33 32 32 33 33 36 40 41 43 46
42 47 52 58 64 64 52 33 28 26 27 27 28 29 29 28 27 26 27 27 28 28 28 29 30 32 35 36 37 39 41 39 36 34 32 31 30 29 21 19 24 30 32
45 51 56 60 61 56 34 29 28 29 29 28 29 29 31 32 31 29 29 30 30 31 30 31 32 35 37 38 40 42 41 38 36 33 30 29 26 16 17 17 20 22 20
48 55 58 62 59 45 30 30 30 30 30 31 32 31 30 32 32 32 33 34 34 33 32 34 37 39 41 40 42 42 40 38 35 32 28 26 19 17 14 15 14 12 15
51 57 59 61 53 38 32 32 32 31 30 31 32 30 28 30 34 33 33 33 34 34 35 37 39 40 41 40 38 36 35 35 34 31 27 25 18 17 16 16 14 12 9
53 58 61 59 50 37 34 33 33 31 31 29 25 26 29 31 30 30 31 32 33 34 34 37 38 40 38 35 35 37 36 32 30 28 25 24 20 17 15 14 12 13 14
54 59 62 56 48 38 35 32 30 33 32 27 26 28 28 28 27 27 29 30 32 32 34 36 38 38 36 35 37 34 31 29 27 25 24 23 21 17 15 13 13 15 14
55 59 62 53 45 37 33 30 29 29 30 30 29 28 26 26 28 28 28 28 31 34 35 37 37 37 37 37 35 31 29 28 24 22 23 21 21 15 11 10 11 11 9
55 60 62 52 44 36 32 29 28 28 27 26 27 28 26 27 28 29 29 31 34 36 37 37 38 38 40 38 34 31 29 26 23 22 22 20 21 16 12 10 7 7 12
56 61 62 52 44 37 32 29 27 26 26 24 25 25 25 27 29 30 33 34 35 36 37 38 39 41 39 36 35 33 28 25 21 21 22 21 23 17 14 13 13 11 14
56 62 62 52 42 36 31 28 26 25 25 24 24 24 24 24 26 28 30 31 33 35 39 42 43 42 41 38 31 27 24 20 18 20 21 22 23 19 15 13 12 12 14
56 61 60 50 39 37 31 27 26 25 23 23 24 25 24 24 25 26 28 30 35 40 42 41 40 35 29 25 22 21 20 17 16 18 19 23 24 20 17 14 12 12 13
55 59 59 48 38 36 35 27 25 25 24 23 23 23 23 23 24 26 29 35 39 37 37 36 29 27 26 25 20 17 13 10 11 16 16 23 23 18 16 14 13 13 13
53 58 58 49 38 35 36 29 25 24 23 24 25 25 23 22 24 28 34 35 35 36 35 34 30 25 21 20 19 12 6 8 5 11 10 21 20 16 14 13 13 14 16
50 55 57 49 39 35 37 31 25 24 24 24 25 24 21 22 27 32 33 33 34 34 33 30 24 17 18 16 13 9 7 3 2 6 10 21 17 14 13 12 12 15 19
48 53 56 49 39 34 36 32 25 24 24 24 24 20 20 24 30 30 30 32 32 31 29 25 21 19 16 14 12 12 11 9 6 2 12 14 13 14 13 13 16 20 24

GFSGL_500_spd_105.txt.gz
Wind_Speed
28 31 34 32 30 29 29 32 35 37 39 42 45 47 50 55 58 61 63 66 69 73 77 80 83 84 84 81 77 73 68 66 61 55 55 50 43 42 43 44 45 46 47
27 27 28 28 30 31 35 37 39 41 44 45 48 53 56 59 61 64 68 71 74 76 78 80 80 77 68 61 57 52 50 50 44 31 35 38 41 43 43 42 42 42 43
22 25 27 30 33 35 36 39 42 42 46 52 56 58 61 64 67 71 73 75 74 74 72 71 62 51 45 44 43 44 41 33 36 35 35 38 40 42 43 43 45 45 44
23 26 28 31 33 35 38 39 43 49 54 57 60 64 68 72 75 75 75 72 67 61 55 46 39 35 34 31 28 30 32 33 35 35 36 37 37 39 40 42 42 41 40
24 27 29 31 34 35 38 44 49 53 57 61 66 70 75 78 78 76 70 61 50 40 31 25 24 26 28 29 27 29 31 33 34 34 34 34 32 34 36 36 34 35 34
26 28 31 33 33 39 44 49 52 56 61 67 71 76 81 82 78 68 58 42 29 26 26 26 28 29 30 31 32 32 33 33 32 32 33 33 31 32 33 32 32 32 33
28 29 30 32 37 42 46 50 55 61 65 69 75 80 82 74 62 50 35 26 26 26 27 29 29 30 32 31 33 34 34 34 34 34 33 32 32 32 32 32 34 34 34
27 27 31 36 40 44 48 54 59 63 69 75 78 77 62 48 37 28 28 28 26 28 29 30 31 32 33 32 32 33 33 33 34 35 36 35 33 33 33 34 34 34 35
25 29 33 37 41 46 52 56 62 68 71 71 64 45 36 28 28 28 29 28 28 28 31 32 33 31 32 33 32 32 34 35 36 37 37 37 37 37 35 34 34 34 35
26 30 34 39 44 50 55 59 65 68 67 52 38 33 32 31 31 30 30 31 30 29 31 33 36 35 34 34 35 34 33 35 37 40 40 41 40 38 37 35 34 34 36
28 32 37 42 49 54 59 65 67 64 56 40 36 34 33 33 33 32 32 31 31 30 32 34 36 36 36 36 36 36 38 39 39 41 42 41 39 37 35 33 30 26 22
31 35 40 46 53 58 63 69 65 59 44 37 34 34 35 34 35 35 34 34 34 33 33 34 36 37 37 38 39 40 43 43 43 44 41 38 36 33 31 28 21 20 22
34 38 43 50 56 62 67 68 62 52 41 37 35 34 35 38 38 36 35 33 34 35 36 36 36 36 37 38 39 41 43 44 42 39 37 36 34 32 29 24 20 18 19
36 41 46 53 59 65 69 65 57 46 39 35 34 34 35 36 36 32 32 33 35 36 35 35 35 36 36 38 39 40 42 40 38 38 37 33 31 30 27 21 21 19 18
38 43 49 56 62 69 70 61 50 41 36 32 32 33 33 32 31 32 33 33 34 34 33 34 34 36 38 39 41 41 39 38 38 38 33 30 28 28 27 21 22 19 17
40 45 52 58 65 70 63 53 45 35 32 29 29 30 28 28 30 31 31 30 32 32 31 32 34 37 39 40 41 39 39 39 38 34 30 27 25 25 25 22 21 18 15
41 47 54 60 66 66 57 46 37 33 29 27 28 28 26 26 27 27 27 29 30 30 31 34 37 39 40 41 40 40 40 40 36 32 29 26 23 23 23 23 20 17 14
42 48 55 61 66 64 52 42 34 29 29 31 31 29 28 28 27 25 26 28 30 31 32 35 36 38 40 41 42 42 40 36 34 30 27 22 22 23 22 22 17 14 10
43 49 56 62 66 59 46 40 34 29 28 28 30 30 27 27 26 26 26 27 29 31 33 36 39 41 43 43 43 41 39 36 33 30 25 21 21 22 22 21 17 14 12
43 50 56 62 64 55 43 39 36 29 29 28 28 28 28 28 28 29 29 29 30 31 34 38 41 41 41 39 35 31 29 25 24 22 21 20 21 21 24 21 18 15 17
43 49 56 61 61 52 41 38 38 29 27 27 27 27 27 26 26 25 26 27 30 34 36 36 39 38 36 29 29 27 24 22 21 17 16 16 19 23 25 21 18 17 17
42 48 54 59 60 53 41 38 39 29 25 26 26 26 26 24 22 23 26 31 34 34 37 38 38 34 29 23 23 22 21 18 13 10 11 13 16 24 24 21 18 15 15
41 46 52 57 58 52 42 39 38 29 25 25 25 27 26 23 23 27 32 31 33 36 37 35 30 24 22 23 22 20 15 10 9 7 5 10 12 23 22 19 17 16 15
40 45 49 54 57 51 42 39 37 29 26 26 26 27 24 23 27 31 30 32 34 33 31 30 27 23 21 21 19 19 15 11 7 2 4 4 13 20 18 16 16 16 16
38 43 47 52 56 52 43 38 36 29 26 26 27 24 22 26 30 28 31 30 30 28 27 27 27 25 21 20 18 17 15 12 8 4 2 4 16 17 16 15 15 15 16
37 41 45 49 54 51 44 37 35 29 26 27 24 21 23 28 26 27 28 28 27 22 23 24 26 26 25 24 24 23 20 19 16 11 4 7 12 11 14 16 17 19 22

GFSGL_500_spd_108.txt.gz
Wind_Speed
46 21 22 24 20 18 19 21 23 25 28 31 34 37 39 43 48 51 54 57 60 63 66 69 71 72 73 72 70 69 61 51 41 35 35 37 34 33 36 37 38 37 37
26 24 21 20 21 22 24 26 27 29 32 35 37 42 46 48 51 55 59 63 67 70 74 75 73 70 67 62 51 34 26 21 19 20 24 28 30 34 36 38 39 38 38
19 19 19 20 22 25 27 29 32 33 34 40 44 47 49 53 57 61 65 70 74 77 78 73 67 62 51 34 22 22 25 24 23 23 25 29 32 34 34 35 36 36 37
18 20 22 24 26 27 30 31 32 36 41 46 49 53 56 61 65 69 73 76 78 78 70 63 55 42 27 25 24 23 24 26 28 29 30 32 33 34 33 34 34 34 33
19 21 23 24 27 30 31 32 37 43 47 50 55 59 63 67 70 73 76 78 74 61 54 45 34 26 26 25 25 26 26 27 29 31 33 34 35 34 34 34 33 34 33
21 22 24 26 28 29 31 37 42 46 50 54 58 62 66 71 74 75 76 68 51 44 35 28 26 28 28 27 28 29 28 29 30 32 33 35 36 36 37 37 37 36 34
23 25 27 28 28 31 36 41 44 49 54 59 65 69 74 77 76 74 61 45 38 28 27 28 31 31 30 30 31 32 33 33 34 36 35 36 38 39 38 39 39 37 34
25 25 25 26 29 35 40 45 50 55 60 65 70 74 79 78 72 58 44 39 34 32 31 31 33 33 34 33 34 34 35 36 37 37 38 39 39 40 42 41 41 38 36
26 24 25 29 34 39 43 48 52 59 65 70 75 81 80 72 55 43 39 37 35 34 33 34 35 36 36 38 38 36 36 37 39 38 39 39 41 43 43 41 38 37 36
22 23 27 31 36 41 46 50 57 64 70 76 82 82 73 56 44 41 38 37 35 34 34 34 36 37 38 40 41 40 38 39 40 39 40 42 44 44 43 41 35 32 32
21 25 29 33 39 44 48 54 62 69 75 81 83 75 61 46 42 41 39 37 36 36 35 35 36 38 40 40 41 41 41 42 41 41 42 43 44 44 42 39 35 31 29
23 26 31 36 41 45 52 58 66 72 79 81 70 58 46 40 39 38 37 38 39 38 35 35 36 37 39 40 40 41 42 42 43 43 43 42 41 39 37 37 34 30 27
24 29 33 38 43 49 55 62 69 77 80 68 52 41 37 36 36 35 36 35 34 33 32 32 35 36 36 36 37 38 40 41 42 42 43 40 39 38 38 34 32 29 25
27 31 35 40 45 51 59 65 72 78 68 52 40 34 31 32 33 34 33 30 28 31 32 32 33 33 33 34 35 37 39 40 42 43 41 39 38 38 35 31 29 27 22
29 33 37 41 47 54 61 68 74 71 53 41 33 30 28 29 31 31 30 30 31 32 31 31 33 33 34 36 37 40 41 42 42 41 40 39 38 37 33 29 27 26 22
31 34 38 42 49 57 63 69 73 62 48 37 30 27 27 27 26 25 27 29 31 31 31 32 34 35 36 38 40 42 43 43 43 43 42 40 36 33 30 27 26 25 20
32 35 39 44 51 57 64 69 64 53 48 37 30 28 28 29 26 25 26 28 29 30 32 34 36 37 39 39 41 43 44 46 47 45 42 37 32 30 26 25 24 23 21
33 35 39 44 52 58 64 67 61 46 43 36 30 27 27 29 28 27 26 27 28 29 29 31 33 36 39 42 43 43 42 40 38 37 36 33 30 26 23 23 23 23 20
33 35 39 45 51 57 63 64 56 48 41 30 28 28 27 29 29 27 26 26 26 29 33 37 39 40 40 41 41 39 33 29 28 26 23 21 21 22 20 22 22 22 19
33 36 40 44 50 56 61 62 55 47 37 28 27 28 30 31 30 28 27 27 30 33 34 38 41 42 39 33 30 27 26 27 26 23 20 19 16 17 18 20 23 21 19
33 35 39 43 49 54 59 60 53 44 33 27 26 26 27 27 25 25 27 31 32 35 37 36 32 27 24 25 26 24 23 23 21 16 14 11 12 11 16 20 22 21 19
33 35 38 42 48 52 56 58 49 41 31 27 27 27 28 24 24 28 29 31 33 33 31 29 29 27 26 24 24 26 20 19 15 13 11 9 4 10 11 22 21 19 17
32 34 37 41 46 50 54 56 49 41 31 27 27 28 25 24 28 28 29 30 30 27 28 28 28 27 25 25 25 23 22 20 17 12 7 5 3 7 14 20 18 17 17
30 33 36 40 43 49 52 54 50 41 33 27 27 27 24 25 28 26 27 26 25 22 24 26 27 26 26 26 26 24 20 17 15 11 7 8 7 4 17 16 15 15 15
29 33 35 38 41 46 50 52 50 41 35 27 26 26 25 27 25 25 23 22 22 20 23 25 24 24 24 24 25 25 25 22 18 13 9 7 2 6 11 12 14 15 17
28 31 34 36 39 43 48 50 50 42 36 29 25 25 24 26 23 22 19 19 20 21 22 23 24 25 24 24 23 23 22 21 19 17 15 11 7 10 13 15 18 20 22

GFSGL_500_spd_114.txt.gz
Wind_Speed
28 28 32 33 31 30 36 24 13 12 10 10 13 14 21 28 27 31 32 36 42 46 50 53 55 58 61 64 67 70 74 76 77 78 83 85 77 66 55 38 32 30 30
27 30 35 39 30 25 14 8 9 12 14 17 19 21 24 27 30 34 37 41 46 50 53 57 60 63 67 70 72 75 77 80 78 77 77 67 54 44 34 33 32 31 31
27 20 22 13 10 12 8 12 14 15 18 20 21 23 26 31 34 38 43 47 51 55 59 63 66 69 73 76 76 77 77 76 72 67 58 47 37 35 34 33 34 34 34
24 13 10 10 12 12 14 14 17 18 19 21 24 28 32 36 40 44 48 54 58 62 66 69 72 73 74 75 72 68 68 65 61 51 38 34 35 35 34 35 36 38 38
8 11 12 12 13 15 18 19 20 20 21 25 28 32 37 41 45 50 55 60 64 67 71 71 68 63 59 58 58 55 54 50 41 34 34 34 33 35 36 38 39 40 40
11 13 14 15 16 18 19 19 19 20 24 28 32 37 41 46 51 57 61 67 72 76 73 65 56 49 49 47 44 42 40 34 32 33 33 34 35 37 37 39 40 40 39
15 17 17 19 19 18 17 18 20 23 28 32 36 41 46 53 58 63 70 74 74 69 59 48 44 42 40 38 36 37 35 33 33 35 35 36 36 36 37 40 41 41 41
18 19 20 19 19 18 19 20 23 28 32 36 41 47 53 58 65 71 74 73 64 54 46 39 35 35 34 32 33 35 34 34 36 38 38 37 38 38 39 41 43 43 42
19 20 20 19 17 16 18 22 27 31 36 41 45 51 57 63 69 73 73 63 49 42 38 35 33 33 34 33 34 34 34 35 38 39 40 40 40 41 41 43 43 44 42
19 19 17 14 14 17 21 25 29 33 39 43 49 54 60 66 71 72 65 50 40 37 36 35 34 33 34 34 35 36 35 37 38 39 40 42 43 43 43 44 45 43 42
19 17 14 14 16 19 23 27 32 36 41 46 50 56 62 68 72 67 52 38 35 37 37 37 36 35 34 34 33 33 33 34 34 35 38 41 43 43 43 43 43 42 40
17 15 14 16 18 21 25 29 33 37 42 46 52 58 63 69 69 58 41 34 35 36 36 33 33 33 33 33 33 34 34 35 34 35 36 39 40 40 41 41 41 41 41
17 14 15 17 20 23 26 30 34 39 44 48 54 59 64 70 64 49 36 34 37 37 35 31 30 30 30 31 33 34 35 36 37 38 38 39 40 41 41 41 42 42 42
19 15 16 19 22 25 27 31 35 40 45 50 55 59 65 67 53 38 34 35 38 38 37 35 34 33 32 31 32 34 36 37 39 40 40 41 41 42 43 43 43 43 41
19 17 17 20 24 25 28 31 35 40 45 50 54 58 62 57 43 35 35 35 36 35 32 31 32 32 33 35 36 37 38 39 40 40 41 42 43 44 44 45 44 43 41
19 18 19 21 24 26 28 31 35 39 44 49 52 56 59 48 37 34 34 35 34 32 31 32 34 36 37 38 37 36 34 33 32 33 34 36 38 39 38 38 38 39 38
19 19 20 21 24 26 28 32 37 40 45 48 51 54 55 44 36 35 35 33 31 33 34 35 35 34 32 30 28 26 27 29 30 30 29 29 29 28 28 28 29 30 29
20 20 21 22 24 26 28 31 36 40 45 47 49 52 51 41 35 35 33 31 31 32 31 31 31 31 29 28 26 26 33 33 32 29 26 28 28 25 22 22 22 22 22
21 20 20 22 24 25 27 30 34 38 42 45 48 50 49 40 32 32 31 31 30 29 29 28 26 26 26 27 31 33 30 29 30 28 24 23 22 18 17 20 18 15 16
22 20 20 22 23 25 26 29 32 36 41 44 47 49 49 40 32 30 29 28 25 26 25 25 24 25 27 29 30 31 30 29 27 28 24 20 18 16 13 12 12 11 11
21 20 20 22 23 24 25 28 32 36 40 42 45 47 46 38 30 28 27 27 22 23 23 22 22 23 25 26 28 28 28 28 26 22 24 21 19 16 12 8 4 2 7
21 19 20 22 23 24 25 28 31 34 38 41 44 46 45 38 29 27 26 24 20 20 19 18 18 19 22 24 27 30 30 28 27 24 20 20 21 15 10 8 7 4 7
20 19 20 21 23 24 25 27 30 33 37 40 43 45 45 40 30 26 25 22 18 18 16 15 18 20 22 26 29 31 33 32 26 24 22 20 17 16 11 5 1 7 9
19 18 20 21 23 24 25 27 29 33 37 39 42 44 45 40 30 24 23 21 17 16 14 15 17 19 23 26 26 29 29 31 33 22 19 18 16 13 10 6 6 9 11
17 17 19 20 22 23 24 26 29 33 36 38 41 44 44 41 31 23 22 20 17 15 13 14 17 19 25 26 27 28 29 30 32 28 21 17 15 13 12 10 10 15 19
16 17 18 19 21 22 23 26 29 32 35 37 39 43 44 41 32 24 21 21 18 16 14 14 17 19 24 24 26 28 29 29 30 30 22 17 15 14 12 11 12 13 16

GFSGL_500_spd_117.txt.gz
Wind_Speed
28 29 33 33 27 27 28 29 28 21 6 7 7 10 13 16 22 20 22 26 30 35 39 42 47 51 56 59 64 68 72 76 80 82 85 89 92 92 92 93 92 89 78
26 27 24 24 29 33 18 8 10 7 8 12 12 13 15 16 18 22 27 31 34 38 43 47 53 58 62 66 70 73 78 83 87 90 92 94 95 94 90 85 75 65 52
22 27 28 24 18 9 5 4 6 9 13 14 15 16 16 19 22 27 31 36 40 45 50 54 58 62 67 71 75 79 84 91 94 95 93 92 87 81 73 63 56 44 32
29 26 27 19 8 9 10 11 13 14 15 15 15 18 21 24 27 32 36 41 46 50 54 58 63 67 71 74 76 80 83 85 85 84 80 72 66 60 54 43 36 32 33
14 10 9 7 10 13 13 15 16 16 16 14 17 20 24 28 32 36 40 44 49 54 59 63 66 67 65 67 69 71 73 73 70 63 57 52 45 37 33 31 32 34 35
8 10 12 14 15 16 16 16 18 17 16 16 20 24 27 31 35 39 42 49 54 58 63 64 62 58 53 50 50 53 52 50 48 45 39 35 31 30 29 33 36 36 37
12 13 15 16 17 18 18 18 18 16 17 19 23 26 29 33 37 41 47 53 58 63 65 59 48 40 40 40 39 38 38 39 39 37 34 33 32 31 33 35 37 39 39
15 16 18 19 19 19 17 17 15 17 19 22 24 28 32 35 42 47 52 58 62 63 55 43 37 37 39 39 38 37 37 37 37 36 36 35 34 33 35 37 39 40 41
18 18 19 20 19 17 15 15 17 19 22 24 28 31 35 39 46 50 55 59 62 56 46 37 35 38 39 39 38 36 37 38 38 38 38 37 36 37 38 38 39 41 42
20 20 19 19 16 14 15 16 19 22 24 27 30 33 36 42 48 50 55 60 59 51 38 37 38 38 39 39 37 35 33 35 35 36 36 37 39 40 40 40 40 41 42
22 22 20 16 15 15 16 18 21 22 25 28 30 34 38 44 49 51 55 58 50 38 35 38 40 40 38 38 38 36 35 34 34 35 36 36 37 38 39 40 41 42 42
21 21 19 18 16 16 17 19 21 23 26 28 32 36 40 45 49 51 55 56 48 36 36 40 41 39 37 37 38 38 37 37 36 35 36 37 37 38 38 38 39 40 41
21 21 20 19 19 18 18 20 21 23 26 29 33 37 40 45 48 51 54 55 46 38 38 39 39 37 35 35 36 37 38 39 39 38 38 37 38 39 39 39 39 40 40
23 21 21 20 20 19 19 20 22 24 27 30 34 37 42 46 48 51 53 50 44 39 38 37 36 37 38 39 38 37 36 35 34 35 36 38 39 40 40 41 40 40 40
24 22 22 20 21 21 20 20 22 25 28 31 34 37 43 46 47 49 51 46 39 37 37 36 37 37 37 38 36 32 30 29 30 33 33 33 31 31 32 35 39 41 41
24 23 22 21 20 21 20 21 22 25 27 31 34 37 42 45 47 49 49 42 37 36 35 34 33 34 34 31 28 30 32 36 36 33 34 33 31 30 29 33 34 32 31
23 23 23 22 21 20 20 21 22 25 27 30 33 37 42 45 47 48 47 38 35 34 32 30 30 29 28 28 30 32 34 34 33 32 33 32 29 26 30 30 27 25 24
24 23 24 22 21 20 20 21 23 25 27 30 33 37 42 45 46 47 45 36 32 31 28 27 27 24 25 27 29 31 32 32 32 32 32 32 29 25 25 23 20 18 19
24 24 25 23 21 21 21 21 23 26 29 32 34 37 40 44 46 45 41 33 30 28 25 25 24 21 21 23 27 31 33 34 33 31 28 28 30 28 22 19 18 15 14
24 23 25 23 21 21 22 22 23 26 28 31 34 37 40 43 45 45 40 30 27 26 23 22 21 18 21 26 27 32 33 36 32 30 29 26 27 26 23 20 15 13 11
24 24 25 22 21 22 23 23 24 26 29 31 34 36 39 42 45 44 40 29 26 24 21 20 18 18 22 25 30 32 35 34 37 31 26 27 25 24 23 18 13 10 8
24 23 24 23 20 22 24 23 24 26 28 31 33 35 39 41 44 44 37 28 25 23 20 19 18 18 20 25 29 31 33 33 36 35 29 25 25 23 21 18 15 10 5
24 23 24 23 21 22 24 24 24 26 28 31 34 36 38 41 43 44 37 27 24 22 20 18 17 17 20 25 28 29 31 31 32 33 30 25 23 22 20 16 12 7 1
23 23 23 22 21 23 24 23 24 26 28 31 34 36 38 41 43 44 37 27 23 21 19 18 17 19 20 24 27 28 29 30 31 32 31 26 22 19 18 17 13 10 10
23 23 23 21 21 22 23 23 24 26 28 31 34 36 39 40 43 44 37 27 22 21 20 19 19 20 20 22 25 26 27 29 29 30 31 27 22 19 17 15 14 13 13
23 23 22 21 20 21 22 22 24 26 29 31 34 36 38 40 43 44 37 27 21 21 20 20 20 20 20 21 24 25 27 27 28 28 28 28 24 20 19 20 18 17 17

GFSGL_500_spd_120.txt.gz
Wind_Speed
20 18 20 18 20 25 19 20 25 24 17 14 11 7 9 9 11 13 16 16 20 21 26 30 34 38 43 48 52 58 63 68 71 74 81 86 90 94 97 99 101 101 100
19 19 20 18 19 21 24 20 16 9 9 9 11 13 13 13 14 15 15 20 23 26 30 35 39 44 49 54 58 64 69 75 79 82 87 92 97 99 99 100 100 98 93
19 22 25 19 23 24 17 8 8 7 8 10 12 13 14 14 14 17 19 22 25 31 35 39 44 49 54 58 63 68 73 77 81 86 89 93 93 90 82 77 72 63 56
21 25 18 23 23 23 8 8 11 12 12 14 15 15 15 15 17 20 22 26 30 34 39 43 49 54 58 62 65 67 68 70 71 72 72 73 65 55 54 52 47 45 41
12 10 9 7 7 8 10 12 12 14 16 17 17 16 16 17 21 23 27 31 33 37 41 48 53 56 58 60 60 59 52 46 44 44 44 44 44 45 43 39 36 31 28
5 7 9 11 12 13 15 15 17 18 17 17 17 17 18 20 23 27 29 33 36 41 48 52 53 54 55 54 47 39 39 42 42 42 40 39 40 39 38 34 30 28 24
10 12 14 15 17 18 18 20 20 20 18 17 18 18 20 23 26 30 32 35 40 46 50 51 53 54 52 47 41 39 42 44 44 44 42 40 40 40 37 35 33 31 29
13 15 17 18 19 20 20 20 20 19 18 17 20 20 22 24 27 29 31 36 43 48 50 53 54 53 47 43 40 40 44 44 44 44 42 41 40 40 40 38 36 35 35
17 18 19 19 20 21 20 18 16 17 18 19 20 21 23 25 27 30 34 40 47 49 52 53 54 48 44 42 41 41 42 43 42 43 42 41 39 38 38 39 38 38 36
18 21 22 22 22 21 17 16 17 18 19 19 20 21 23 25 27 31 37 43 47 49 50 51 51 46 43 44 44 41 40 42 41 41 41 41 41 40 39 39 39 37 38
19 21 22 22 22 20 18 18 18 19 20 20 21 22 24 26 29 33 38 43 46 48 49 49 47 43 42 43 42 40 40 41 42 43 41 40 41 41 41 40 40 39 38
21 22 23 23 22 21 21 21 20 20 20 22 22 23 25 26 30 34 38 42 44 47 48 46 42 39 39 39 40 40 40 40 39 39 38 36 35 38 40 40 40 40 41
22 23 23 24 22 21 22 22 22 21 22 23 23 24 25 27 31 35 38 42 43 46 46 41 37 36 36 35 37 38 35 31 30 35 36 34 33 34 34 33 35 39 40
23 23 24 24 23 21 21 23 23 22 23 23 24 25 26 28 32 36 40 43 44 46 44 38 35 35 31 32 30 30 31 33 35 35 34 33 34 35 34 32 32 32 30
23 23 24 24 23 22 21 22 24 24 24 24 24 26 27 30 33 36 40 42 44 45 42 34 33 32 28 26 26 27 29 32 34 35 34 34 34 35 32 31 28 29 31
24 24 23 23 23 23 22 22 23 25 26 26 25 27 28 31 34 37 40 42 43 45 39 32 31 27 25 23 25 28 30 33 37 37 36 33 31 30 33 30 26 30 28
25 24 22 23 24 24 22 23 24 25 25 26 26 28 30 32 35 37 40 43 44 44 36 30 28 24 23 21 25 27 29 33 34 41 37 34 30 30 32 30 27 26 23
26 24 23 23 24 25 24 23 24 26 26 27 28 28 31 34 35 38 40 43 44 42 33 28 26 23 21 20 25 27 31 32 36 38 41 33 32 30 30 28 27 22 20
28 24 23 23 24 25 24 24 25 27 27 27 27 29 32 34 37 39 41 43 44 41 31 27 24 22 20 20 24 28 31 34 36 37 39 34 30 30 28 29 23 23 18
29 25 24 23 23 24 24 25 27 27 27 28 29 31 33 35 37 38 41 43 44 39 29 25 24 22 19 20 23 27 30 33 34 35 38 35 29 28 28 26 25 20 17
29 26 24 24 23 24 24 25 27 29 28 28 29 31 34 37 38 39 41 43 44 38 29 25 23 22 19 19 21 26 28 30 31 33 34 35 30 26 26 26 23 21 18
29 26 24 24 24 24 24 25 28 28 29 29 30 33 35 37 38 39 41 44 44 37 28 24 23 21 19 19 20 24 26 27 30 31 33 34 30 26 24 23 22 19 16
29 26 23 23 25 25 24 25 28 28 28 29 31 34 35 36 37 39 41 43 43 36 27 23 22 22 20 20 20 22 25 26 27 30 31 30 32 26 24 22 19 18 13
26 24 22 22 24 24 24 25 27 27 27 29 32 34 35 35 36 38 40 43 42 36 27 22 22 22 22 21 21 23 24 26 27 27 29 29 29 28 23 20 19 18 17
24 22 22 22 22 23 24 25 26 26 28 30 33 34 34 34 35 37 40 43 41 35 26 21 21 21 21 21 21 23 24 25 26 27 28 28 28 27 25 21 18 18 16
22 22 21 21 22 23 24 24 24 26 28 31 33 33 33 33 35 37 40 42 40 33 24 19 21 21 20 19 19 21 22 24 25 26 28 28 29 29 25 23 20 18 17

GFSGL_500_spd_123.txt.gz
Wind_Speed
3 3 6 8 7 8 15 12 12 15 15 12 13 17 20 23 19 16 16 17 19 21 21 24 26 30 34 37 40 44 47 52 57 62 67 73 79 84 88 91 95 99 102
4 6 7 9 9 11 14 16 15 12 12 10 15 17 17 16 15 16 17 18 20 21 24 27 30 34 36 39 44 48 54 59 63 67 72 78 83 86 89 88 86 83 82
5 7 8 15 16 17 12 13 15 10 9 11 16 18 18 18 19 19 19 20 22 24 26 30 32 36 40 45 49 54 58 61 64 66 69 71 73 68 64 62 62 58 53
7 6 8 6 4 10 9 10 10 10 13 17 19 20 20 20 20 20 22 23 24 27 29 31 34 38 44 48 52 55 57 58 60 63 63 61 56 50 50 49 46 47 48
3 4 3 2 4 7 9 11 13 16 18 20 21 23 22 22 22 22 23 25 27 30 31 34 37 41 46 50 52 54 55 58 58 57 53 50 50 52 52 49 46 45 46
2 4 7 7 8 10 12 14 15 17 19 20 21 24 23 22 22 23 24 27 29 31 31 35 39 44 47 50 52 52 56 54 50 47 47 49 50 51 50 48 47 45 43
10 11 11 12 14 16 17 18 19 21 21 21 23 23 23 22 24 24 26 28 29 31 32 36 41 45 47 50 51 51 51 49 49 47 47 48 47 48 48 47 46 44 42
15 15 16 16 17 18 19 21 23 23 22 23 23 22 22 23 25 25 27 28 30 32 35 39 40 44 47 50 51 48 46 47 47 48 48 49 48 47 48 47 45 45 43
15 16 17 18 19 21 21 21 21 22 22 22 22 22 23 24 25 26 27 29 31 33 36 39 41 44 48 49 48 43 42 43 45 47 48 49 50 50 49 48 47 45 43
17 18 19 21 22 22 21 21 20 20 21 22 23 23 24 25 24 26 28 29 31 34 37 41 43 46 49 49 46 42 41 43 44 44 43 42 41 41 42 42 45 46 44
19 19 19 20 21 22 22 21 20 20 22 22 22 23 24 25 26 26 28 29 32 36 38 41 43 46 48 49 45 40 40 39 36 35 34 36 38 38 38 38 37 37 36
23 23 22 22 22 22 23 22 21 22 22 23 23 24 24 25 26 28 29 31 34 37 39 41 44 46 48 44 39 37 35 33 33 33 35 37 38 36 37 37 38 38 37
25 26 24 23 23 23 23 24 22 22 24 25 26 27 27 27 27 29 31 33 35 38 40 42 44 46 44 38 35 32 30 30 29 33 35 39 40 38 36 35 34 35 35
27 27 27 24 23 22 23 24 24 23 24 26 27 29 29 29 30 30 32 34 37 39 41 42 44 44 40 34 31 27 28 28 29 33 36 38 41 38 35 32 36 35 31
28 29 28 25 24 23 22 23 24 24 25 27 29 31 30 30 31 32 33 35 38 40 41 43 45 44 36 30 28 25 27 30 32 36 38 38 42 37 34 32 35 36 31
28 29 28 26 24 23 22 24 25 25 26 27 30 31 31 31 31 33 34 37 39 40 42 44 44 40 32 29 27 25 26 29 33 34 33 36 40 35 33 31 31 31 30
28 28 28 28 24 24 23 23 24 25 26 28 30 31 31 32 32 34 36 38 39 40 41 44 44 37 30 27 26 24 26 28 30 33 34 35 38 35 32 32 30 31 27
26 27 27 30 25 25 24 22 23 25 26 29 30 31 31 32 32 34 37 38 38 40 42 44 43 36 28 26 25 23 24 26 29 32 33 34 37 35 31 31 31 28 26
26 26 28 30 26 26 25 24 23 24 26 28 30 31 31 32 33 36 38 38 39 39 42 44 42 35 27 25 24 22 22 25 28 30 32 32 35 34 31 29 30 28 25
26 27 28 29 27 26 26 25 24 24 26 28 30 30 31 32 34 36 38 38 39 40 43 43 41 34 26 24 24 22 21 23 26 28 31 31 30 32 30 27 27 27 24
26 27 27 29 29 26 27 27 26 25 26 29 30 31 31 33 35 37 39 38 39 41 43 43 40 32 25 24 23 22 21 22 24 27 29 29 29 30 31 27 24 23 23
27 28 28 29 29 25 27 27 27 26 27 29 30 30 31 33 35 38 38 38 39 41 43 43 39 31 24 24 23 22 22 22 23 26 26 28 29 29 29 28 23 21 20
28 28 29 29 26 25 26 27 27 26 27 29 29 30 32 34 36 38 36 37 39 41 43 42 37 29 23 23 23 23 23 23 23 25 25 26 28 28 29 27 25 21 19
29 28 28 26 24 24 25 26 27 26 27 28 29 30 33 35 37 36 36 37 39 41 42 40 33 24 21 23 23 23 22 22 22 24 25 25 26 28 29 28 25 23 18
28 26 27 22 22 22 24 26 26 26 26 26 29 32 31 34 35 35 36 37 38 41 41 37 29 21 20 23 23 21 19 19 19 22 24 23 25 29 29 28 26 22 19
25 25 23 21 21 23 24 25 25 25 25 27 31 29 30 33 33 34 34 36 38 40 39 33 24 17 19 22 21 17 16 15 18 21 21 23 26 30 29 28 25 21 18

GFSGL_500_spd_126.txt.gz
Wind_Speed
12 9 4 6 3 5 1 2 3 6 10 16 20 22 24 23 23 22 23 24 23 24 25 26 24 24 27 30 34 37 40 42 44 48 53 58 61 65 68 72 76 79 82
13 12 5 7 9 11 10 9 9 4 12 15 19 19 20 21 23 22 25 25 24 24 23 26 25 28 31 34 37 39 41 44 48 52 55 60 64 69 72 74 76 77 76
9 10 11 9 7 15 15 14 15 16 16 15 17 20 20 21 23 23 23 24 25 25 25 27 29 31 34 36 38 41 44 48 51 54 58 61 65 68 69 71 71 68 67
5 4 5 7 6 8 15 18 15 16 18 18 20 21 22 23 23 25 26 27 27 27 28 30 33 34 35 37 40 44 47 50 53 56 59 61 64 67 66 65 62 61 60
6 5 4 5 6 6 9 11 15 18 19 21 23 23 25 27 27 27 27 28 29 29 31 32 34 34 35 39 43 46 49 52 54 57 59 62 63 63 61 59 58 58 57
1 0 2 4 7 9 12 14 17 20 21 24 25 25 26 27 29 28 30 29 29 30 32 34 33 35 38 42 45 47 50 52 55 57 59 58 55 54 53 53 54 54 51
5 6 7 9 11 14 16 17 18 21 24 25 26 27 29 29 29 29 28 29 30 32 34 35 34 37 40 43 45 48 50 53 54 58 56 54 51 51 51 53 53 54 55
7 8 9 11 14 17 18 19 21 22 25 26 27 28 29 28 28 28 29 30 32 32 33 35 37 39 41 43 46 49 51 52 54 54 50 49 48 48 47 45 44 44 44
12 11 10 11 11 13 15 17 19 23 24 26 25 25 25 26 27 27 29 31 32 33 35 36 37 39 41 43 46 48 49 51 50 46 44 41 41 42 42 43 45 44 42
15 16 17 17 17 17 16 16 17 19 20 22 23 24 24 26 27 29 30 31 32 33 34 36 38 39 41 42 44 47 48 48 44 42 39 39 38 40 42 44 44 43 41
20 19 19 20 19 20 20 19 19 18 19 19 21 22 24 26 27 29 30 31 33 33 35 37 38 40 42 42 45 47 46 45 40 37 36 34 38 41 44 47 47 42 39
23 23 23 23 23 22 23 21 20 20 20 20 21 22 24 26 27 29 30 32 33 34 35 37 39 41 42 44 46 46 44 41 38 35 35 36 40 43 45 47 45 40 37
24 26 26 26 27 25 24 24 23 22 22 22 23 25 26 27 29 30 31 32 34 35 37 39 41 42 43 45 46 45 42 38 35 34 37 38 41 41 41 45 40 38 37
27 27 27 27 28 28 26 26 25 23 23 23 24 25 27 29 31 32 33 34 35 36 38 40 41 42 43 45 45 44 39 35 33 33 37 38 39 38 40 42 37 37 36
28 29 28 27 26 28 28 27 26 25 25 26 25 26 28 29 31 32 33 34 35 36 39 41 42 42 44 45 44 42 36 33 32 32 35 36 37 36 39 39 35 35 36
31 31 29 27 27 27 28 27 28 27 26 26 27 27 28 30 31 32 33 34 36 37 39 41 42 43 45 45 44 40 34 32 31 31 32 33 35 36 36 37 35 34 36
33 32 30 28 28 28 27 28 28 28 27 26 27 27 28 30 31 31 32 34 35 38 39 41 41 43 46 45 44 39 33 30 29 28 29 31 33 34 34 35 33 33 34
31 32 32 29 29 29 28 28 28 29 29 27 27 27 28 30 31 32 32 34 36 37 39 41 41 44 46 45 42 36 31 29 28 27 27 29 31 31 32 33 33 31 30
30 30 30 28 30 29 28 27 28 29 30 29 28 28 29 30 32 33 33 34 36 37 39 40 41 44 46 44 40 33 30 28 28 26 26 27 29 30 30 31 32 29 27
30 29 28 29 31 29 29 27 28 29 30 31 29 30 30 31 32 33 33 34 36 38 39 40 41 44 46 43 37 30 28 27 27 25 25 27 29 29 29 30 31 30 26
31 28 28 30 31 30 29 28 29 30 29 31 30 30 31 31 32 33 33 35 37 37 38 40 41 45 45 41 34 28 26 27 25 24 25 26 29 28 29 29 31 30 27
28 27 29 31 31 29 28 27 29 28 28 30 30 31 30 30 32 34 35 36 38 37 39 40 42 45 44 39 31 24 25 25 25 25 25 26 28 28 28 29 31 31 28
26 27 30 31 30 29 28 28 27 26 27 29 29 30 29 30 32 36 34 36 37 37 38 39 43 44 41 34 24 21 23 25 24 22 23 24 27 27 27 29 31 30 28
29 29 31 30 29 28 27 28 24 26 28 29 28 28 28 30 33 33 33 35 36 36 37 39 43 42 37 27 20 21 24 23 20 18 18 21 24 25 27 30 31 29 25
28 31 30 28 27 25 27 23 24 26 28 26 27 27 28 29 32 29 32 35 35 35 36 39 41 38 29 20 19 22 22 18 15 14 16 20 21 23 25 27 28 26 22
29 29 26 22 22 23 22 23 24 25 25 24 26 26 26 30 27 29 32 33 33 33 36 39 38 31 22 18 21 21 18 14 12 13 16 17 19 22 22 27 27 22 19

GFSGL_500_spd_129.txt.gz
Wind_Speed
16 18 15 14 15 14 11 9 6 10 11 21 23 24 25 27 31 33 32 31 30 30 28 28 28 29 29 29 29 30 31 34 38 41 42 45 49 52 55 57 60 62 67
6 13 20 15 17 16 16 12 11 9 7 14 16 22 27 30 29 29 32 32 32 31 31 32 29 29 32 30 31 33 35 38 40 42 45 48 51 53 56 59 62 65 68
15 17 13 21 22 21 23 23 23 25 25 24 22 21 24 26 27 29 29 28 27 27 28 29 30 30 31 32 34 37 39 41 42 45 47 50 53 55 58 60 64 67 70
12 14 15 16 16 14 19 20 23 20 21 24 26 26 24 25 25 26 27 28 29 29 28 29 31 31 34 35 38 39 39 41 45 48 50 52 54 56 58 62 64 67 67
6 10 12 12 10 8 8 11 16 17 18 18 21 25 24 25 26 28 29 31 31 32 32 32 34 35 37 37 39 39 41 44 48 50 51 53 55 57 60 63 64 64 62
4 5 5 5 3 5 4 10 14 12 17 19 21 25 27 28 29 30 32 32 33 34 34 33 35 37 38 39 40 41 44 47 49 50 51 53 55 57 61 61 60 58 56
5 6 7 8 7 8 10 14 15 18 23 22 24 28 31 31 31 31 31 32 33 34 34 35 36 37 38 39 40 42 46 48 47 48 50 53 55 57 58 56 53 50 48
4 6 8 9 10 11 13 15 18 20 25 25 26 29 31 30 30 30 30 31 32 33 34 36 36 37 38 39 41 45 46 47 47 48 51 53 55 56 54 49 45 44 45
6 7 8 9 10 11 14 15 16 16 18 21 23 26 27 28 27 28 28 29 30 31 34 35 37 37 39 41 44 46 48 48 49 51 51 52 52 50 46 42 43 46 47
10 10 10 11 11 12 14 16 18 19 19 20 21 22 25 27 26 24 27 28 30 32 33 35 36 38 40 42 45 47 47 47 49 49 49 49 46 43 42 42 44 45 47
16 17 17 16 15 15 16 16 18 20 21 21 22 22 23 25 27 28 27 28 31 32 34 35 37 39 40 43 44 45 46 46 48 48 48 45 42 40 41 42 43 46 47
19 20 21 21 21 20 20 20 20 21 22 22 22 23 24 26 28 29 30 30 31 32 34 36 37 38 40 41 43 45 45 46 48 47 44 40 39 38 40 41 43 44 46
22 23 24 24 25 24 23 23 23 22 23 23 22 21 22 24 26 28 30 30 31 31 32 34 36 38 39 41 43 44 45 46 48 46 42 39 37 37 39 40 40 41 43
24 25 27 28 29 28 26 26 25 23 24 24 24 24 23 24 25 26 27 28 28 29 31 33 35 37 39 41 43 43 45 47 49 46 42 37 35 35 36 38 39 39 41
27 29 30 32 32 31 29 28 28 25 24 26 25 25 25 25 25 26 27 27 28 30 31 32 34 36 37 40 42 43 45 47 49 44 39 35 33 33 33 36 38 38 38
27 30 31 32 33 33 31 31 30 29 26 26 27 26 27 26 26 26 27 28 29 31 32 33 35 36 38 40 42 44 46 48 48 42 36 33 31 31 32 35 36 36 36
27 30 31 33 33 32 31 33 32 31 28 27 28 28 28 28 27 27 28 29 30 31 33 34 35 37 40 41 42 44 47 48 46 39 34 32 29 29 30 33 35 35 34
30 31 33 33 32 33 31 33 34 32 30 28 29 29 29 29 29 28 29 30 31 32 33 35 37 39 40 42 43 46 48 49 45 36 32 30 28 27 29 31 33 33 34
32 34 35 34 33 33 32 33 34 33 31 30 28 31 31 31 31 30 30 30 31 33 35 37 38 40 41 42 44 47 48 46 39 31 29 28 28 27 28 31 32 33 33
35 37 37 35 33 34 34 35 34 34 32 30 29 32 31 31 31 30 30 30 32 35 38 38 39 40 41 42 45 48 47 41 32 26 27 27 27 27 28 31 31 32 34
36 38 38 36 33 34 35 35 34 33 30 29 29 31 29 29 30 30 29 30 32 37 37 38 39 40 40 43 46 47 42 33 24 24 26 27 26 26 28 30 30 31 34
38 38 38 37 33 34 34 35 34 32 30 29 30 30 27 28 28 28 28 30 33 35 36 37 38 39 40 44 46 42 33 24 22 24 24 24 23 23 25 28 28 31 33
37 38 39 38 35 33 35 35 33 30 29 30 30 28 26 27 27 28 28 30 32 34 35 36 36 37 41 44 43 34 24 21 24 24 21 18 17 19 23 24 27 28 31
41 41 39 38 36 36 36 33 31 28 28 29 27 26 26 26 27 27 27 30 31 33 34 34 35 38 41 42 37 25 21 22 21 17 14 13 15 19 20 23 24 28 29
41 39 40 39 36 37 33 30 27 27 27 25 25 24 24 25 25 25 28 28 31 31 32 32 34 38 40 39 30 21 21 20 17 13 11 13 16 17 19 20 24 26 24
37 40 40 35 34 33 27 24 26 25 22 22 22 22 23 23 23 26 26 28 29 29 29 30 33 36 38 34 24 19 21 18 15 12 12 14 16 17 18 21 25 25 23

GFSGL_500_spd_135.txt.gz
Wind_Speed
9 10 11 13 16 20 22 22 23 22 23 24 18 21 28 31 32 35 36 37 38 40 42 42 42 43 40 39 38 35 34 35 34 33 33 32 32 34 36 39 42 44 47
4 6 9 12 14 16 21 19 21 30 28 23 19 25 29 32 34 37 37 39 38 37 37 39 38 41 36 36 36 34 33 32 34 31 32 34 36 39 40 41 44 46 49
4 7 8 8 9 16 22 12 22 24 29 28 28 31 33 31 36 37 33 32 33 33 34 34 30 29 30 31 32 32 32 32 32 33 34 37 39 41 43 44 46 49 50
3 4 5 6 3 11 14 11 12 12 15 19 17 20 22 25 26 24 23 23 25 23 25 27 28 30 31 32 33 32 32 33 34 35 38 38 39 40 41 45 48 50 51
3 5 6 7 9 8 8 11 14 20 21 22 22 21 22 23 24 24 26 27 27 26 28 30 31 31 31 32 31 31 32 33 36 38 39 39 39 40 42 45 48 50 50
2 2 2 2 2 4 10 12 12 12 13 15 16 19 21 23 23 23 25 25 27 28 28 29 30 30 30 30 30 32 33 34 36 37 38 38 40 41 43 45 47 47 49
2 3 4 5 7 9 11 13 14 15 16 18 20 22 24 26 29 28 29 31 31 29 28 28 29 29 29 29 31 32 33 33 35 36 36 38 40 43 44 46 47 47 48
5 5 7 8 9 10 11 12 12 13 15 17 19 20 22 24 25 26 27 28 29 28 28 28 28 29 29 30 32 32 32 33 34 36 37 39 40 42 44 45 46 47 48
8 9 9 10 11 12 13 13 14 15 17 19 20 22 23 24 25 26 28 28 28 28 28 28 29 30 30 31 32 32 32 34 35 36 37 38 40 41 42 44 46 47 49
11 11 12 12 13 14 15 16 17 18 19 20 22 24 25 26 26 26 26 28 29 29 30 30 30 30 30 31 32 33 34 34 35 36 37 38 40 42 44 46 47 48 49
13 14 14 14 15 15 16 17 18 20 21 21 22 24 25 27 28 28 27 27 27 28 29 30 31 31 31 30 31 32 34 33 35 36 37 39 41 43 45 46 48 49 48
15 16 16 16 16 17 18 19 20 21 22 23 24 24 25 26 27 29 29 28 28 28 28 28 29 29 30 30 31 31 33 34 34 36 38 41 43 44 45 47 48 48 44
16 17 17 17 19 20 22 23 23 23 24 25 24 24 25 26 28 29 30 30 30 29 28 28 28 28 28 29 31 32 33 34 35 37 40 43 44 45 46 47 47 45 41
17 18 19 20 21 21 24 26 26 26 26 26 25 25 26 27 28 30 31 31 31 30 29 28 28 29 29 30 31 32 33 34 37 40 42 44 44 45 47 47 45 40 35
18 20 21 21 22 24 26 27 27 27 27 28 28 26 26 28 29 30 31 32 32 31 30 28 28 29 29 30 32 32 34 38 40 42 42 42 44 46 46 45 40 33 29
19 20 21 21 23 26 28 28 28 29 30 30 30 28 28 29 30 30 30 32 33 31 29 30 29 29 29 30 31 33 37 39 41 42 41 43 45 45 44 41 32 27 26
21 20 22 25 25 25 28 28 28 30 31 34 33 30 29 29 30 30 30 31 31 31 30 29 30 30 31 31 32 35 37 40 41 41 43 44 45 43 38 30 24 23 24
23 24 25 26 27 29 31 32 32 32 32 34 36 32 30 30 30 31 31 31 31 31 31 27 29 30 31 32 34 36 37 39 40 42 44 45 42 35 27 20 20 21 21
31 30 29 29 30 30 33 34 34 34 33 34 36 33 32 32 31 31 31 30 31 31 28 26 28 30 30 32 35 36 38 39 40 43 44 41 33 23 19 19 20 20 19
35 36 35 34 33 33 33 33 33 33 32 34 35 35 34 33 32 32 32 31 30 30 26 26 29 29 31 34 34 36 37 38 41 43 40 31 22 20 21 19 18 15 16
35 37 38 39 39 38 37 36 36 35 33 33 34 35 34 33 31 31 32 31 30 26 24 27 28 30 33 33 33 35 36 38 41 40 30 22 22 21 18 13 11 13 16
36 39 40 42 43 41 39 38 37 35 34 34 36 35 33 30 30 31 30 29 25 23 25 26 29 31 31 31 32 33 35 39 39 32 23 22 20 15 10 9 13 14 15
37 40 41 44 43 42 39 36 35 34 34 34 35 33 31 30 30 28 27 21 21 24 26 28 29 29 29 30 31 32 35 37 34 24 21 20 17 11 9 13 14 14 16
38 40 43 45 47 45 40 34 33 34 31 30 31 29 29 28 28 24 19 20 22 25 28 28 28 27 27 28 29 31 34 34 29 21 20 18 15 11 12 14 15 16 17
41 42 45 47 46 42 35 30 30 28 26 26 24 24 25 27 20 18 19 22 25 26 26 26 25 25 26 27 27 31 32 31 25 20 20 17 15 13 14 15 16 18 19
41 44 46 48 41 29 25 26 20 18 19 18 21 22 18 17 18 19 21 23 24 23 23 22 23 24 25 24 26 29 29 27 22 19 19 17 15 15 16 17 18 19 20

GFSGL_500_spd_141.txt.gz
Wind_Speed
1 4 7 10 8 6 4 7 14 19 24 19 17 26 27 29 30 29 36 35 36 41 41 46 48 47 49 51 50 49 47 47 51 52 49 43 39 36 36 36 35 36 35
2 2 5 6 8 9 10 11 10 13 17 17 17 21 24 23 23 22 28 34 38 41 41 43 45 46 45 45 44 47 50 48 48 48 45 39 34 35 36 35 37 39 41
2 3 2 1 2 4 6 11 15 16 19 22 23 24 29 26 25 31 34 36 39 40 41 41 42 44 45 47 48 44 41 43 43 40 39 39 38 38 41 39 40 43 44
2 1 5 7 9 4 1 4 6 10 14 18 21 26 26 28 28 27 30 33 37 34 33 32 29 31 35 34 35 34 33 33 35 36 38 39 41 41 42 44 44 42 42
2 4 7 11 6 5 7 8 14 6 14 21 17 14 16 15 18 19 20 23 26 25 26 26 29 30 31 32 33 34 35 37 39 40 41 41 40 40 42 42 42 42 42
4 4 2 2 3 4 6 6 7 8 9 8 9 11 14 16 20 21 24 24 24 27 30 31 32 31 30 32 32 33 34 35 37 37 38 38 39 40 41 40 40 41 41
4 4 4 4 5 4 4 4 6 8 9 10 12 13 15 17 19 21 24 25 26 25 26 27 28 29 29 31 32 33 33 35 34 35 36 37 38 39 40 41 41 42 43
2 3 3 4 5 6 7 7 9 10 11 13 13 14 16 19 22 24 25 26 26 27 28 29 29 30 32 33 34 35 35 36 37 36 37 37 39 40 41 42 42 43 45
4 5 5 6 7 8 9 11 12 13 14 15 16 18 20 22 24 26 27 29 29 30 31 32 32 32 34 35 35 36 36 37 39 39 39 40 40 41 41 42 42 43 44
8 8 9 10 10 12 13 14 15 15 16 18 19 20 22 25 26 27 29 31 32 33 33 34 35 36 37 38 37 37 38 36 37 38 38 38 39 40 40 41 42 43 45
11 11 12 14 15 16 16 16 17 17 18 19 20 21 23 24 25 26 27 29 31 33 34 35 37 37 37 37 37 37 37 36 36 36 37 38 38 38 38 40 43 46 48
11 13 14 15 16 17 17 17 18 20 21 22 24 24 24 25 25 27 28 29 30 33 35 36 37 38 38 37 36 37 37 37 36 36 37 37 38 38 39 41 44 45 46
9 12 14 15 15 16 18 20 21 23 24 25 26 27 27 27 28 29 30 30 31 33 34 36 37 38 38 37 36 36 37 36 36 37 37 37 38 39 40 43 44 45 46
8 10 11 12 14 15 17 18 20 22 23 25 28 29 29 28 29 30 31 30 30 31 33 35 36 37 36 36 35 35 36 36 36 36 37 38 39 40 42 43 45 45 46
7 9 9 10 11 13 16 18 19 21 23 25 28 30 31 31 31 32 33 32 31 32 33 34 35 35 35 36 35 34 35 36 36 36 37 38 40 41 43 44 44 45 47
8 8 9 9 10 12 14 16 18 21 24 25 28 30 32 33 33 32 33 34 34 33 34 35 35 35 35 34 33 34 35 36 35 34 36 38 40 41 42 42 43 46 47
7 10 12 12 13 14 15 17 18 21 24 26 29 31 33 34 36 36 35 35 36 37 36 36 36 36 35 33 32 32 32 32 33 34 37 38 39 40 40 41 44 44 36
10 13 14 16 17 18 19 21 23 25 28 30 31 34 36 37 38 39 39 38 38 38 37 37 38 37 35 33 32 31 30 30 33 35 35 36 37 38 39 42 41 33 27
13 15 15 17 18 20 22 24 27 30 32 33 35 37 39 40 40 40 41 40 38 38 37 37 38 37 35 34 31 28 28 31 33 33 34 34 35 36 40 38 30 26 24
15 17 22 22 22 24 27 29 31 33 34 36 38 38 40 41 40 37 39 39 36 36 36 37 36 36 36 34 25 25 29 30 31 31 32 32 34 37 36 29 24 22 17
17 21 26 27 29 31 33 35 36 37 37 37 40 40 42 40 41 37 37 36 34 35 35 36 35 35 31 22 24 27 27 29 29 30 30 31 34 33 28 24 21 17 13
24 25 29 31 33 36 38 40 41 43 43 41 40 42 38 39 36 38 35 34 34 33 34 34 32 24 21 24 25 26 26 27 28 28 28 31 32 27 24 21 19 16 16
28 29 31 34 36 39 41 42 44 47 45 42 38 37 36 40 36 32 34 31 30 30 32 26 19 22 24 25 25 25 25 27 27 25 27 29 27 23 21 20 18 18 19
32 33 34 37 39 41 44 47 50 48 42 35 33 34 33 29 31 30 27 27 28 26 18 20 22 24 24 23 23 25 25 27 25 23 24 25 24 22 21 19 19 19 21
35 35 36 38 40 44 47 48 47 43 33 27 25 25 25 24 25 25 24 22 17 19 21 22 22 21 22 23 25 25 26 28 25 24 24 24 22 21 21 20 20 20 21
35 35 36 38 42 46 44 34 23 17 16 15 20 23 20 18 20 18 17 18 19 21 21 20 20 22 23 25 26 27 27 27 26 25 26 26 24 23 21 21 21 21 23